<?xml version="1.0" encoding="UTF-8" standalone="no" ?>
<gpx xmlns="http://www.topografix.com/GPX/1/1" xmlns:xsi="http://www.w3.org/2001/XMLSchema-instance" xsi:schemaLocation="http://www.topografix.com/GPX/1/1 http://www.topografix.com/GPX/1/1/gpx.xsd" version="1.1" creator="VisuGPX - https://www.visugpx.com">
  <metadata>
    <name>Cyclo - Tour vers les Vans.</name>
    <desc><![CDATA[Un petit tour agréable pour profiter des routes calmes d\'Ardèche.]]></desc>
  </metadata>
  <trk>
    <name><![CDATA[16-OCT-13 15:57:23]]></name>
    <trkseg>
      <trkpt lat="44.42539" lon="4.29758">
        <ele>96.27</ele>
        <time>2013-10-16T11:46:55Z</time>
      </trkpt>
      <trkpt lat="44.4254" lon="4.29759">
        <ele>96.27</ele>
        <time>2013-10-16T11:46:56Z</time>
      </trkpt>
      <trkpt lat="44.42542" lon="4.29762">
        <ele>98.67</ele>
        <time>2013-10-16T11:46:59Z</time>
      </trkpt>
      <trkpt lat="44.42542" lon="4.29765">
        <ele>102.04</ele>
        <time>2013-10-16T11:47:05Z</time>
      </trkpt>
      <trkpt lat="44.42543" lon="4.29766">
        <ele>102.04</ele>
        <time>2013-10-16T11:47:06Z</time>
      </trkpt>
      <trkpt lat="44.42543" lon="4.29765">
        <ele>105.4</ele>
        <time>2013-10-16T11:47:16Z</time>
      </trkpt>
      <trkpt lat="44.42548" lon="4.29768">
        <ele>108.29</ele>
        <time>2013-10-16T11:47:28Z</time>
      </trkpt>
      <trkpt lat="44.42549" lon="4.29773">
        <ele>109.25</ele>
        <time>2013-10-16T11:47:36Z</time>
      </trkpt>
      <trkpt lat="44.42551" lon="4.29774">
        <ele>110.69</ele>
        <time>2013-10-16T11:47:49Z</time>
      </trkpt>
      <trkpt lat="44.42551" lon="4.29774">
        <ele>111.17</ele>
        <time>2013-10-16T11:47:50Z</time>
      </trkpt>
      <trkpt lat="44.42542" lon="4.29785">
        <ele>111.65</ele>
        <time>2013-10-16T11:47:56Z</time>
      </trkpt>
      <trkpt lat="44.4253" lon="4.29808">
        <ele>111.17</ele>
        <time>2013-10-16T11:48:02Z</time>
      </trkpt>
      <trkpt lat="44.42525" lon="4.29817">
        <ele>110.21</ele>
        <time>2013-10-16T11:48:06Z</time>
      </trkpt>
      <trkpt lat="44.42526" lon="4.29821">
        <ele>109.73</ele>
        <time>2013-10-16T11:48:07Z</time>
      </trkpt>
      <trkpt lat="44.42528" lon="4.29833">
        <ele>108.29</ele>
        <time>2013-10-16T11:48:11Z</time>
      </trkpt>
      <trkpt lat="44.42527" lon="4.29834">
        <ele>108.29</ele>
        <time>2013-10-16T11:48:14Z</time>
      </trkpt>
      <trkpt lat="44.42506" lon="4.29787">
        <ele>108.77</ele>
        <time>2013-10-16T11:48:23Z</time>
      </trkpt>
      <trkpt lat="44.42502" lon="4.29779">
        <ele>109.25</ele>
        <time>2013-10-16T11:48:24Z</time>
      </trkpt>
      <trkpt lat="44.42497" lon="4.29771">
        <ele>109.25</ele>
        <time>2013-10-16T11:48:25Z</time>
      </trkpt>
      <trkpt lat="44.4242" lon="4.29661">
        <ele>111.17</ele>
        <time>2013-10-16T11:48:35Z</time>
      </trkpt>
      <trkpt lat="44.42415" lon="4.29656">
        <ele>111.17</ele>
        <time>2013-10-16T11:48:36Z</time>
      </trkpt>
      <trkpt lat="44.4236" lon="4.29618">
        <ele>114.53</ele>
        <time>2013-10-16T11:48:47Z</time>
      </trkpt>
      <trkpt lat="44.42344" lon="4.29606">
        <ele>115.01</ele>
        <time>2013-10-16T11:48:50Z</time>
      </trkpt>
      <trkpt lat="44.42339" lon="4.29601">
        <ele>115.98</ele>
        <time>2013-10-16T11:48:51Z</time>
      </trkpt>
      <trkpt lat="44.42335" lon="4.29596">
        <ele>115.98</ele>
        <time>2013-10-16T11:48:52Z</time>
      </trkpt>
      <trkpt lat="44.42266" lon="4.29502">
        <ele>117.42</ele>
        <time>2013-10-16T11:49:07Z</time>
      </trkpt>
      <trkpt lat="44.42199" lon="4.29416">
        <ele>118.86</ele>
        <time>2013-10-16T11:49:22Z</time>
      </trkpt>
      <trkpt lat="44.42194" lon="4.29411">
        <ele>119.34</ele>
        <time>2013-10-16T11:49:23Z</time>
      </trkpt>
      <trkpt lat="44.42154" lon="4.29345">
        <ele>120.78</ele>
        <time>2013-10-16T11:49:34Z</time>
      </trkpt>
      <trkpt lat="44.42096" lon="4.29239">
        <ele>123.19</ele>
        <time>2013-10-16T11:49:51Z</time>
      </trkpt>
      <trkpt lat="44.42037" lon="4.29103">
        <ele>124.15</ele>
        <time>2013-10-16T11:50:09Z</time>
      </trkpt>
      <trkpt lat="44.41981" lon="4.28955">
        <ele>123.19</ele>
        <time>2013-10-16T11:50:26Z</time>
      </trkpt>
      <trkpt lat="44.41957" lon="4.28917">
        <ele>124.63</ele>
        <time>2013-10-16T11:50:31Z</time>
      </trkpt>
      <trkpt lat="44.41952" lon="4.28911">
        <ele>124.15</ele>
        <time>2013-10-16T11:50:32Z</time>
      </trkpt>
      <trkpt lat="44.41946" lon="4.28906">
        <ele>123.19</ele>
        <time>2013-10-16T11:50:33Z</time>
      </trkpt>
      <trkpt lat="44.4194" lon="4.28901">
        <ele>123.19</ele>
        <time>2013-10-16T11:50:34Z</time>
      </trkpt>
      <trkpt lat="44.41865" lon="4.28842">
        <ele>122.22</ele>
        <time>2013-10-16T11:50:47Z</time>
      </trkpt>
      <trkpt lat="44.41799" lon="4.28736">
        <ele>122.22</ele>
        <time>2013-10-16T11:51:03Z</time>
      </trkpt>
      <trkpt lat="44.4179" lon="4.28725">
        <ele>122.71</ele>
        <time>2013-10-16T11:51:05Z</time>
      </trkpt>
      <trkpt lat="44.41768" lon="4.28705">
        <ele>123.19</ele>
        <time>2013-10-16T11:51:09Z</time>
      </trkpt>
      <trkpt lat="44.41764" lon="4.28699">
        <ele>122.71</ele>
        <time>2013-10-16T11:51:10Z</time>
      </trkpt>
      <trkpt lat="44.41723" lon="4.28602">
        <ele>122.71</ele>
        <time>2013-10-16T11:51:22Z</time>
      </trkpt>
      <trkpt lat="44.41666" lon="4.28501">
        <ele>121.74</ele>
        <time>2013-10-16T11:51:36Z</time>
      </trkpt>
      <trkpt lat="44.41634" lon="4.28405">
        <ele>122.71</ele>
        <time>2013-10-16T11:51:49Z</time>
      </trkpt>
      <trkpt lat="44.41633" lon="4.28397">
        <ele>122.71</ele>
        <time>2013-10-16T11:51:50Z</time>
      </trkpt>
      <trkpt lat="44.41633" lon="4.28389">
        <ele>123.19</ele>
        <time>2013-10-16T11:51:51Z</time>
      </trkpt>
      <trkpt lat="44.41633" lon="4.28381">
        <ele>123.19</ele>
        <time>2013-10-16T11:51:52Z</time>
      </trkpt>
      <trkpt lat="44.41633" lon="4.28373">
        <ele>123.19</ele>
        <time>2013-10-16T11:51:53Z</time>
      </trkpt>
      <trkpt lat="44.41634" lon="4.28366">
        <ele>123.67</ele>
        <time>2013-10-16T11:51:54Z</time>
      </trkpt>
      <trkpt lat="44.41635" lon="4.28344">
        <ele>123.67</ele>
        <time>2013-10-16T11:51:57Z</time>
      </trkpt>
      <trkpt lat="44.41636" lon="4.28337">
        <ele>123.67</ele>
        <time>2013-10-16T11:51:58Z</time>
      </trkpt>
      <trkpt lat="44.41636" lon="4.2833">
        <ele>124.15</ele>
        <time>2013-10-16T11:51:59Z</time>
      </trkpt>
      <trkpt lat="44.41639" lon="4.2829">
        <ele>124.63</ele>
        <time>2013-10-16T11:52:05Z</time>
      </trkpt>
      <trkpt lat="44.4164" lon="4.28282">
        <ele>124.63</ele>
        <time>2013-10-16T11:52:06Z</time>
      </trkpt>
      <trkpt lat="44.41643" lon="4.28252">
        <ele>125.11</ele>
        <time>2013-10-16T11:52:10Z</time>
      </trkpt>
      <trkpt lat="44.41645" lon="4.28223">
        <ele>125.11</ele>
        <time>2013-10-16T11:52:14Z</time>
      </trkpt>
      <trkpt lat="44.41645" lon="4.28216">
        <ele>125.59</ele>
        <time>2013-10-16T11:52:15Z</time>
      </trkpt>
      <trkpt lat="44.41646" lon="4.28209">
        <ele>125.59</ele>
        <time>2013-10-16T11:52:16Z</time>
      </trkpt>
      <trkpt lat="44.41646" lon="4.28177">
        <ele>125.59</ele>
        <time>2013-10-16T11:52:20Z</time>
      </trkpt>
      <trkpt lat="44.41644" lon="4.28154">
        <ele>125.59</ele>
        <time>2013-10-16T11:52:23Z</time>
      </trkpt>
      <trkpt lat="44.41639" lon="4.28142">
        <ele>126.07</ele>
        <time>2013-10-16T11:52:25Z</time>
      </trkpt>
      <trkpt lat="44.41636" lon="4.28137">
        <ele>126.07</ele>
        <time>2013-10-16T11:52:26Z</time>
      </trkpt>
      <trkpt lat="44.41624" lon="4.28112">
        <ele>126.07</ele>
        <time>2013-10-16T11:52:30Z</time>
      </trkpt>
      <trkpt lat="44.41617" lon="4.28101">
        <ele>126.07</ele>
        <time>2013-10-16T11:52:32Z</time>
      </trkpt>
      <trkpt lat="44.41614" lon="4.28094">
        <ele>126.07</ele>
        <time>2013-10-16T11:52:33Z</time>
      </trkpt>
      <trkpt lat="44.41612" lon="4.28087">
        <ele>126.07</ele>
        <time>2013-10-16T11:52:34Z</time>
      </trkpt>
      <trkpt lat="44.41602" lon="4.28056">
        <ele>125.59</ele>
        <time>2013-10-16T11:52:38Z</time>
      </trkpt>
      <trkpt lat="44.41596" lon="4.28033">
        <ele>125.59</ele>
        <time>2013-10-16T11:52:41Z</time>
      </trkpt>
      <trkpt lat="44.41593" lon="4.28026">
        <ele>125.59</ele>
        <time>2013-10-16T11:52:42Z</time>
      </trkpt>
      <trkpt lat="44.4159" lon="4.28019">
        <ele>126.07</ele>
        <time>2013-10-16T11:52:43Z</time>
      </trkpt>
      <trkpt lat="44.41555" lon="4.27912">
        <ele>127.03</ele>
        <time>2013-10-16T11:52:57Z</time>
      </trkpt>
      <trkpt lat="44.41552" lon="4.27896">
        <ele>127.51</ele>
        <time>2013-10-16T11:52:59Z</time>
      </trkpt>
      <trkpt lat="44.41551" lon="4.27887">
        <ele>127.03</ele>
        <time>2013-10-16T11:53:00Z</time>
      </trkpt>
      <trkpt lat="44.41551" lon="4.27879">
        <ele>127.03</ele>
        <time>2013-10-16T11:53:01Z</time>
      </trkpt>
      <trkpt lat="44.41551" lon="4.27871">
        <ele>127.03</ele>
        <time>2013-10-16T11:53:02Z</time>
      </trkpt>
      <trkpt lat="44.41553" lon="4.27863">
        <ele>127.03</ele>
        <time>2013-10-16T11:53:03Z</time>
      </trkpt>
      <trkpt lat="44.41554" lon="4.27855">
        <ele>127.51</ele>
        <time>2013-10-16T11:53:04Z</time>
      </trkpt>
      <trkpt lat="44.4157" lon="4.27737">
        <ele>128.95</ele>
        <time>2013-10-16T11:53:19Z</time>
      </trkpt>
      <trkpt lat="44.4157" lon="4.27714">
        <ele>129.43</ele>
        <time>2013-10-16T11:53:22Z</time>
      </trkpt>
      <trkpt lat="44.41572" lon="4.27707">
        <ele>129.43</ele>
        <time>2013-10-16T11:53:23Z</time>
      </trkpt>
      <trkpt lat="44.41574" lon="4.277">
        <ele>129.43</ele>
        <time>2013-10-16T11:53:24Z</time>
      </trkpt>
      <trkpt lat="44.41588" lon="4.27667">
        <ele>129.92</ele>
        <time>2013-10-16T11:53:29Z</time>
      </trkpt>
      <trkpt lat="44.416" lon="4.27651">
        <ele>130.4</ele>
        <time>2013-10-16T11:53:32Z</time>
      </trkpt>
      <trkpt lat="44.41604" lon="4.27646">
        <ele>130.4</ele>
        <time>2013-10-16T11:53:33Z</time>
      </trkpt>
      <trkpt lat="44.41607" lon="4.27641">
        <ele>130.4</ele>
        <time>2013-10-16T11:53:34Z</time>
      </trkpt>
      <trkpt lat="44.4162" lon="4.27618">
        <ele>130.88</ele>
        <time>2013-10-16T11:53:38Z</time>
      </trkpt>
      <trkpt lat="44.41625" lon="4.27604">
        <ele>131.36</ele>
        <time>2013-10-16T11:53:40Z</time>
      </trkpt>
      <trkpt lat="44.41632" lon="4.27577">
        <ele>131.84</ele>
        <time>2013-10-16T11:53:44Z</time>
      </trkpt>
      <trkpt lat="44.41634" lon="4.27562">
        <ele>131.84</ele>
        <time>2013-10-16T11:53:46Z</time>
      </trkpt>
      <trkpt lat="44.41634" lon="4.27548">
        <ele>131.84</ele>
        <time>2013-10-16T11:53:48Z</time>
      </trkpt>
      <trkpt lat="44.41617" lon="4.27439">
        <ele>132.8</ele>
        <time>2013-10-16T11:54:03Z</time>
      </trkpt>
      <trkpt lat="44.41597" lon="4.27383">
        <ele>133.28</ele>
        <time>2013-10-16T11:54:11Z</time>
      </trkpt>
      <trkpt lat="44.41596" lon="4.27375">
        <ele>133.28</ele>
        <time>2013-10-16T11:54:12Z</time>
      </trkpt>
      <trkpt lat="44.41603" lon="4.27285">
        <ele>131.36</ele>
        <time>2013-10-16T11:54:22Z</time>
      </trkpt>
      <trkpt lat="44.41624" lon="4.27207">
        <ele>128.95</ele>
        <time>2013-10-16T11:54:30Z</time>
      </trkpt>
      <trkpt lat="44.41626" lon="4.27196">
        <ele>128.47</ele>
        <time>2013-10-16T11:54:31Z</time>
      </trkpt>
      <trkpt lat="44.41626" lon="4.27185">
        <ele>127.99</ele>
        <time>2013-10-16T11:54:32Z</time>
      </trkpt>
      <trkpt lat="44.41626" lon="4.27173">
        <ele>127.99</ele>
        <time>2013-10-16T11:54:33Z</time>
      </trkpt>
      <trkpt lat="44.41626" lon="4.27161">
        <ele>127.51</ele>
        <time>2013-10-16T11:54:34Z</time>
      </trkpt>
      <trkpt lat="44.41624" lon="4.27149">
        <ele>127.51</ele>
        <time>2013-10-16T11:54:35Z</time>
      </trkpt>
      <trkpt lat="44.41622" lon="4.27137">
        <ele>126.55</ele>
        <time>2013-10-16T11:54:36Z</time>
      </trkpt>
      <trkpt lat="44.41619" lon="4.27126">
        <ele>126.07</ele>
        <time>2013-10-16T11:54:37Z</time>
      </trkpt>
      <trkpt lat="44.41616" lon="4.27115">
        <ele>125.11</ele>
        <time>2013-10-16T11:54:38Z</time>
      </trkpt>
      <trkpt lat="44.41611" lon="4.27104">
        <ele>124.63</ele>
        <time>2013-10-16T11:54:39Z</time>
      </trkpt>
      <trkpt lat="44.41607" lon="4.27094">
        <ele>124.15</ele>
        <time>2013-10-16T11:54:40Z</time>
      </trkpt>
      <trkpt lat="44.41602" lon="4.27084">
        <ele>123.67</ele>
        <time>2013-10-16T11:54:41Z</time>
      </trkpt>
      <trkpt lat="44.41596" lon="4.27074">
        <ele>123.67</ele>
        <time>2013-10-16T11:54:42Z</time>
      </trkpt>
      <trkpt lat="44.41591" lon="4.27065">
        <ele>123.67</ele>
        <time>2013-10-16T11:54:43Z</time>
      </trkpt>
      <trkpt lat="44.41584" lon="4.27057">
        <ele>123.19</ele>
        <time>2013-10-16T11:54:44Z</time>
      </trkpt>
      <trkpt lat="44.41577" lon="4.2705">
        <ele>123.19</ele>
        <time>2013-10-16T11:54:45Z</time>
      </trkpt>
      <trkpt lat="44.4157" lon="4.27043">
        <ele>123.19</ele>
        <time>2013-10-16T11:54:46Z</time>
      </trkpt>
      <trkpt lat="44.41563" lon="4.27038">
        <ele>122.71</ele>
        <time>2013-10-16T11:54:47Z</time>
      </trkpt>
      <trkpt lat="44.415" lon="4.26973">
        <ele>121.26</ele>
        <time>2013-10-16T11:54:57Z</time>
      </trkpt>
      <trkpt lat="44.41437" lon="4.26893">
        <ele>121.74</ele>
        <time>2013-10-16T11:55:09Z</time>
      </trkpt>
      <trkpt lat="44.41431" lon="4.26888">
        <ele>121.74</ele>
        <time>2013-10-16T11:55:10Z</time>
      </trkpt>
      <trkpt lat="44.41425" lon="4.26885">
        <ele>122.22</ele>
        <time>2013-10-16T11:55:11Z</time>
      </trkpt>
      <trkpt lat="44.41419" lon="4.26883">
        <ele>122.22</ele>
        <time>2013-10-16T11:55:12Z</time>
      </trkpt>
      <trkpt lat="44.41414" lon="4.26882">
        <ele>122.71</ele>
        <time>2013-10-16T11:55:13Z</time>
      </trkpt>
      <trkpt lat="44.41408" lon="4.26881">
        <ele>123.19</ele>
        <time>2013-10-16T11:55:14Z</time>
      </trkpt>
      <trkpt lat="44.41402" lon="4.26881">
        <ele>123.67</ele>
        <time>2013-10-16T11:55:15Z</time>
      </trkpt>
      <trkpt lat="44.41396" lon="4.26881">
        <ele>123.67</ele>
        <time>2013-10-16T11:55:16Z</time>
      </trkpt>
      <trkpt lat="44.41391" lon="4.26882">
        <ele>123.67</ele>
        <time>2013-10-16T11:55:17Z</time>
      </trkpt>
      <trkpt lat="44.41386" lon="4.26883">
        <ele>123.67</ele>
        <time>2013-10-16T11:55:18Z</time>
      </trkpt>
      <trkpt lat="44.41381" lon="4.26884">
        <ele>124.15</ele>
        <time>2013-10-16T11:55:19Z</time>
      </trkpt>
      <trkpt lat="44.41375" lon="4.26884">
        <ele>124.15</ele>
        <time>2013-10-16T11:55:20Z</time>
      </trkpt>
      <trkpt lat="44.4137" lon="4.26882">
        <ele>124.63</ele>
        <time>2013-10-16T11:55:21Z</time>
      </trkpt>
      <trkpt lat="44.41364" lon="4.2688">
        <ele>125.11</ele>
        <time>2013-10-16T11:55:22Z</time>
      </trkpt>
      <trkpt lat="44.41359" lon="4.26876">
        <ele>125.11</ele>
        <time>2013-10-16T11:55:23Z</time>
      </trkpt>
      <trkpt lat="44.41355" lon="4.26872">
        <ele>125.11</ele>
        <time>2013-10-16T11:55:24Z</time>
      </trkpt>
      <trkpt lat="44.41352" lon="4.26867">
        <ele>125.11</ele>
        <time>2013-10-16T11:55:25Z</time>
      </trkpt>
      <trkpt lat="44.41349" lon="4.2686">
        <ele>125.11</ele>
        <time>2013-10-16T11:55:26Z</time>
      </trkpt>
      <trkpt lat="44.41346" lon="4.26853">
        <ele>125.59</ele>
        <time>2013-10-16T11:55:27Z</time>
      </trkpt>
      <trkpt lat="44.41344" lon="4.26846">
        <ele>125.59</ele>
        <time>2013-10-16T11:55:28Z</time>
      </trkpt>
      <trkpt lat="44.41342" lon="4.26839">
        <ele>125.59</ele>
        <time>2013-10-16T11:55:29Z</time>
      </trkpt>
      <trkpt lat="44.41338" lon="4.26834">
        <ele>125.59</ele>
        <time>2013-10-16T11:55:30Z</time>
      </trkpt>
      <trkpt lat="44.41334" lon="4.2683">
        <ele>126.07</ele>
        <time>2013-10-16T11:55:31Z</time>
      </trkpt>
      <trkpt lat="44.41329" lon="4.26829">
        <ele>126.07</ele>
        <time>2013-10-16T11:55:32Z</time>
      </trkpt>
      <trkpt lat="44.41324" lon="4.26829">
        <ele>126.07</ele>
        <time>2013-10-16T11:55:33Z</time>
      </trkpt>
      <trkpt lat="44.41319" lon="4.26833">
        <ele>126.55</ele>
        <time>2013-10-16T11:55:34Z</time>
      </trkpt>
      <trkpt lat="44.41315" lon="4.26837">
        <ele>126.55</ele>
        <time>2013-10-16T11:55:35Z</time>
      </trkpt>
      <trkpt lat="44.41311" lon="4.26842">
        <ele>126.55</ele>
        <time>2013-10-16T11:55:36Z</time>
      </trkpt>
      <trkpt lat="44.41307" lon="4.26848">
        <ele>126.55</ele>
        <time>2013-10-16T11:55:37Z</time>
      </trkpt>
      <trkpt lat="44.41303" lon="4.26852">
        <ele>126.55</ele>
        <time>2013-10-16T11:55:38Z</time>
      </trkpt>
      <trkpt lat="44.41299" lon="4.26855">
        <ele>127.03</ele>
        <time>2013-10-16T11:55:39Z</time>
      </trkpt>
      <trkpt lat="44.41294" lon="4.26858">
        <ele>127.03</ele>
        <time>2013-10-16T11:55:40Z</time>
      </trkpt>
      <trkpt lat="44.4127" lon="4.26869">
        <ele>127.99</ele>
        <time>2013-10-16T11:55:45Z</time>
      </trkpt>
      <trkpt lat="44.4121" lon="4.26896">
        <ele>130.4</ele>
        <time>2013-10-16T11:55:58Z</time>
      </trkpt>
      <trkpt lat="44.41201" lon="4.269">
        <ele>130.4</ele>
        <time>2013-10-16T11:56:00Z</time>
      </trkpt>
      <trkpt lat="44.41182" lon="4.26904">
        <ele>131.36</ele>
        <time>2013-10-16T11:56:04Z</time>
      </trkpt>
      <trkpt lat="44.41177" lon="4.26902">
        <ele>131.84</ele>
        <time>2013-10-16T11:56:05Z</time>
      </trkpt>
      <trkpt lat="44.41173" lon="4.26899">
        <ele>131.84</ele>
        <time>2013-10-16T11:56:06Z</time>
      </trkpt>
      <trkpt lat="44.41168" lon="4.26895">
        <ele>132.32</ele>
        <time>2013-10-16T11:56:07Z</time>
      </trkpt>
      <trkpt lat="44.41164" lon="4.26889">
        <ele>132.32</ele>
        <time>2013-10-16T11:56:08Z</time>
      </trkpt>
      <trkpt lat="44.41161" lon="4.26882">
        <ele>132.8</ele>
        <time>2013-10-16T11:56:09Z</time>
      </trkpt>
      <trkpt lat="44.41159" lon="4.26875">
        <ele>132.8</ele>
        <time>2013-10-16T11:56:10Z</time>
      </trkpt>
      <trkpt lat="44.41158" lon="4.26867">
        <ele>132.8</ele>
        <time>2013-10-16T11:56:11Z</time>
      </trkpt>
      <trkpt lat="44.41154" lon="4.26852">
        <ele>132.8</ele>
        <time>2013-10-16T11:56:13Z</time>
      </trkpt>
      <trkpt lat="44.41151" lon="4.26845">
        <ele>132.8</ele>
        <time>2013-10-16T11:56:14Z</time>
      </trkpt>
      <trkpt lat="44.41148" lon="4.26839">
        <ele>132.8</ele>
        <time>2013-10-16T11:56:15Z</time>
      </trkpt>
      <trkpt lat="44.41141" lon="4.26826">
        <ele>133.76</ele>
        <time>2013-10-16T11:56:17Z</time>
      </trkpt>
      <trkpt lat="44.41139" lon="4.26818">
        <ele>134.24</ele>
        <time>2013-10-16T11:56:18Z</time>
      </trkpt>
      <trkpt lat="44.41138" lon="4.2681">
        <ele>134.24</ele>
        <time>2013-10-16T11:56:19Z</time>
      </trkpt>
      <trkpt lat="44.41137" lon="4.26786">
        <ele>134.72</ele>
        <time>2013-10-16T11:56:22Z</time>
      </trkpt>
      <trkpt lat="44.41136" lon="4.26777">
        <ele>134.72</ele>
        <time>2013-10-16T11:56:23Z</time>
      </trkpt>
      <trkpt lat="44.41135" lon="4.26769">
        <ele>135.2</ele>
        <time>2013-10-16T11:56:24Z</time>
      </trkpt>
      <trkpt lat="44.41133" lon="4.26761">
        <ele>135.2</ele>
        <time>2013-10-16T11:56:25Z</time>
      </trkpt>
      <trkpt lat="44.4113" lon="4.26754">
        <ele>135.68</ele>
        <time>2013-10-16T11:56:26Z</time>
      </trkpt>
      <trkpt lat="44.41128" lon="4.26747">
        <ele>135.68</ele>
        <time>2013-10-16T11:56:27Z</time>
      </trkpt>
      <trkpt lat="44.41125" lon="4.2674">
        <ele>135.68</ele>
        <time>2013-10-16T11:56:28Z</time>
      </trkpt>
      <trkpt lat="44.41121" lon="4.26734">
        <ele>135.68</ele>
        <time>2013-10-16T11:56:29Z</time>
      </trkpt>
      <trkpt lat="44.41116" lon="4.26729">
        <ele>135.68</ele>
        <time>2013-10-16T11:56:30Z</time>
      </trkpt>
      <trkpt lat="44.41112" lon="4.26724">
        <ele>135.68</ele>
        <time>2013-10-16T11:56:31Z</time>
      </trkpt>
      <trkpt lat="44.41099" lon="4.26709">
        <ele>136.16</ele>
        <time>2013-10-16T11:56:34Z</time>
      </trkpt>
      <trkpt lat="44.41096" lon="4.26702">
        <ele>136.16</ele>
        <time>2013-10-16T11:56:35Z</time>
      </trkpt>
      <trkpt lat="44.41094" lon="4.26694">
        <ele>136.16</ele>
        <time>2013-10-16T11:56:36Z</time>
      </trkpt>
      <trkpt lat="44.41093" lon="4.26686">
        <ele>136.16</ele>
        <time>2013-10-16T11:56:37Z</time>
      </trkpt>
      <trkpt lat="44.41092" lon="4.26678">
        <ele>136.16</ele>
        <time>2013-10-16T11:56:38Z</time>
      </trkpt>
      <trkpt lat="44.41089" lon="4.26642">
        <ele>135.68</ele>
        <time>2013-10-16T11:56:42Z</time>
      </trkpt>
      <trkpt lat="44.41087" lon="4.26633">
        <ele>135.2</ele>
        <time>2013-10-16T11:56:43Z</time>
      </trkpt>
      <trkpt lat="44.41042" lon="4.26496">
        <ele>133.76</ele>
        <time>2013-10-16T11:56:58Z</time>
      </trkpt>
      <trkpt lat="44.41005" lon="4.26416">
        <ele>131.84</ele>
        <time>2013-10-16T11:57:07Z</time>
      </trkpt>
      <trkpt lat="44.41002" lon="4.26406">
        <ele>131.84</ele>
        <time>2013-10-16T11:57:08Z</time>
      </trkpt>
      <trkpt lat="44.41" lon="4.26396">
        <ele>131.84</ele>
        <time>2013-10-16T11:57:09Z</time>
      </trkpt>
      <trkpt lat="44.40999" lon="4.26386">
        <ele>131.84</ele>
        <time>2013-10-16T11:57:10Z</time>
      </trkpt>
      <trkpt lat="44.40998" lon="4.26377">
        <ele>131.36</ele>
        <time>2013-10-16T11:57:11Z</time>
      </trkpt>
      <trkpt lat="44.40997" lon="4.26367">
        <ele>131.36</ele>
        <time>2013-10-16T11:57:12Z</time>
      </trkpt>
      <trkpt lat="44.40997" lon="4.26357">
        <ele>131.36</ele>
        <time>2013-10-16T11:57:13Z</time>
      </trkpt>
      <trkpt lat="44.40999" lon="4.26347">
        <ele>130.88</ele>
        <time>2013-10-16T11:57:14Z</time>
      </trkpt>
      <trkpt lat="44.41002" lon="4.26339">
        <ele>130.88</ele>
        <time>2013-10-16T11:57:15Z</time>
      </trkpt>
      <trkpt lat="44.41006" lon="4.26331">
        <ele>130.88</ele>
        <time>2013-10-16T11:57:16Z</time>
      </trkpt>
      <trkpt lat="44.41011" lon="4.26324">
        <ele>130.4</ele>
        <time>2013-10-16T11:57:17Z</time>
      </trkpt>
      <trkpt lat="44.41014" lon="4.26316">
        <ele>129.92</ele>
        <time>2013-10-16T11:57:18Z</time>
      </trkpt>
      <trkpt lat="44.41016" lon="4.26308">
        <ele>129.43</ele>
        <time>2013-10-16T11:57:19Z</time>
      </trkpt>
      <trkpt lat="44.41016" lon="4.26299">
        <ele>129.92</ele>
        <time>2013-10-16T11:57:20Z</time>
      </trkpt>
      <trkpt lat="44.41014" lon="4.26291">
        <ele>129.92</ele>
        <time>2013-10-16T11:57:21Z</time>
      </trkpt>
      <trkpt lat="44.4101" lon="4.26284">
        <ele>129.43</ele>
        <time>2013-10-16T11:57:22Z</time>
      </trkpt>
      <trkpt lat="44.41005" lon="4.26278">
        <ele>129.43</ele>
        <time>2013-10-16T11:57:23Z</time>
      </trkpt>
      <trkpt lat="44.41" lon="4.26273">
        <ele>129.43</ele>
        <time>2013-10-16T11:57:24Z</time>
      </trkpt>
      <trkpt lat="44.40931" lon="4.26209">
        <ele>131.36</ele>
        <time>2013-10-16T11:57:38Z</time>
      </trkpt>
      <trkpt lat="44.40872" lon="4.26152">
        <ele>133.76</ele>
        <time>2013-10-16T11:57:51Z</time>
      </trkpt>
      <trkpt lat="44.40834" lon="4.26115">
        <ele>132.8</ele>
        <time>2013-10-16T11:57:58Z</time>
      </trkpt>
      <trkpt lat="44.40786" lon="4.26051">
        <ele>131.84</ele>
        <time>2013-10-16T11:58:07Z</time>
      </trkpt>
      <trkpt lat="44.40781" lon="4.26046">
        <ele>131.36</ele>
        <time>2013-10-16T11:58:08Z</time>
      </trkpt>
      <trkpt lat="44.40776" lon="4.26039">
        <ele>131.36</ele>
        <time>2013-10-16T11:58:09Z</time>
      </trkpt>
      <trkpt lat="44.40714" lon="4.25939">
        <ele>131.84</ele>
        <time>2013-10-16T11:58:23Z</time>
      </trkpt>
      <trkpt lat="44.40658" lon="4.2585">
        <ele>135.2</ele>
        <time>2013-10-16T11:58:38Z</time>
      </trkpt>
      <trkpt lat="44.40598" lon="4.25757">
        <ele>137.13</ele>
        <time>2013-10-16T11:58:55Z</time>
      </trkpt>
      <trkpt lat="44.4054" lon="4.25665">
        <ele>137.61</ele>
        <time>2013-10-16T11:59:11Z</time>
      </trkpt>
      <trkpt lat="44.40482" lon="4.25572">
        <ele>138.09</ele>
        <time>2013-10-16T11:59:26Z</time>
      </trkpt>
      <trkpt lat="44.40424" lon="4.25481">
        <ele>138.57</ele>
        <time>2013-10-16T11:59:41Z</time>
      </trkpt>
      <trkpt lat="44.40362" lon="4.25383">
        <ele>138.09</ele>
        <time>2013-10-16T11:59:56Z</time>
      </trkpt>
      <trkpt lat="44.4032" lon="4.25308">
        <ele>137.13</ele>
        <time>2013-10-16T12:00:07Z</time>
      </trkpt>
      <trkpt lat="44.40316" lon="4.25301">
        <ele>137.13</ele>
        <time>2013-10-16T12:00:08Z</time>
      </trkpt>
      <trkpt lat="44.40312" lon="4.25295">
        <ele>137.61</ele>
        <time>2013-10-16T12:00:09Z</time>
      </trkpt>
      <trkpt lat="44.40307" lon="4.25289">
        <ele>137.13</ele>
        <time>2013-10-16T12:00:10Z</time>
      </trkpt>
      <trkpt lat="44.40302" lon="4.25283">
        <ele>137.13</ele>
        <time>2013-10-16T12:00:11Z</time>
      </trkpt>
      <trkpt lat="44.40262" lon="4.25239">
        <ele>135.68</ele>
        <time>2013-10-16T12:00:18Z</time>
      </trkpt>
      <trkpt lat="44.40255" lon="4.25235">
        <ele>134.72</ele>
        <time>2013-10-16T12:00:19Z</time>
      </trkpt>
      <trkpt lat="44.40247" lon="4.25234">
        <ele>134.72</ele>
        <time>2013-10-16T12:00:20Z</time>
      </trkpt>
      <trkpt lat="44.4024" lon="4.25234">
        <ele>134.72</ele>
        <time>2013-10-16T12:00:21Z</time>
      </trkpt>
      <trkpt lat="44.40232" lon="4.25235">
        <ele>134.72</ele>
        <time>2013-10-16T12:00:22Z</time>
      </trkpt>
      <trkpt lat="44.40137" lon="4.25239">
        <ele>132.32</ele>
        <time>2013-10-16T12:00:34Z</time>
      </trkpt>
      <trkpt lat="44.40129" lon="4.25237">
        <ele>131.84</ele>
        <time>2013-10-16T12:00:35Z</time>
      </trkpt>
      <trkpt lat="44.40121" lon="4.25233">
        <ele>132.32</ele>
        <time>2013-10-16T12:00:36Z</time>
      </trkpt>
      <trkpt lat="44.40113" lon="4.25227">
        <ele>131.84</ele>
        <time>2013-10-16T12:00:37Z</time>
      </trkpt>
      <trkpt lat="44.40106" lon="4.25221">
        <ele>131.36</ele>
        <time>2013-10-16T12:00:38Z</time>
      </trkpt>
      <trkpt lat="44.401" lon="4.25214">
        <ele>131.36</ele>
        <time>2013-10-16T12:00:39Z</time>
      </trkpt>
      <trkpt lat="44.40093" lon="4.25207">
        <ele>130.88</ele>
        <time>2013-10-16T12:00:40Z</time>
      </trkpt>
      <trkpt lat="44.40074" lon="4.25188">
        <ele>130.88</ele>
        <time>2013-10-16T12:00:43Z</time>
      </trkpt>
      <trkpt lat="44.40067" lon="4.25184">
        <ele>130.4</ele>
        <time>2013-10-16T12:00:44Z</time>
      </trkpt>
      <trkpt lat="44.4006" lon="4.2518">
        <ele>130.4</ele>
        <time>2013-10-16T12:00:45Z</time>
      </trkpt>
      <trkpt lat="44.39968" lon="4.25145">
        <ele>127.51</ele>
        <time>2013-10-16T12:00:57Z</time>
      </trkpt>
      <trkpt lat="44.39905" lon="4.25117">
        <ele>126.55</ele>
        <time>2013-10-16T12:01:05Z</time>
      </trkpt>
      <trkpt lat="44.39898" lon="4.25112">
        <ele>126.07</ele>
        <time>2013-10-16T12:01:06Z</time>
      </trkpt>
      <trkpt lat="44.39891" lon="4.25105">
        <ele>126.07</ele>
        <time>2013-10-16T12:01:07Z</time>
      </trkpt>
      <trkpt lat="44.39885" lon="4.25098">
        <ele>126.07</ele>
        <time>2013-10-16T12:01:08Z</time>
      </trkpt>
      <trkpt lat="44.39878" lon="4.2509">
        <ele>126.07</ele>
        <time>2013-10-16T12:01:09Z</time>
      </trkpt>
      <trkpt lat="44.39794" lon="4.24966">
        <ele>124.15</ele>
        <time>2013-10-16T12:01:25Z</time>
      </trkpt>
      <trkpt lat="44.39721" lon="4.24859">
        <ele>123.67</ele>
        <time>2013-10-16T12:01:41Z</time>
      </trkpt>
      <trkpt lat="44.39636" lon="4.24734">
        <ele>124.15</ele>
        <time>2013-10-16T12:02:00Z</time>
      </trkpt>
      <trkpt lat="44.39548" lon="4.24604">
        <ele>124.15</ele>
        <time>2013-10-16T12:02:20Z</time>
      </trkpt>
      <trkpt lat="44.39513" lon="4.24541">
        <ele>125.59</ele>
        <time>2013-10-16T12:02:29Z</time>
      </trkpt>
      <trkpt lat="44.39506" lon="4.24507">
        <ele>124.63</ele>
        <time>2013-10-16T12:02:33Z</time>
      </trkpt>
      <trkpt lat="44.39499" lon="4.24364">
        <ele>126.07</ele>
        <time>2013-10-16T12:02:50Z</time>
      </trkpt>
      <trkpt lat="44.39489" lon="4.24228">
        <ele>126.55</ele>
        <time>2013-10-16T12:03:08Z</time>
      </trkpt>
      <trkpt lat="44.39454" lon="4.24093">
        <ele>128.47</ele>
        <time>2013-10-16T12:03:26Z</time>
      </trkpt>
      <trkpt lat="44.39419" lon="4.23948">
        <ele>129.43</ele>
        <time>2013-10-16T12:03:46Z</time>
      </trkpt>
      <trkpt lat="44.39413" lon="4.23816">
        <ele>129.92</ele>
        <time>2013-10-16T12:04:03Z</time>
      </trkpt>
      <trkpt lat="44.39411" lon="4.23701">
        <ele>130.4</ele>
        <time>2013-10-16T12:04:18Z</time>
      </trkpt>
      <trkpt lat="44.39409" lon="4.23585">
        <ele>130.88</ele>
        <time>2013-10-16T12:04:33Z</time>
      </trkpt>
      <trkpt lat="44.39406" lon="4.23523">
        <ele>131.36</ele>
        <time>2013-10-16T12:04:41Z</time>
      </trkpt>
      <trkpt lat="44.39395" lon="4.23471">
        <ele>131.84</ele>
        <time>2013-10-16T12:04:48Z</time>
      </trkpt>
      <trkpt lat="44.39385" lon="4.234">
        <ele>132.32</ele>
        <time>2013-10-16T12:04:57Z</time>
      </trkpt>
      <trkpt lat="44.39383" lon="4.23393">
        <ele>131.84</ele>
        <time>2013-10-16T12:04:58Z</time>
      </trkpt>
      <trkpt lat="44.3938" lon="4.23386">
        <ele>132.32</ele>
        <time>2013-10-16T12:04:59Z</time>
      </trkpt>
      <trkpt lat="44.39376" lon="4.2338">
        <ele>132.32</ele>
        <time>2013-10-16T12:05:00Z</time>
      </trkpt>
      <trkpt lat="44.39371" lon="4.23376">
        <ele>132.32</ele>
        <time>2013-10-16T12:05:01Z</time>
      </trkpt>
      <trkpt lat="44.39366" lon="4.23373">
        <ele>132.8</ele>
        <time>2013-10-16T12:05:02Z</time>
      </trkpt>
      <trkpt lat="44.3936" lon="4.23372">
        <ele>132.32</ele>
        <time>2013-10-16T12:05:03Z</time>
      </trkpt>
      <trkpt lat="44.39354" lon="4.23372">
        <ele>132.32</ele>
        <time>2013-10-16T12:05:04Z</time>
      </trkpt>
      <trkpt lat="44.39348" lon="4.23372">
        <ele>131.84</ele>
        <time>2013-10-16T12:05:05Z</time>
      </trkpt>
      <trkpt lat="44.39342" lon="4.23371">
        <ele>131.84</ele>
        <time>2013-10-16T12:05:06Z</time>
      </trkpt>
      <trkpt lat="44.39337" lon="4.2337">
        <ele>131.84</ele>
        <time>2013-10-16T12:05:07Z</time>
      </trkpt>
      <trkpt lat="44.39331" lon="4.23366">
        <ele>131.84</ele>
        <time>2013-10-16T12:05:08Z</time>
      </trkpt>
      <trkpt lat="44.39326" lon="4.23363">
        <ele>131.84</ele>
        <time>2013-10-16T12:05:09Z</time>
      </trkpt>
      <trkpt lat="44.3932" lon="4.23363">
        <ele>132.32</ele>
        <time>2013-10-16T12:05:10Z</time>
      </trkpt>
      <trkpt lat="44.39315" lon="4.23364">
        <ele>132.32</ele>
        <time>2013-10-16T12:05:11Z</time>
      </trkpt>
      <trkpt lat="44.3931" lon="4.23365">
        <ele>131.84</ele>
        <time>2013-10-16T12:05:12Z</time>
      </trkpt>
      <trkpt lat="44.39305" lon="4.23368">
        <ele>131.84</ele>
        <time>2013-10-16T12:05:13Z</time>
      </trkpt>
      <trkpt lat="44.393" lon="4.23372">
        <ele>131.84</ele>
        <time>2013-10-16T12:05:14Z</time>
      </trkpt>
      <trkpt lat="44.39296" lon="4.23377">
        <ele>131.84</ele>
        <time>2013-10-16T12:05:15Z</time>
      </trkpt>
      <trkpt lat="44.39266" lon="4.23408">
        <ele>131.36</ele>
        <time>2013-10-16T12:05:21Z</time>
      </trkpt>
      <trkpt lat="44.3926" lon="4.23412">
        <ele>131.36</ele>
        <time>2013-10-16T12:05:22Z</time>
      </trkpt>
      <trkpt lat="44.39254" lon="4.23415">
        <ele>131.36</ele>
        <time>2013-10-16T12:05:23Z</time>
      </trkpt>
      <trkpt lat="44.39247" lon="4.23416">
        <ele>131.36</ele>
        <time>2013-10-16T12:05:24Z</time>
      </trkpt>
      <trkpt lat="44.39241" lon="4.23417">
        <ele>131.36</ele>
        <time>2013-10-16T12:05:25Z</time>
      </trkpt>
      <trkpt lat="44.39234" lon="4.23417">
        <ele>131.36</ele>
        <time>2013-10-16T12:05:26Z</time>
      </trkpt>
      <trkpt lat="44.39228" lon="4.23416">
        <ele>131.84</ele>
        <time>2013-10-16T12:05:27Z</time>
      </trkpt>
      <trkpt lat="44.39221" lon="4.23415">
        <ele>131.84</ele>
        <time>2013-10-16T12:05:28Z</time>
      </trkpt>
      <trkpt lat="44.39136" lon="4.23404">
        <ele>131.36</ele>
        <time>2013-10-16T12:05:42Z</time>
      </trkpt>
      <trkpt lat="44.3901" lon="4.23383">
        <ele>129.43</ele>
        <time>2013-10-16T12:06:00Z</time>
      </trkpt>
      <trkpt lat="44.38909" lon="4.23366">
        <ele>127.51</ele>
        <time>2013-10-16T12:06:14Z</time>
      </trkpt>
      <trkpt lat="44.38782" lon="4.23348">
        <ele>127.03</ele>
        <time>2013-10-16T12:06:32Z</time>
      </trkpt>
      <trkpt lat="44.38665" lon="4.23331">
        <ele>127.03</ele>
        <time>2013-10-16T12:06:49Z</time>
      </trkpt>
      <trkpt lat="44.38549" lon="4.23305">
        <ele>128.95</ele>
        <time>2013-10-16T12:07:07Z</time>
      </trkpt>
      <trkpt lat="44.38474" lon="4.23274">
        <ele>129.43</ele>
        <time>2013-10-16T12:07:20Z</time>
      </trkpt>
      <trkpt lat="44.3839" lon="4.23226">
        <ele>130.4</ele>
        <time>2013-10-16T12:07:36Z</time>
      </trkpt>
      <trkpt lat="44.38294" lon="4.23145">
        <ele>131.36</ele>
        <time>2013-10-16T12:07:55Z</time>
      </trkpt>
      <trkpt lat="44.38215" lon="4.23053">
        <ele>132.8</ele>
        <time>2013-10-16T12:08:12Z</time>
      </trkpt>
      <trkpt lat="44.38153" lon="4.22961">
        <ele>134.24</ele>
        <time>2013-10-16T12:08:27Z</time>
      </trkpt>
      <trkpt lat="44.38079" lon="4.22824">
        <ele>136.16</ele>
        <time>2013-10-16T12:08:47Z</time>
      </trkpt>
      <trkpt lat="44.38" lon="4.22676">
        <ele>136.16</ele>
        <time>2013-10-16T12:09:09Z</time>
      </trkpt>
      <trkpt lat="44.37934" lon="4.22551">
        <ele>137.13</ele>
        <time>2013-10-16T12:09:27Z</time>
      </trkpt>
      <trkpt lat="44.37872" lon="4.22432">
        <ele>138.09</ele>
        <time>2013-10-16T12:09:44Z</time>
      </trkpt>
      <trkpt lat="44.37803" lon="4.22303">
        <ele>138.09</ele>
        <time>2013-10-16T12:10:02Z</time>
      </trkpt>
      <trkpt lat="44.37727" lon="4.2216">
        <ele>138.57</ele>
        <time>2013-10-16T12:10:21Z</time>
      </trkpt>
      <trkpt lat="44.37649" lon="4.22017">
        <ele>138.09</ele>
        <time>2013-10-16T12:10:40Z</time>
      </trkpt>
      <trkpt lat="44.37599" lon="4.21922">
        <ele>139.53</ele>
        <time>2013-10-16T12:10:52Z</time>
      </trkpt>
      <trkpt lat="44.37597" lon="4.21913">
        <ele>139.53</ele>
        <time>2013-10-16T12:10:53Z</time>
      </trkpt>
      <trkpt lat="44.37596" lon="4.21904">
        <ele>139.53</ele>
        <time>2013-10-16T12:10:54Z</time>
      </trkpt>
      <trkpt lat="44.37595" lon="4.21895">
        <ele>139.05</ele>
        <time>2013-10-16T12:10:55Z</time>
      </trkpt>
      <trkpt lat="44.37594" lon="4.21885">
        <ele>139.05</ele>
        <time>2013-10-16T12:10:56Z</time>
      </trkpt>
      <trkpt lat="44.37571" lon="4.21727">
        <ele>137.13</ele>
        <time>2013-10-16T12:11:13Z</time>
      </trkpt>
      <trkpt lat="44.37538" lon="4.21566">
        <ele>135.2</ele>
        <time>2013-10-16T12:11:29Z</time>
      </trkpt>
      <trkpt lat="44.3749" lon="4.21411">
        <ele>136.16</ele>
        <time>2013-10-16T12:11:48Z</time>
      </trkpt>
      <trkpt lat="44.37451" lon="4.21281">
        <ele>133.76</ele>
        <time>2013-10-16T12:12:03Z</time>
      </trkpt>
      <trkpt lat="44.374" lon="4.21112">
        <ele>134.24</ele>
        <time>2013-10-16T12:12:22Z</time>
      </trkpt>
      <trkpt lat="44.37359" lon="4.20975">
        <ele>134.24</ele>
        <time>2013-10-16T12:12:38Z</time>
      </trkpt>
      <trkpt lat="44.37325" lon="4.20828">
        <ele>134.24</ele>
        <time>2013-10-16T12:12:55Z</time>
      </trkpt>
      <trkpt lat="44.37295" lon="4.20668">
        <ele>134.24</ele>
        <time>2013-10-16T12:13:13Z</time>
      </trkpt>
      <trkpt lat="44.37296" lon="4.20608">
        <ele>134.24</ele>
        <time>2013-10-16T12:13:20Z</time>
      </trkpt>
      <trkpt lat="44.37314" lon="4.20502">
        <ele>134.72</ele>
        <time>2013-10-16T12:13:33Z</time>
      </trkpt>
      <trkpt lat="44.37324" lon="4.20367">
        <ele>135.2</ele>
        <time>2013-10-16T12:13:49Z</time>
      </trkpt>
      <trkpt lat="44.37326" lon="4.20341">
        <ele>135.2</ele>
        <time>2013-10-16T12:13:52Z</time>
      </trkpt>
      <trkpt lat="44.37328" lon="4.20334">
        <ele>135.2</ele>
        <time>2013-10-16T12:13:53Z</time>
      </trkpt>
      <trkpt lat="44.3733" lon="4.20326">
        <ele>135.2</ele>
        <time>2013-10-16T12:13:54Z</time>
      </trkpt>
      <trkpt lat="44.37343" lon="4.20298">
        <ele>135.2</ele>
        <time>2013-10-16T12:13:58Z</time>
      </trkpt>
      <trkpt lat="44.3735" lon="4.20284">
        <ele>135.2</ele>
        <time>2013-10-16T12:14:00Z</time>
      </trkpt>
      <trkpt lat="44.37354" lon="4.20277">
        <ele>135.2</ele>
        <time>2013-10-16T12:14:01Z</time>
      </trkpt>
      <trkpt lat="44.3737" lon="4.20246">
        <ele>135.68</ele>
        <time>2013-10-16T12:14:06Z</time>
      </trkpt>
      <trkpt lat="44.37399" lon="4.20193">
        <ele>136.16</ele>
        <time>2013-10-16T12:14:15Z</time>
      </trkpt>
      <trkpt lat="44.37401" lon="4.20188">
        <ele>136.16</ele>
        <time>2013-10-16T12:14:16Z</time>
      </trkpt>
      <trkpt lat="44.37404" lon="4.20182">
        <ele>135.68</ele>
        <time>2013-10-16T12:14:17Z</time>
      </trkpt>
      <trkpt lat="44.37407" lon="4.20175">
        <ele>136.16</ele>
        <time>2013-10-16T12:14:18Z</time>
      </trkpt>
      <trkpt lat="44.37409" lon="4.20168">
        <ele>136.16</ele>
        <time>2013-10-16T12:14:19Z</time>
      </trkpt>
      <trkpt lat="44.37412" lon="4.20161">
        <ele>136.16</ele>
        <time>2013-10-16T12:14:20Z</time>
      </trkpt>
      <trkpt lat="44.37415" lon="4.20155">
        <ele>135.68</ele>
        <time>2013-10-16T12:14:21Z</time>
      </trkpt>
      <trkpt lat="44.37434" lon="4.20137">
        <ele>136.64</ele>
        <time>2013-10-16T12:14:25Z</time>
      </trkpt>
      <trkpt lat="44.37442" lon="4.20133">
        <ele>137.13</ele>
        <time>2013-10-16T12:14:27Z</time>
      </trkpt>
      <trkpt lat="44.37463" lon="4.20129">
        <ele>136.64</ele>
        <time>2013-10-16T12:14:31Z</time>
      </trkpt>
      <trkpt lat="44.37468" lon="4.20125">
        <ele>136.64</ele>
        <time>2013-10-16T12:14:32Z</time>
      </trkpt>
      <trkpt lat="44.37474" lon="4.2012">
        <ele>136.16</ele>
        <time>2013-10-16T12:14:33Z</time>
      </trkpt>
      <trkpt lat="44.37478" lon="4.20116">
        <ele>136.16</ele>
        <time>2013-10-16T12:14:34Z</time>
      </trkpt>
      <trkpt lat="44.37482" lon="4.20111">
        <ele>136.64</ele>
        <time>2013-10-16T12:14:35Z</time>
      </trkpt>
      <trkpt lat="44.37485" lon="4.20105">
        <ele>136.16</ele>
        <time>2013-10-16T12:14:36Z</time>
      </trkpt>
      <trkpt lat="44.37486" lon="4.20099">
        <ele>136.64</ele>
        <time>2013-10-16T12:14:37Z</time>
      </trkpt>
      <trkpt lat="44.37486" lon="4.20092">
        <ele>137.13</ele>
        <time>2013-10-16T12:14:38Z</time>
      </trkpt>
      <trkpt lat="44.37486" lon="4.20087">
        <ele>136.64</ele>
        <time>2013-10-16T12:14:39Z</time>
      </trkpt>
      <trkpt lat="44.37486" lon="4.20081">
        <ele>137.13</ele>
        <time>2013-10-16T12:14:40Z</time>
      </trkpt>
      <trkpt lat="44.37484" lon="4.20071">
        <ele>136.64</ele>
        <time>2013-10-16T12:14:42Z</time>
      </trkpt>
      <trkpt lat="44.37477" lon="4.20018">
        <ele>138.57</ele>
        <time>2013-10-16T12:14:52Z</time>
      </trkpt>
      <trkpt lat="44.37477" lon="4.20013">
        <ele>139.05</ele>
        <time>2013-10-16T12:14:53Z</time>
      </trkpt>
      <trkpt lat="44.37478" lon="4.20007">
        <ele>139.05</ele>
        <time>2013-10-16T12:14:54Z</time>
      </trkpt>
      <trkpt lat="44.37478" lon="4.20001">
        <ele>139.53</ele>
        <time>2013-10-16T12:14:55Z</time>
      </trkpt>
      <trkpt lat="44.37479" lon="4.19997">
        <ele>139.53</ele>
        <time>2013-10-16T12:14:56Z</time>
      </trkpt>
      <trkpt lat="44.37486" lon="4.19947">
        <ele>141.45</ele>
        <time>2013-10-16T12:15:06Z</time>
      </trkpt>
      <trkpt lat="44.37499" lon="4.19849">
        <ele>141.45</ele>
        <time>2013-10-16T12:15:21Z</time>
      </trkpt>
      <trkpt lat="44.37501" lon="4.19808">
        <ele>141.45</ele>
        <time>2013-10-16T12:15:26Z</time>
      </trkpt>
      <trkpt lat="44.37502" lon="4.19801">
        <ele>141.45</ele>
        <time>2013-10-16T12:15:27Z</time>
      </trkpt>
      <trkpt lat="44.37502" lon="4.19794">
        <ele>141.45</ele>
        <time>2013-10-16T12:15:28Z</time>
      </trkpt>
      <trkpt lat="44.37501" lon="4.19778">
        <ele>141.93</ele>
        <time>2013-10-16T12:15:30Z</time>
      </trkpt>
      <trkpt lat="44.37495" lon="4.19645">
        <ele>139.53</ele>
        <time>2013-10-16T12:15:45Z</time>
      </trkpt>
      <trkpt lat="44.37494" lon="4.19636">
        <ele>139.53</ele>
        <time>2013-10-16T12:15:46Z</time>
      </trkpt>
      <trkpt lat="44.37493" lon="4.19628">
        <ele>140.01</ele>
        <time>2013-10-16T12:15:47Z</time>
      </trkpt>
      <trkpt lat="44.37492" lon="4.19619">
        <ele>140.01</ele>
        <time>2013-10-16T12:15:48Z</time>
      </trkpt>
      <trkpt lat="44.37492" lon="4.19612">
        <ele>140.01</ele>
        <time>2013-10-16T12:15:49Z</time>
      </trkpt>
      <trkpt lat="44.37491" lon="4.19604">
        <ele>139.53</ele>
        <time>2013-10-16T12:15:50Z</time>
      </trkpt>
      <trkpt lat="44.3748" lon="4.19546">
        <ele>139.53</ele>
        <time>2013-10-16T12:15:58Z</time>
      </trkpt>
      <trkpt lat="44.37477" lon="4.1954">
        <ele>139.53</ele>
        <time>2013-10-16T12:15:59Z</time>
      </trkpt>
      <trkpt lat="44.37475" lon="4.19533">
        <ele>140.01</ele>
        <time>2013-10-16T12:16:00Z</time>
      </trkpt>
      <trkpt lat="44.37473" lon="4.19526">
        <ele>140.01</ele>
        <time>2013-10-16T12:16:01Z</time>
      </trkpt>
      <trkpt lat="44.37472" lon="4.19519">
        <ele>140.01</ele>
        <time>2013-10-16T12:16:02Z</time>
      </trkpt>
      <trkpt lat="44.3747" lon="4.19512">
        <ele>140.01</ele>
        <time>2013-10-16T12:16:03Z</time>
      </trkpt>
      <trkpt lat="44.37463" lon="4.19462">
        <ele>140.01</ele>
        <time>2013-10-16T12:16:10Z</time>
      </trkpt>
      <trkpt lat="44.37448" lon="4.19356">
        <ele>140.97</ele>
        <time>2013-10-16T12:16:25Z</time>
      </trkpt>
      <trkpt lat="44.3744" lon="4.19228">
        <ele>141.93</ele>
        <time>2013-10-16T12:16:43Z</time>
      </trkpt>
      <trkpt lat="44.37431" lon="4.1909">
        <ele>141.93</ele>
        <time>2013-10-16T12:17:01Z</time>
      </trkpt>
      <trkpt lat="44.37416" lon="4.18965">
        <ele>140.97</ele>
        <time>2013-10-16T12:17:17Z</time>
      </trkpt>
      <trkpt lat="44.37392" lon="4.18845">
        <ele>141.45</ele>
        <time>2013-10-16T12:17:33Z</time>
      </trkpt>
      <trkpt lat="44.37387" lon="4.18732">
        <ele>142.89</ele>
        <time>2013-10-16T12:17:48Z</time>
      </trkpt>
      <trkpt lat="44.37398" lon="4.18597">
        <ele>143.85</ele>
        <time>2013-10-16T12:18:07Z</time>
      </trkpt>
      <trkpt lat="44.37393" lon="4.18462">
        <ele>144.82</ele>
        <time>2013-10-16T12:18:26Z</time>
      </trkpt>
      <trkpt lat="44.37393" lon="4.18337">
        <ele>146.26</ele>
        <time>2013-10-16T12:18:43Z</time>
      </trkpt>
      <trkpt lat="44.37393" lon="4.18194">
        <ele>148.18</ele>
        <time>2013-10-16T12:19:02Z</time>
      </trkpt>
      <trkpt lat="44.37382" lon="4.18077">
        <ele>149.14</ele>
        <time>2013-10-16T12:19:18Z</time>
      </trkpt>
      <trkpt lat="44.37359" lon="4.1794">
        <ele>150.1</ele>
        <time>2013-10-16T12:19:37Z</time>
      </trkpt>
      <trkpt lat="44.37335" lon="4.1782">
        <ele>149.62</ele>
        <time>2013-10-16T12:19:53Z</time>
      </trkpt>
      <trkpt lat="44.37315" lon="4.17746">
        <ele>148.18</ele>
        <time>2013-10-16T12:20:02Z</time>
      </trkpt>
      <trkpt lat="44.37315" lon="4.17738">
        <ele>148.66</ele>
        <time>2013-10-16T12:20:03Z</time>
      </trkpt>
      <trkpt lat="44.37315" lon="4.1773">
        <ele>148.66</ele>
        <time>2013-10-16T12:20:04Z</time>
      </trkpt>
      <trkpt lat="44.37316" lon="4.17722">
        <ele>148.66</ele>
        <time>2013-10-16T12:20:05Z</time>
      </trkpt>
      <trkpt lat="44.37318" lon="4.17714">
        <ele>148.66</ele>
        <time>2013-10-16T12:20:06Z</time>
      </trkpt>
      <trkpt lat="44.3732" lon="4.17706">
        <ele>148.66</ele>
        <time>2013-10-16T12:20:07Z</time>
      </trkpt>
      <trkpt lat="44.37322" lon="4.17699">
        <ele>149.14</ele>
        <time>2013-10-16T12:20:08Z</time>
      </trkpt>
      <trkpt lat="44.37325" lon="4.17693">
        <ele>148.66</ele>
        <time>2013-10-16T12:20:09Z</time>
      </trkpt>
      <trkpt lat="44.37328" lon="4.17687">
        <ele>149.14</ele>
        <time>2013-10-16T12:20:10Z</time>
      </trkpt>
      <trkpt lat="44.37331" lon="4.17681">
        <ele>149.14</ele>
        <time>2013-10-16T12:20:11Z</time>
      </trkpt>
      <trkpt lat="44.37344" lon="4.17658">
        <ele>149.62</ele>
        <time>2013-10-16T12:20:15Z</time>
      </trkpt>
      <trkpt lat="44.37347" lon="4.17652">
        <ele>149.62</ele>
        <time>2013-10-16T12:20:16Z</time>
      </trkpt>
      <trkpt lat="44.37365" lon="4.17625">
        <ele>151.06</ele>
        <time>2013-10-16T12:20:22Z</time>
      </trkpt>
      <trkpt lat="44.37393" lon="4.17581">
        <ele>152.99</ele>
        <time>2013-10-16T12:20:31Z</time>
      </trkpt>
      <trkpt lat="44.37422" lon="4.17542">
        <ele>154.43</ele>
        <time>2013-10-16T12:20:39Z</time>
      </trkpt>
      <trkpt lat="44.37426" lon="4.17538">
        <ele>154.43</ele>
        <time>2013-10-16T12:20:40Z</time>
      </trkpt>
      <trkpt lat="44.37441" lon="4.17531">
        <ele>155.39</ele>
        <time>2013-10-16T12:20:43Z</time>
      </trkpt>
      <trkpt lat="44.37488" lon="4.17517">
        <ele>157.79</ele>
        <time>2013-10-16T12:20:54Z</time>
      </trkpt>
      <trkpt lat="44.37496" lon="4.17514">
        <ele>158.27</ele>
        <time>2013-10-16T12:20:56Z</time>
      </trkpt>
      <trkpt lat="44.375" lon="4.17511">
        <ele>158.75</ele>
        <time>2013-10-16T12:20:57Z</time>
      </trkpt>
      <trkpt lat="44.37504" lon="4.17509">
        <ele>158.75</ele>
        <time>2013-10-16T12:20:58Z</time>
      </trkpt>
      <trkpt lat="44.37516" lon="4.17502">
        <ele>159.72</ele>
        <time>2013-10-16T12:21:01Z</time>
      </trkpt>
      <trkpt lat="44.37548" lon="4.17464">
        <ele>161.16</ele>
        <time>2013-10-16T12:21:12Z</time>
      </trkpt>
      <trkpt lat="44.37578" lon="4.17412">
        <ele>163.56</ele>
        <time>2013-10-16T12:21:26Z</time>
      </trkpt>
      <trkpt lat="44.37603" lon="4.1736">
        <ele>165.96</ele>
        <time>2013-10-16T12:21:40Z</time>
      </trkpt>
      <trkpt lat="44.37626" lon="4.17293">
        <ele>167.89</ele>
        <time>2013-10-16T12:21:56Z</time>
      </trkpt>
      <trkpt lat="44.37647" lon="4.17224">
        <ele>171.25</ele>
        <time>2013-10-16T12:22:10Z</time>
      </trkpt>
      <trkpt lat="44.37654" lon="4.17204">
        <ele>171.73</ele>
        <time>2013-10-16T12:22:14Z</time>
      </trkpt>
      <trkpt lat="44.37656" lon="4.17198">
        <ele>171.73</ele>
        <time>2013-10-16T12:22:15Z</time>
      </trkpt>
      <trkpt lat="44.37688" lon="4.17116">
        <ele>173.66</ele>
        <time>2013-10-16T12:22:31Z</time>
      </trkpt>
      <trkpt lat="44.37711" lon="4.17078">
        <ele>173.66</ele>
        <time>2013-10-16T12:22:39Z</time>
      </trkpt>
      <trkpt lat="44.37719" lon="4.1707">
        <ele>173.66</ele>
        <time>2013-10-16T12:22:41Z</time>
      </trkpt>
      <trkpt lat="44.37723" lon="4.17067">
        <ele>173.66</ele>
        <time>2013-10-16T12:22:42Z</time>
      </trkpt>
      <trkpt lat="44.37728" lon="4.17064">
        <ele>173.66</ele>
        <time>2013-10-16T12:22:43Z</time>
      </trkpt>
      <trkpt lat="44.37732" lon="4.17062">
        <ele>173.66</ele>
        <time>2013-10-16T12:22:44Z</time>
      </trkpt>
      <trkpt lat="44.37737" lon="4.1706">
        <ele>173.17</ele>
        <time>2013-10-16T12:22:45Z</time>
      </trkpt>
      <trkpt lat="44.37768" lon="4.17047">
        <ele>173.17</ele>
        <time>2013-10-16T12:22:52Z</time>
      </trkpt>
      <trkpt lat="44.3777" lon="4.17043">
        <ele>172.69</ele>
        <time>2013-10-16T12:22:53Z</time>
      </trkpt>
      <trkpt lat="44.3777" lon="4.17037">
        <ele>172.69</ele>
        <time>2013-10-16T12:22:54Z</time>
      </trkpt>
      <trkpt lat="44.37769" lon="4.17032">
        <ele>172.69</ele>
        <time>2013-10-16T12:22:55Z</time>
      </trkpt>
      <trkpt lat="44.37766" lon="4.17027">
        <ele>173.17</ele>
        <time>2013-10-16T12:22:56Z</time>
      </trkpt>
      <trkpt lat="44.37763" lon="4.17023">
        <ele>172.69</ele>
        <time>2013-10-16T12:22:57Z</time>
      </trkpt>
      <trkpt lat="44.37759" lon="4.17019">
        <ele>172.69</ele>
        <time>2013-10-16T12:22:58Z</time>
      </trkpt>
      <trkpt lat="44.37702" lon="4.16958">
        <ele>170.29</ele>
        <time>2013-10-16T12:23:10Z</time>
      </trkpt>
      <trkpt lat="44.37636" lon="4.16891">
        <ele>167.41</ele>
        <time>2013-10-16T12:23:21Z</time>
      </trkpt>
      <trkpt lat="44.37568" lon="4.16824">
        <ele>164.04</ele>
        <time>2013-10-16T12:23:31Z</time>
      </trkpt>
      <trkpt lat="44.37481" lon="4.1673">
        <ele>161.16</ele>
        <time>2013-10-16T12:23:44Z</time>
      </trkpt>
      <trkpt lat="44.37468" lon="4.16719">
        <ele>160.68</ele>
        <time>2013-10-16T12:23:46Z</time>
      </trkpt>
      <trkpt lat="44.37439" lon="4.16706">
        <ele>160.68</ele>
        <time>2013-10-16T12:23:50Z</time>
      </trkpt>
      <trkpt lat="44.37431" lon="4.16704">
        <ele>160.2</ele>
        <time>2013-10-16T12:23:51Z</time>
      </trkpt>
      <trkpt lat="44.37301" lon="4.16695">
        <ele>157.79</ele>
        <time>2013-10-16T12:24:08Z</time>
      </trkpt>
      <trkpt lat="44.37182" lon="4.16689">
        <ele>156.35</ele>
        <time>2013-10-16T12:24:25Z</time>
      </trkpt>
      <trkpt lat="44.37091" lon="4.16684">
        <ele>159.24</ele>
        <time>2013-10-16T12:24:42Z</time>
      </trkpt>
      <trkpt lat="44.37003" lon="4.16681">
        <ele>162.12</ele>
        <time>2013-10-16T12:25:00Z</time>
      </trkpt>
      <trkpt lat="44.36918" lon="4.16677">
        <ele>165</ele>
        <time>2013-10-16T12:25:17Z</time>
      </trkpt>
      <trkpt lat="44.36842" lon="4.16676">
        <ele>166.45</ele>
        <time>2013-10-16T12:25:33Z</time>
      </trkpt>
      <trkpt lat="44.36767" lon="4.16671">
        <ele>167.41</ele>
        <time>2013-10-16T12:25:48Z</time>
      </trkpt>
      <trkpt lat="44.36717" lon="4.1666">
        <ele>168.37</ele>
        <time>2013-10-16T12:25:58Z</time>
      </trkpt>
      <trkpt lat="44.36713" lon="4.16656">
        <ele>168.37</ele>
        <time>2013-10-16T12:25:59Z</time>
      </trkpt>
      <trkpt lat="44.3671" lon="4.1665">
        <ele>168.37</ele>
        <time>2013-10-16T12:26:00Z</time>
      </trkpt>
      <trkpt lat="44.36707" lon="4.16644">
        <ele>168.85</ele>
        <time>2013-10-16T12:26:01Z</time>
      </trkpt>
      <trkpt lat="44.36705" lon="4.16638">
        <ele>169.33</ele>
        <time>2013-10-16T12:26:02Z</time>
      </trkpt>
      <trkpt lat="44.36705" lon="4.16632">
        <ele>169.81</ele>
        <time>2013-10-16T12:26:03Z</time>
      </trkpt>
      <trkpt lat="44.36704" lon="4.16627">
        <ele>170.29</ele>
        <time>2013-10-16T12:26:04Z</time>
      </trkpt>
      <trkpt lat="44.36705" lon="4.16621">
        <ele>170.77</ele>
        <time>2013-10-16T12:26:05Z</time>
      </trkpt>
      <trkpt lat="44.36705" lon="4.16616">
        <ele>171.25</ele>
        <time>2013-10-16T12:26:06Z</time>
      </trkpt>
      <trkpt lat="44.36706" lon="4.1661">
        <ele>171.25</ele>
        <time>2013-10-16T12:26:07Z</time>
      </trkpt>
      <trkpt lat="44.36711" lon="4.16553">
        <ele>173.66</ele>
        <time>2013-10-16T12:26:20Z</time>
      </trkpt>
      <trkpt lat="44.36716" lon="4.1649">
        <ele>177.02</ele>
        <time>2013-10-16T12:26:35Z</time>
      </trkpt>
      <trkpt lat="44.36698" lon="4.16423">
        <ele>177.5</ele>
        <time>2013-10-16T12:26:50Z</time>
      </trkpt>
      <trkpt lat="44.36688" lon="4.16365">
        <ele>180.38</ele>
        <time>2013-10-16T12:27:03Z</time>
      </trkpt>
      <trkpt lat="44.36691" lon="4.16299">
        <ele>181.35</ele>
        <time>2013-10-16T12:27:17Z</time>
      </trkpt>
      <trkpt lat="44.36708" lon="4.16266">
        <ele>184.23</ele>
        <time>2013-10-16T12:27:27Z</time>
      </trkpt>
      <trkpt lat="44.36726" lon="4.16233">
        <ele>186.63</ele>
        <time>2013-10-16T12:27:37Z</time>
      </trkpt>
      <trkpt lat="44.3673" lon="4.16171">
        <ele>188.56</ele>
        <time>2013-10-16T12:27:50Z</time>
      </trkpt>
      <trkpt lat="44.36741" lon="4.16133">
        <ele>190.48</ele>
        <time>2013-10-16T12:28:00Z</time>
      </trkpt>
      <trkpt lat="44.3675" lon="4.16088">
        <ele>192.4</ele>
        <time>2013-10-16T12:28:12Z</time>
      </trkpt>
      <trkpt lat="44.36742" lon="4.16041">
        <ele>194.32</ele>
        <time>2013-10-16T12:28:25Z</time>
      </trkpt>
      <trkpt lat="44.36745" lon="4.16014">
        <ele>196.25</ele>
        <time>2013-10-16T12:28:33Z</time>
      </trkpt>
      <trkpt lat="44.36747" lon="4.16013">
        <ele>196.25</ele>
        <time>2013-10-16T12:28:34Z</time>
      </trkpt>
      <trkpt lat="44.36778" lon="4.16006">
        <ele>198.65</ele>
        <time>2013-10-16T12:28:46Z</time>
      </trkpt>
      <trkpt lat="44.36808" lon="4.16003">
        <ele>201.05</ele>
        <time>2013-10-16T12:28:58Z</time>
      </trkpt>
      <trkpt lat="44.36842" lon="4.15995">
        <ele>203.46</ele>
        <time>2013-10-16T12:29:11Z</time>
      </trkpt>
      <trkpt lat="44.3687" lon="4.15991">
        <ele>205.38</ele>
        <time>2013-10-16T12:29:22Z</time>
      </trkpt>
      <trkpt lat="44.36891" lon="4.15984">
        <ele>207.3</ele>
        <time>2013-10-16T12:29:31Z</time>
      </trkpt>
      <trkpt lat="44.3691" lon="4.1597">
        <ele>208.74</ele>
        <time>2013-10-16T12:29:42Z</time>
      </trkpt>
      <trkpt lat="44.36939" lon="4.15938">
        <ele>211.15</ele>
        <time>2013-10-16T12:29:55Z</time>
      </trkpt>
      <trkpt lat="44.36959" lon="4.15901">
        <ele>213.07</ele>
        <time>2013-10-16T12:30:06Z</time>
      </trkpt>
      <trkpt lat="44.36985" lon="4.15861">
        <ele>215.95</ele>
        <time>2013-10-16T12:30:19Z</time>
      </trkpt>
      <trkpt lat="44.37009" lon="4.15827">
        <ele>218.36</ele>
        <time>2013-10-16T12:30:31Z</time>
      </trkpt>
      <trkpt lat="44.37027" lon="4.15785">
        <ele>220.76</ele>
        <time>2013-10-16T12:30:44Z</time>
      </trkpt>
      <trkpt lat="44.3704" lon="4.1574">
        <ele>221.72</ele>
        <time>2013-10-16T12:30:56Z</time>
      </trkpt>
      <trkpt lat="44.37049" lon="4.15692">
        <ele>224.61</ele>
        <time>2013-10-16T12:31:09Z</time>
      </trkpt>
      <trkpt lat="44.37051" lon="4.15643">
        <ele>227.01</ele>
        <time>2013-10-16T12:31:22Z</time>
      </trkpt>
      <trkpt lat="44.37046" lon="4.15588">
        <ele>229.89</ele>
        <time>2013-10-16T12:31:36Z</time>
      </trkpt>
      <trkpt lat="44.37031" lon="4.15538">
        <ele>232.3</ele>
        <time>2013-10-16T12:31:50Z</time>
      </trkpt>
      <trkpt lat="44.37002" lon="4.15512">
        <ele>235.18</ele>
        <time>2013-10-16T12:32:03Z</time>
      </trkpt>
      <trkpt lat="44.36977" lon="4.15491">
        <ele>236.62</ele>
        <time>2013-10-16T12:32:14Z</time>
      </trkpt>
      <trkpt lat="44.36971" lon="4.15483">
        <ele>237.1</ele>
        <time>2013-10-16T12:32:17Z</time>
      </trkpt>
      <trkpt lat="44.36938" lon="4.15453">
        <ele>239.99</ele>
        <time>2013-10-16T12:32:32Z</time>
      </trkpt>
      <trkpt lat="44.36905" lon="4.15429">
        <ele>243.83</ele>
        <time>2013-10-16T12:32:46Z</time>
      </trkpt>
      <trkpt lat="44.36883" lon="4.15431">
        <ele>246.72</ele>
        <time>2013-10-16T12:32:55Z</time>
      </trkpt>
      <trkpt lat="44.36856" lon="4.15416">
        <ele>248.64</ele>
        <time>2013-10-16T12:33:06Z</time>
      </trkpt>
      <trkpt lat="44.36832" lon="4.15379">
        <ele>252</ele>
        <time>2013-10-16T12:33:19Z</time>
      </trkpt>
      <trkpt lat="44.36806" lon="4.15348">
        <ele>255.37</ele>
        <time>2013-10-16T12:33:30Z</time>
      </trkpt>
      <trkpt lat="44.36792" lon="4.15312">
        <ele>256.81</ele>
        <time>2013-10-16T12:33:40Z</time>
      </trkpt>
      <trkpt lat="44.36788" lon="4.15286">
        <ele>258.25</ele>
        <time>2013-10-16T12:33:46Z</time>
      </trkpt>
      <trkpt lat="44.36801" lon="4.15276">
        <ele>258.73</ele>
        <time>2013-10-16T12:33:51Z</time>
      </trkpt>
      <trkpt lat="44.36806" lon="4.15275">
        <ele>258.73</ele>
        <time>2013-10-16T12:33:52Z</time>
      </trkpt>
      <trkpt lat="44.3682" lon="4.15276">
        <ele>258.73</ele>
        <time>2013-10-16T12:33:55Z</time>
      </trkpt>
      <trkpt lat="44.36825" lon="4.15279">
        <ele>258.73</ele>
        <time>2013-10-16T12:33:56Z</time>
      </trkpt>
      <trkpt lat="44.36828" lon="4.15284">
        <ele>258.25</ele>
        <time>2013-10-16T12:33:57Z</time>
      </trkpt>
      <trkpt lat="44.36831" lon="4.15289">
        <ele>258.25</ele>
        <time>2013-10-16T12:33:58Z</time>
      </trkpt>
      <trkpt lat="44.36834" lon="4.15295">
        <ele>258.25</ele>
        <time>2013-10-16T12:33:59Z</time>
      </trkpt>
      <trkpt lat="44.36837" lon="4.15302">
        <ele>258.25</ele>
        <time>2013-10-16T12:34:00Z</time>
      </trkpt>
      <trkpt lat="44.36841" lon="4.15307">
        <ele>257.77</ele>
        <time>2013-10-16T12:34:01Z</time>
      </trkpt>
      <trkpt lat="44.36875" lon="4.15348">
        <ele>255.85</ele>
        <time>2013-10-16T12:34:08Z</time>
      </trkpt>
      <trkpt lat="44.36881" lon="4.15353">
        <ele>255.37</ele>
        <time>2013-10-16T12:34:09Z</time>
      </trkpt>
      <trkpt lat="44.36888" lon="4.15358">
        <ele>255.37</ele>
        <time>2013-10-16T12:34:10Z</time>
      </trkpt>
      <trkpt lat="44.36895" lon="4.15362">
        <ele>254.89</ele>
        <time>2013-10-16T12:34:11Z</time>
      </trkpt>
      <trkpt lat="44.36903" lon="4.15365">
        <ele>254.89</ele>
        <time>2013-10-16T12:34:12Z</time>
      </trkpt>
      <trkpt lat="44.36911" lon="4.15366">
        <ele>253.93</ele>
        <time>2013-10-16T12:34:13Z</time>
      </trkpt>
      <trkpt lat="44.37004" lon="4.15386">
        <ele>252</ele>
        <time>2013-10-16T12:34:25Z</time>
      </trkpt>
      <trkpt lat="44.37116" lon="4.15385">
        <ele>250.08</ele>
        <time>2013-10-16T12:34:40Z</time>
      </trkpt>
      <trkpt lat="44.37152" lon="4.15394">
        <ele>250.08</ele>
        <time>2013-10-16T12:34:45Z</time>
      </trkpt>
      <trkpt lat="44.37159" lon="4.15398">
        <ele>250.08</ele>
        <time>2013-10-16T12:34:46Z</time>
      </trkpt>
      <trkpt lat="44.37165" lon="4.15403">
        <ele>249.6</ele>
        <time>2013-10-16T12:34:47Z</time>
      </trkpt>
      <trkpt lat="44.37171" lon="4.15409">
        <ele>249.6</ele>
        <time>2013-10-16T12:34:48Z</time>
      </trkpt>
      <trkpt lat="44.37176" lon="4.15416">
        <ele>249.12</ele>
        <time>2013-10-16T12:34:49Z</time>
      </trkpt>
      <trkpt lat="44.37182" lon="4.15423">
        <ele>249.12</ele>
        <time>2013-10-16T12:34:50Z</time>
      </trkpt>
      <trkpt lat="44.37205" lon="4.15448">
        <ele>248.16</ele>
        <time>2013-10-16T12:34:54Z</time>
      </trkpt>
      <trkpt lat="44.3728" lon="4.15498">
        <ele>246.72</ele>
        <time>2013-10-16T12:35:05Z</time>
      </trkpt>
      <trkpt lat="44.37287" lon="4.15501">
        <ele>246.23</ele>
        <time>2013-10-16T12:35:06Z</time>
      </trkpt>
      <trkpt lat="44.37295" lon="4.15503">
        <ele>245.75</ele>
        <time>2013-10-16T12:35:07Z</time>
      </trkpt>
      <trkpt lat="44.37302" lon="4.15504">
        <ele>245.75</ele>
        <time>2013-10-16T12:35:08Z</time>
      </trkpt>
      <trkpt lat="44.3731" lon="4.15505">
        <ele>245.27</ele>
        <time>2013-10-16T12:35:09Z</time>
      </trkpt>
      <trkpt lat="44.37317" lon="4.15507">
        <ele>245.27</ele>
        <time>2013-10-16T12:35:10Z</time>
      </trkpt>
      <trkpt lat="44.37324" lon="4.15507">
        <ele>244.79</ele>
        <time>2013-10-16T12:35:11Z</time>
      </trkpt>
      <trkpt lat="44.3733" lon="4.15506">
        <ele>244.79</ele>
        <time>2013-10-16T12:35:12Z</time>
      </trkpt>
      <trkpt lat="44.37336" lon="4.15504">
        <ele>244.31</ele>
        <time>2013-10-16T12:35:13Z</time>
      </trkpt>
      <trkpt lat="44.37342" lon="4.15501">
        <ele>243.83</ele>
        <time>2013-10-16T12:35:14Z</time>
      </trkpt>
      <trkpt lat="44.37347" lon="4.15497">
        <ele>243.83</ele>
        <time>2013-10-16T12:35:15Z</time>
      </trkpt>
      <trkpt lat="44.37353" lon="4.15491">
        <ele>243.35</ele>
        <time>2013-10-16T12:35:16Z</time>
      </trkpt>
      <trkpt lat="44.37357" lon="4.15484">
        <ele>243.35</ele>
        <time>2013-10-16T12:35:17Z</time>
      </trkpt>
      <trkpt lat="44.37361" lon="4.15476">
        <ele>242.87</ele>
        <time>2013-10-16T12:35:18Z</time>
      </trkpt>
      <trkpt lat="44.37365" lon="4.15468">
        <ele>242.87</ele>
        <time>2013-10-16T12:35:19Z</time>
      </trkpt>
      <trkpt lat="44.37374" lon="4.15451">
        <ele>241.91</ele>
        <time>2013-10-16T12:35:21Z</time>
      </trkpt>
      <trkpt lat="44.37379" lon="4.15444">
        <ele>241.43</ele>
        <time>2013-10-16T12:35:22Z</time>
      </trkpt>
      <trkpt lat="44.37392" lon="4.15419">
        <ele>241.91</ele>
        <time>2013-10-16T12:35:25Z</time>
      </trkpt>
      <trkpt lat="44.37397" lon="4.15412">
        <ele>241.43</ele>
        <time>2013-10-16T12:35:26Z</time>
      </trkpt>
      <trkpt lat="44.37403" lon="4.15407">
        <ele>241.43</ele>
        <time>2013-10-16T12:35:27Z</time>
      </trkpt>
      <trkpt lat="44.37414" lon="4.15399">
        <ele>241.91</ele>
        <time>2013-10-16T12:35:29Z</time>
      </trkpt>
      <trkpt lat="44.37419" lon="4.15394">
        <ele>242.39</ele>
        <time>2013-10-16T12:35:30Z</time>
      </trkpt>
      <trkpt lat="44.37432" lon="4.15378">
        <ele>242.39</ele>
        <time>2013-10-16T12:35:33Z</time>
      </trkpt>
      <trkpt lat="44.37446" lon="4.15352">
        <ele>244.31</ele>
        <time>2013-10-16T12:35:37Z</time>
      </trkpt>
      <trkpt lat="44.37449" lon="4.15347">
        <ele>244.79</ele>
        <time>2013-10-16T12:35:38Z</time>
      </trkpt>
      <trkpt lat="44.37456" lon="4.15336">
        <ele>244.31</ele>
        <time>2013-10-16T12:35:40Z</time>
      </trkpt>
      <trkpt lat="44.37459" lon="4.15332">
        <ele>243.83</ele>
        <time>2013-10-16T12:35:41Z</time>
      </trkpt>
      <trkpt lat="44.37464" lon="4.15328">
        <ele>244.31</ele>
        <time>2013-10-16T12:35:42Z</time>
      </trkpt>
      <trkpt lat="44.37468" lon="4.15324">
        <ele>244.31</ele>
        <time>2013-10-16T12:35:43Z</time>
      </trkpt>
      <trkpt lat="44.37473" lon="4.1532">
        <ele>244.31</ele>
        <time>2013-10-16T12:35:44Z</time>
      </trkpt>
      <trkpt lat="44.37523" lon="4.1528">
        <ele>246.23</ele>
        <time>2013-10-16T12:35:56Z</time>
      </trkpt>
      <trkpt lat="44.37576" lon="4.15263">
        <ele>248.64</ele>
        <time>2013-10-16T12:36:07Z</time>
      </trkpt>
      <trkpt lat="44.37595" lon="4.15258">
        <ele>248.64</ele>
        <time>2013-10-16T12:36:11Z</time>
      </trkpt>
      <trkpt lat="44.37599" lon="4.15257">
        <ele>248.64</ele>
        <time>2013-10-16T12:36:12Z</time>
      </trkpt>
      <trkpt lat="44.37637" lon="4.15247">
        <ele>249.12</ele>
        <time>2013-10-16T12:36:20Z</time>
      </trkpt>
      <trkpt lat="44.37642" lon="4.15247">
        <ele>249.12</ele>
        <time>2013-10-16T12:36:21Z</time>
      </trkpt>
      <trkpt lat="44.37651" lon="4.15248">
        <ele>249.12</ele>
        <time>2013-10-16T12:36:23Z</time>
      </trkpt>
      <trkpt lat="44.3769" lon="4.15261">
        <ele>252</ele>
        <time>2013-10-16T12:36:33Z</time>
      </trkpt>
      <trkpt lat="44.37721" lon="4.15242">
        <ele>254.89</ele>
        <time>2013-10-16T12:36:43Z</time>
      </trkpt>
      <trkpt lat="44.37756" lon="4.15188">
        <ele>257.29</ele>
        <time>2013-10-16T12:36:57Z</time>
      </trkpt>
      <trkpt lat="44.37778" lon="4.15141">
        <ele>257.77</ele>
        <time>2013-10-16T12:37:08Z</time>
      </trkpt>
      <trkpt lat="44.37816" lon="4.1509">
        <ele>260.65</ele>
        <time>2013-10-16T12:37:22Z</time>
      </trkpt>
      <trkpt lat="44.37814" lon="4.1503">
        <ele>262.1</ele>
        <time>2013-10-16T12:37:34Z</time>
      </trkpt>
      <trkpt lat="44.37806" lon="4.14956">
        <ele>263.54</ele>
        <time>2013-10-16T12:37:48Z</time>
      </trkpt>
      <trkpt lat="44.37805" lon="4.1495">
        <ele>263.54</ele>
        <time>2013-10-16T12:37:49Z</time>
      </trkpt>
      <trkpt lat="44.37803" lon="4.14944">
        <ele>263.54</ele>
        <time>2013-10-16T12:37:50Z</time>
      </trkpt>
      <trkpt lat="44.37802" lon="4.14938">
        <ele>264.02</ele>
        <time>2013-10-16T12:37:51Z</time>
      </trkpt>
      <trkpt lat="44.37789" lon="4.14902">
        <ele>263.06</ele>
        <time>2013-10-16T12:37:57Z</time>
      </trkpt>
      <trkpt lat="44.37788" lon="4.14897">
        <ele>263.54</ele>
        <time>2013-10-16T12:37:58Z</time>
      </trkpt>
      <trkpt lat="44.37786" lon="4.1489">
        <ele>263.06</ele>
        <time>2013-10-16T12:37:59Z</time>
      </trkpt>
      <trkpt lat="44.37786" lon="4.14878">
        <ele>263.54</ele>
        <time>2013-10-16T12:38:01Z</time>
      </trkpt>
      <trkpt lat="44.37787" lon="4.14872">
        <ele>263.54</ele>
        <time>2013-10-16T12:38:02Z</time>
      </trkpt>
      <trkpt lat="44.37789" lon="4.14859">
        <ele>263.54</ele>
        <time>2013-10-16T12:38:04Z</time>
      </trkpt>
      <trkpt lat="44.37788" lon="4.14851">
        <ele>263.06</ele>
        <time>2013-10-16T12:38:05Z</time>
      </trkpt>
      <trkpt lat="44.37786" lon="4.14844">
        <ele>262.58</ele>
        <time>2013-10-16T12:38:06Z</time>
      </trkpt>
      <trkpt lat="44.37783" lon="4.14837">
        <ele>262.58</ele>
        <time>2013-10-16T12:38:07Z</time>
      </trkpt>
      <trkpt lat="44.37781" lon="4.1483">
        <ele>262.1</ele>
        <time>2013-10-16T12:38:08Z</time>
      </trkpt>
      <trkpt lat="44.37779" lon="4.14823">
        <ele>262.1</ele>
        <time>2013-10-16T12:38:09Z</time>
      </trkpt>
      <trkpt lat="44.37778" lon="4.14815">
        <ele>262.1</ele>
        <time>2013-10-16T12:38:10Z</time>
      </trkpt>
      <trkpt lat="44.37779" lon="4.14807">
        <ele>262.1</ele>
        <time>2013-10-16T12:38:11Z</time>
      </trkpt>
      <trkpt lat="44.37781" lon="4.14801">
        <ele>262.1</ele>
        <time>2013-10-16T12:38:12Z</time>
      </trkpt>
      <trkpt lat="44.37783" lon="4.14794">
        <ele>262.58</ele>
        <time>2013-10-16T12:38:13Z</time>
      </trkpt>
      <trkpt lat="44.37785" lon="4.14789">
        <ele>262.58</ele>
        <time>2013-10-16T12:38:14Z</time>
      </trkpt>
      <trkpt lat="44.37793" lon="4.14771">
        <ele>262.58</ele>
        <time>2013-10-16T12:38:17Z</time>
      </trkpt>
      <trkpt lat="44.37797" lon="4.1476">
        <ele>263.54</ele>
        <time>2013-10-16T12:38:19Z</time>
      </trkpt>
      <trkpt lat="44.37811" lon="4.14714">
        <ele>264.98</ele>
        <time>2013-10-16T12:38:26Z</time>
      </trkpt>
      <trkpt lat="44.37814" lon="4.14709">
        <ele>264.98</ele>
        <time>2013-10-16T12:38:27Z</time>
      </trkpt>
      <trkpt lat="44.37817" lon="4.14704">
        <ele>264.98</ele>
        <time>2013-10-16T12:38:28Z</time>
      </trkpt>
      <trkpt lat="44.3782" lon="4.14699">
        <ele>265.46</ele>
        <time>2013-10-16T12:38:29Z</time>
      </trkpt>
      <trkpt lat="44.37823" lon="4.14694">
        <ele>265.46</ele>
        <time>2013-10-16T12:38:30Z</time>
      </trkpt>
      <trkpt lat="44.37827" lon="4.14685">
        <ele>265.46</ele>
        <time>2013-10-16T12:38:32Z</time>
      </trkpt>
      <trkpt lat="44.3783" lon="4.1468">
        <ele>265.46</ele>
        <time>2013-10-16T12:38:33Z</time>
      </trkpt>
      <trkpt lat="44.37832" lon="4.14674">
        <ele>265.46</ele>
        <time>2013-10-16T12:38:34Z</time>
      </trkpt>
      <trkpt lat="44.37834" lon="4.14668">
        <ele>265.46</ele>
        <time>2013-10-16T12:38:35Z</time>
      </trkpt>
      <trkpt lat="44.37837" lon="4.1466">
        <ele>264.98</ele>
        <time>2013-10-16T12:38:36Z</time>
      </trkpt>
      <trkpt lat="44.37839" lon="4.14652">
        <ele>264.5</ele>
        <time>2013-10-16T12:38:37Z</time>
      </trkpt>
      <trkpt lat="44.3784" lon="4.14643">
        <ele>264.02</ele>
        <time>2013-10-16T12:38:38Z</time>
      </trkpt>
      <trkpt lat="44.37841" lon="4.14634">
        <ele>263.54</ele>
        <time>2013-10-16T12:38:39Z</time>
      </trkpt>
      <trkpt lat="44.37841" lon="4.14624">
        <ele>263.54</ele>
        <time>2013-10-16T12:38:40Z</time>
      </trkpt>
      <trkpt lat="44.3784" lon="4.14614">
        <ele>263.06</ele>
        <time>2013-10-16T12:38:41Z</time>
      </trkpt>
      <trkpt lat="44.37842" lon="4.14575">
        <ele>262.58</ele>
        <time>2013-10-16T12:38:45Z</time>
      </trkpt>
      <trkpt lat="44.37847" lon="4.1453">
        <ele>262.58</ele>
        <time>2013-10-16T12:38:50Z</time>
      </trkpt>
      <trkpt lat="44.37847" lon="4.14521">
        <ele>262.1</ele>
        <time>2013-10-16T12:38:51Z</time>
      </trkpt>
      <trkpt lat="44.37847" lon="4.14512">
        <ele>262.1</ele>
        <time>2013-10-16T12:38:52Z</time>
      </trkpt>
      <trkpt lat="44.37849" lon="4.14476">
        <ele>262.1</ele>
        <time>2013-10-16T12:38:56Z</time>
      </trkpt>
      <trkpt lat="44.37852" lon="4.14468">
        <ele>261.62</ele>
        <time>2013-10-16T12:38:57Z</time>
      </trkpt>
      <trkpt lat="44.37856" lon="4.14462">
        <ele>261.62</ele>
        <time>2013-10-16T12:38:58Z</time>
      </trkpt>
      <trkpt lat="44.37867" lon="4.14455">
        <ele>262.1</ele>
        <time>2013-10-16T12:39:00Z</time>
      </trkpt>
      <trkpt lat="44.37873" lon="4.14453">
        <ele>262.1</ele>
        <time>2013-10-16T12:39:01Z</time>
      </trkpt>
      <trkpt lat="44.37879" lon="4.14451">
        <ele>262.1</ele>
        <time>2013-10-16T12:39:02Z</time>
      </trkpt>
      <trkpt lat="44.37916" lon="4.14434">
        <ele>263.54</ele>
        <time>2013-10-16T12:39:10Z</time>
      </trkpt>
      <trkpt lat="44.37919" lon="4.1443">
        <ele>264.02</ele>
        <time>2013-10-16T12:39:11Z</time>
      </trkpt>
      <trkpt lat="44.37922" lon="4.14426">
        <ele>264.02</ele>
        <time>2013-10-16T12:39:12Z</time>
      </trkpt>
      <trkpt lat="44.37925" lon="4.14421">
        <ele>264.5</ele>
        <time>2013-10-16T12:39:13Z</time>
      </trkpt>
      <trkpt lat="44.37927" lon="4.14416">
        <ele>264.98</ele>
        <time>2013-10-16T12:39:14Z</time>
      </trkpt>
      <trkpt lat="44.37929" lon="4.14411">
        <ele>264.98</ele>
        <time>2013-10-16T12:39:15Z</time>
      </trkpt>
      <trkpt lat="44.37931" lon="4.14405">
        <ele>265.46</ele>
        <time>2013-10-16T12:39:16Z</time>
      </trkpt>
      <trkpt lat="44.37942" lon="4.14363">
        <ele>266.42</ele>
        <time>2013-10-16T12:39:23Z</time>
      </trkpt>
      <trkpt lat="44.37957" lon="4.14315">
        <ele>267.86</ele>
        <time>2013-10-16T12:39:31Z</time>
      </trkpt>
      <trkpt lat="44.37959" lon="4.14308">
        <ele>267.86</ele>
        <time>2013-10-16T12:39:32Z</time>
      </trkpt>
      <trkpt lat="44.3796" lon="4.14302">
        <ele>267.86</ele>
        <time>2013-10-16T12:39:33Z</time>
      </trkpt>
      <trkpt lat="44.37961" lon="4.14295">
        <ele>268.35</ele>
        <time>2013-10-16T12:39:34Z</time>
      </trkpt>
      <trkpt lat="44.37961" lon="4.14288">
        <ele>268.35</ele>
        <time>2013-10-16T12:39:35Z</time>
      </trkpt>
      <trkpt lat="44.37961" lon="4.14281">
        <ele>268.35</ele>
        <time>2013-10-16T12:39:36Z</time>
      </trkpt>
      <trkpt lat="44.3796" lon="4.14275">
        <ele>268.83</ele>
        <time>2013-10-16T12:39:37Z</time>
      </trkpt>
      <trkpt lat="44.37959" lon="4.14268">
        <ele>268.83</ele>
        <time>2013-10-16T12:39:38Z</time>
      </trkpt>
      <trkpt lat="44.37957" lon="4.14262">
        <ele>269.31</ele>
        <time>2013-10-16T12:39:39Z</time>
      </trkpt>
      <trkpt lat="44.37955" lon="4.14256">
        <ele>268.83</ele>
        <time>2013-10-16T12:39:40Z</time>
      </trkpt>
      <trkpt lat="44.37953" lon="4.1425">
        <ele>268.83</ele>
        <time>2013-10-16T12:39:41Z</time>
      </trkpt>
      <trkpt lat="44.37951" lon="4.14244">
        <ele>269.31</ele>
        <time>2013-10-16T12:39:42Z</time>
      </trkpt>
      <trkpt lat="44.37949" lon="4.14238">
        <ele>268.83</ele>
        <time>2013-10-16T12:39:43Z</time>
      </trkpt>
      <trkpt lat="44.37946" lon="4.14233">
        <ele>269.31</ele>
        <time>2013-10-16T12:39:44Z</time>
      </trkpt>
      <trkpt lat="44.37934" lon="4.1421">
        <ele>268.83</ele>
        <time>2013-10-16T12:39:48Z</time>
      </trkpt>
      <trkpt lat="44.37932" lon="4.14204">
        <ele>268.83</ele>
        <time>2013-10-16T12:39:49Z</time>
      </trkpt>
      <trkpt lat="44.37931" lon="4.14197">
        <ele>268.83</ele>
        <time>2013-10-16T12:39:50Z</time>
      </trkpt>
      <trkpt lat="44.37931" lon="4.1419">
        <ele>268.83</ele>
        <time>2013-10-16T12:39:51Z</time>
      </trkpt>
      <trkpt lat="44.3793" lon="4.14182">
        <ele>269.31</ele>
        <time>2013-10-16T12:39:52Z</time>
      </trkpt>
      <trkpt lat="44.37931" lon="4.14176">
        <ele>269.31</ele>
        <time>2013-10-16T12:39:53Z</time>
      </trkpt>
      <trkpt lat="44.37932" lon="4.14169">
        <ele>269.31</ele>
        <time>2013-10-16T12:39:54Z</time>
      </trkpt>
      <trkpt lat="44.37933" lon="4.14163">
        <ele>269.31</ele>
        <time>2013-10-16T12:39:55Z</time>
      </trkpt>
      <trkpt lat="44.37934" lon="4.14157">
        <ele>269.31</ele>
        <time>2013-10-16T12:39:56Z</time>
      </trkpt>
      <trkpt lat="44.3795" lon="4.14083">
        <ele>271.23</ele>
        <time>2013-10-16T12:40:09Z</time>
      </trkpt>
      <trkpt lat="44.3795" lon="4.14035">
        <ele>272.19</ele>
        <time>2013-10-16T12:40:17Z</time>
      </trkpt>
      <trkpt lat="44.37948" lon="4.14023">
        <ele>272.67</ele>
        <time>2013-10-16T12:40:19Z</time>
      </trkpt>
      <trkpt lat="44.37947" lon="4.14017">
        <ele>272.19</ele>
        <time>2013-10-16T12:40:20Z</time>
      </trkpt>
      <trkpt lat="44.37934" lon="4.1397">
        <ele>272.67</ele>
        <time>2013-10-16T12:40:28Z</time>
      </trkpt>
      <trkpt lat="44.37923" lon="4.13946">
        <ele>272.67</ele>
        <time>2013-10-16T12:40:33Z</time>
      </trkpt>
      <trkpt lat="44.3792" lon="4.1394">
        <ele>272.67</ele>
        <time>2013-10-16T12:40:34Z</time>
      </trkpt>
      <trkpt lat="44.37916" lon="4.13924">
        <ele>272.67</ele>
        <time>2013-10-16T12:40:37Z</time>
      </trkpt>
      <trkpt lat="44.37915" lon="4.13918">
        <ele>272.67</ele>
        <time>2013-10-16T12:40:38Z</time>
      </trkpt>
      <trkpt lat="44.37915" lon="4.13912">
        <ele>272.67</ele>
        <time>2013-10-16T12:40:39Z</time>
      </trkpt>
      <trkpt lat="44.37915" lon="4.13906">
        <ele>272.67</ele>
        <time>2013-10-16T12:40:40Z</time>
      </trkpt>
      <trkpt lat="44.37915" lon="4.139">
        <ele>272.67</ele>
        <time>2013-10-16T12:40:41Z</time>
      </trkpt>
      <trkpt lat="44.37915" lon="4.13888">
        <ele>273.15</ele>
        <time>2013-10-16T12:40:43Z</time>
      </trkpt>
      <trkpt lat="44.37914" lon="4.13882">
        <ele>273.15</ele>
        <time>2013-10-16T12:40:44Z</time>
      </trkpt>
      <trkpt lat="44.37912" lon="4.13877">
        <ele>273.63</ele>
        <time>2013-10-16T12:40:45Z</time>
      </trkpt>
      <trkpt lat="44.37909" lon="4.13872">
        <ele>273.63</ele>
        <time>2013-10-16T12:40:46Z</time>
      </trkpt>
      <trkpt lat="44.37906" lon="4.13867">
        <ele>273.63</ele>
        <time>2013-10-16T12:40:47Z</time>
      </trkpt>
      <trkpt lat="44.37903" lon="4.13863">
        <ele>273.63</ele>
        <time>2013-10-16T12:40:48Z</time>
      </trkpt>
      <trkpt lat="44.379" lon="4.13858">
        <ele>273.63</ele>
        <time>2013-10-16T12:40:49Z</time>
      </trkpt>
      <trkpt lat="44.37897" lon="4.13854">
        <ele>274.11</ele>
        <time>2013-10-16T12:40:50Z</time>
      </trkpt>
      <trkpt lat="44.37895" lon="4.13848">
        <ele>274.11</ele>
        <time>2013-10-16T12:40:51Z</time>
      </trkpt>
      <trkpt lat="44.37893" lon="4.13843">
        <ele>274.11</ele>
        <time>2013-10-16T12:40:52Z</time>
      </trkpt>
      <trkpt lat="44.37892" lon="4.13837">
        <ele>274.11</ele>
        <time>2013-10-16T12:40:53Z</time>
      </trkpt>
      <trkpt lat="44.37891" lon="4.13831">
        <ele>274.11</ele>
        <time>2013-10-16T12:40:54Z</time>
      </trkpt>
      <trkpt lat="44.37891" lon="4.13825">
        <ele>274.59</ele>
        <time>2013-10-16T12:40:55Z</time>
      </trkpt>
      <trkpt lat="44.37892" lon="4.13819">
        <ele>274.59</ele>
        <time>2013-10-16T12:40:56Z</time>
      </trkpt>
      <trkpt lat="44.37893" lon="4.13814">
        <ele>274.59</ele>
        <time>2013-10-16T12:40:57Z</time>
      </trkpt>
      <trkpt lat="44.37894" lon="4.13809">
        <ele>274.59</ele>
        <time>2013-10-16T12:40:58Z</time>
      </trkpt>
      <trkpt lat="44.37896" lon="4.13804">
        <ele>275.07</ele>
        <time>2013-10-16T12:40:59Z</time>
      </trkpt>
      <trkpt lat="44.37898" lon="4.13799">
        <ele>275.07</ele>
        <time>2013-10-16T12:41:00Z</time>
      </trkpt>
      <trkpt lat="44.37914" lon="4.13756">
        <ele>276.52</ele>
        <time>2013-10-16T12:41:09Z</time>
      </trkpt>
      <trkpt lat="44.37915" lon="4.1375">
        <ele>277</ele>
        <time>2013-10-16T12:41:10Z</time>
      </trkpt>
      <trkpt lat="44.37917" lon="4.13744">
        <ele>277</ele>
        <time>2013-10-16T12:41:11Z</time>
      </trkpt>
      <trkpt lat="44.37918" lon="4.13738">
        <ele>277.48</ele>
        <time>2013-10-16T12:41:12Z</time>
      </trkpt>
      <trkpt lat="44.37919" lon="4.13731">
        <ele>277.48</ele>
        <time>2013-10-16T12:41:13Z</time>
      </trkpt>
      <trkpt lat="44.37919" lon="4.13725">
        <ele>277.48</ele>
        <time>2013-10-16T12:41:14Z</time>
      </trkpt>
      <trkpt lat="44.37919" lon="4.13718">
        <ele>277.96</ele>
        <time>2013-10-16T12:41:15Z</time>
      </trkpt>
      <trkpt lat="44.37919" lon="4.13712">
        <ele>277.96</ele>
        <time>2013-10-16T12:41:16Z</time>
      </trkpt>
      <trkpt lat="44.37918" lon="4.13682">
        <ele>278.44</ele>
        <time>2013-10-16T12:41:21Z</time>
      </trkpt>
      <trkpt lat="44.37919" lon="4.13676">
        <ele>278.92</ele>
        <time>2013-10-16T12:41:22Z</time>
      </trkpt>
      <trkpt lat="44.3792" lon="4.1367">
        <ele>278.92</ele>
        <time>2013-10-16T12:41:23Z</time>
      </trkpt>
      <trkpt lat="44.37922" lon="4.13665">
        <ele>278.92</ele>
        <time>2013-10-16T12:41:24Z</time>
      </trkpt>
      <trkpt lat="44.37924" lon="4.1366">
        <ele>278.92</ele>
        <time>2013-10-16T12:41:25Z</time>
      </trkpt>
      <trkpt lat="44.37927" lon="4.13655">
        <ele>278.92</ele>
        <time>2013-10-16T12:41:26Z</time>
      </trkpt>
      <trkpt lat="44.37929" lon="4.13651">
        <ele>278.92</ele>
        <time>2013-10-16T12:41:27Z</time>
      </trkpt>
      <trkpt lat="44.37932" lon="4.13647">
        <ele>278.92</ele>
        <time>2013-10-16T12:41:28Z</time>
      </trkpt>
      <trkpt lat="44.37935" lon="4.13643">
        <ele>278.92</ele>
        <time>2013-10-16T12:41:29Z</time>
      </trkpt>
      <trkpt lat="44.37938" lon="4.13639">
        <ele>278.92</ele>
        <time>2013-10-16T12:41:30Z</time>
      </trkpt>
      <trkpt lat="44.37977" lon="4.13574">
        <ele>280.36</ele>
        <time>2013-10-16T12:41:44Z</time>
      </trkpt>
      <trkpt lat="44.38016" lon="4.13539">
        <ele>283.25</ele>
        <time>2013-10-16T12:41:56Z</time>
      </trkpt>
      <trkpt lat="44.38058" lon="4.13516">
        <ele>286.13</ele>
        <time>2013-10-16T12:42:09Z</time>
      </trkpt>
      <trkpt lat="44.38099" lon="4.13502">
        <ele>289.01</ele>
        <time>2013-10-16T12:42:22Z</time>
      </trkpt>
      <trkpt lat="44.38133" lon="4.13492">
        <ele>290.46</ele>
        <time>2013-10-16T12:42:34Z</time>
      </trkpt>
      <trkpt lat="44.38127" lon="4.13453">
        <ele>291.42</ele>
        <time>2013-10-16T12:42:44Z</time>
      </trkpt>
      <trkpt lat="44.38113" lon="4.13405">
        <ele>292.38</ele>
        <time>2013-10-16T12:42:56Z</time>
      </trkpt>
      <trkpt lat="44.38105" lon="4.13395">
        <ele>292.38</ele>
        <time>2013-10-16T12:42:59Z</time>
      </trkpt>
      <trkpt lat="44.38093" lon="4.1338">
        <ele>292.86</ele>
        <time>2013-10-16T12:43:03Z</time>
      </trkpt>
      <trkpt lat="44.38043" lon="4.13318">
        <ele>293.34</ele>
        <time>2013-10-16T12:43:18Z</time>
      </trkpt>
      <trkpt lat="44.38028" lon="4.13306">
        <ele>293.34</ele>
        <time>2013-10-16T12:43:22Z</time>
      </trkpt>
      <trkpt lat="44.38025" lon="4.13302">
        <ele>293.82</ele>
        <time>2013-10-16T12:43:23Z</time>
      </trkpt>
      <trkpt lat="44.38022" lon="4.13299">
        <ele>293.34</ele>
        <time>2013-10-16T12:43:24Z</time>
      </trkpt>
      <trkpt lat="44.38019" lon="4.13295">
        <ele>293.34</ele>
        <time>2013-10-16T12:43:25Z</time>
      </trkpt>
      <trkpt lat="44.38016" lon="4.1329">
        <ele>293.82</ele>
        <time>2013-10-16T12:43:26Z</time>
      </trkpt>
      <trkpt lat="44.3801" lon="4.13279">
        <ele>293.82</ele>
        <time>2013-10-16T12:43:28Z</time>
      </trkpt>
      <trkpt lat="44.37988" lon="4.13246">
        <ele>294.3</ele>
        <time>2013-10-16T12:43:35Z</time>
      </trkpt>
      <trkpt lat="44.37985" lon="4.1324">
        <ele>294.3</ele>
        <time>2013-10-16T12:43:36Z</time>
      </trkpt>
      <trkpt lat="44.37983" lon="4.13235">
        <ele>294.3</ele>
        <time>2013-10-16T12:43:37Z</time>
      </trkpt>
      <trkpt lat="44.37974" lon="4.13209">
        <ele>294.78</ele>
        <time>2013-10-16T12:43:42Z</time>
      </trkpt>
      <trkpt lat="44.37955" lon="4.13133">
        <ele>295.26</ele>
        <time>2013-10-16T12:43:54Z</time>
      </trkpt>
      <trkpt lat="44.37948" lon="4.13108">
        <ele>295.26</ele>
        <time>2013-10-16T12:43:58Z</time>
      </trkpt>
      <trkpt lat="44.37946" lon="4.13102">
        <ele>295.26</ele>
        <time>2013-10-16T12:43:59Z</time>
      </trkpt>
      <trkpt lat="44.37942" lon="4.13096">
        <ele>295.26</ele>
        <time>2013-10-16T12:44:00Z</time>
      </trkpt>
      <trkpt lat="44.37938" lon="4.13091">
        <ele>294.78</ele>
        <time>2013-10-16T12:44:01Z</time>
      </trkpt>
      <trkpt lat="44.37934" lon="4.13085">
        <ele>294.78</ele>
        <time>2013-10-16T12:44:02Z</time>
      </trkpt>
      <trkpt lat="44.37888" lon="4.13027">
        <ele>293.82</ele>
        <time>2013-10-16T12:44:12Z</time>
      </trkpt>
      <trkpt lat="44.37884" lon="4.13021">
        <ele>293.82</ele>
        <time>2013-10-16T12:44:13Z</time>
      </trkpt>
      <trkpt lat="44.37867" lon="4.12975">
        <ele>293.34</ele>
        <time>2013-10-16T12:44:19Z</time>
      </trkpt>
      <trkpt lat="44.37866" lon="4.12966">
        <ele>293.34</ele>
        <time>2013-10-16T12:44:20Z</time>
      </trkpt>
      <trkpt lat="44.37855" lon="4.12865">
        <ele>291.42</ele>
        <time>2013-10-16T12:44:31Z</time>
      </trkpt>
      <trkpt lat="44.37827" lon="4.12775">
        <ele>289.97</ele>
        <time>2013-10-16T12:44:43Z</time>
      </trkpt>
      <trkpt lat="44.37823" lon="4.12767">
        <ele>290.46</ele>
        <time>2013-10-16T12:44:44Z</time>
      </trkpt>
      <trkpt lat="44.37818" lon="4.1276">
        <ele>289.97</ele>
        <time>2013-10-16T12:44:45Z</time>
      </trkpt>
      <trkpt lat="44.37813" lon="4.12753">
        <ele>289.49</ele>
        <time>2013-10-16T12:44:46Z</time>
      </trkpt>
      <trkpt lat="44.37808" lon="4.12747">
        <ele>289.49</ele>
        <time>2013-10-16T12:44:47Z</time>
      </trkpt>
      <trkpt lat="44.37793" lon="4.12727">
        <ele>288.53</ele>
        <time>2013-10-16T12:44:50Z</time>
      </trkpt>
      <trkpt lat="44.37765" lon="4.12683">
        <ele>286.61</ele>
        <time>2013-10-16T12:44:56Z</time>
      </trkpt>
      <trkpt lat="44.37754" lon="4.12668">
        <ele>286.13</ele>
        <time>2013-10-16T12:44:58Z</time>
      </trkpt>
      <trkpt lat="44.37748" lon="4.12661">
        <ele>285.65</ele>
        <time>2013-10-16T12:44:59Z</time>
      </trkpt>
      <trkpt lat="44.37742" lon="4.12656">
        <ele>285.65</ele>
        <time>2013-10-16T12:45:00Z</time>
      </trkpt>
      <trkpt lat="44.37717" lon="4.12639">
        <ele>284.21</ele>
        <time>2013-10-16T12:45:04Z</time>
      </trkpt>
      <trkpt lat="44.37712" lon="4.12632">
        <ele>284.21</ele>
        <time>2013-10-16T12:45:05Z</time>
      </trkpt>
      <trkpt lat="44.37709" lon="4.12624">
        <ele>283.73</ele>
        <time>2013-10-16T12:45:06Z</time>
      </trkpt>
      <trkpt lat="44.37709" lon="4.12605">
        <ele>283.25</ele>
        <time>2013-10-16T12:45:08Z</time>
      </trkpt>
      <trkpt lat="44.37711" lon="4.12595">
        <ele>283.25</ele>
        <time>2013-10-16T12:45:09Z</time>
      </trkpt>
      <trkpt lat="44.37712" lon="4.12585">
        <ele>282.77</ele>
        <time>2013-10-16T12:45:10Z</time>
      </trkpt>
      <trkpt lat="44.37713" lon="4.12577">
        <ele>283.25</ele>
        <time>2013-10-16T12:45:11Z</time>
      </trkpt>
      <trkpt lat="44.37717" lon="4.12573">
        <ele>283.25</ele>
        <time>2013-10-16T12:45:12Z</time>
      </trkpt>
      <trkpt lat="44.37723" lon="4.12571">
        <ele>283.25</ele>
        <time>2013-10-16T12:45:13Z</time>
      </trkpt>
      <trkpt lat="44.37728" lon="4.1257">
        <ele>283.73</ele>
        <time>2013-10-16T12:45:14Z</time>
      </trkpt>
      <trkpt lat="44.37733" lon="4.1257">
        <ele>283.73</ele>
        <time>2013-10-16T12:45:15Z</time>
      </trkpt>
      <trkpt lat="44.37751" lon="4.1257">
        <ele>283.73</ele>
        <time>2013-10-16T12:45:19Z</time>
      </trkpt>
      <trkpt lat="44.37788" lon="4.12568">
        <ele>285.17</ele>
        <time>2013-10-16T12:45:29Z</time>
      </trkpt>
      <trkpt lat="44.37793" lon="4.12568">
        <ele>285.17</ele>
        <time>2013-10-16T12:45:30Z</time>
      </trkpt>
      <trkpt lat="44.37861" lon="4.12572">
        <ele>284.69</ele>
        <time>2013-10-16T12:45:42Z</time>
      </trkpt>
      <trkpt lat="44.37866" lon="4.12576">
        <ele>284.21</ele>
        <time>2013-10-16T12:45:43Z</time>
      </trkpt>
      <trkpt lat="44.37869" lon="4.12581">
        <ele>284.21</ele>
        <time>2013-10-16T12:45:44Z</time>
      </trkpt>
      <trkpt lat="44.3787" lon="4.12589">
        <ele>284.21</ele>
        <time>2013-10-16T12:45:45Z</time>
      </trkpt>
      <trkpt lat="44.37871" lon="4.12596">
        <ele>283.73</ele>
        <time>2013-10-16T12:45:46Z</time>
      </trkpt>
      <trkpt lat="44.37871" lon="4.12604">
        <ele>283.73</ele>
        <time>2013-10-16T12:45:47Z</time>
      </trkpt>
      <trkpt lat="44.37871" lon="4.12611">
        <ele>283.73</ele>
        <time>2013-10-16T12:45:48Z</time>
      </trkpt>
      <trkpt lat="44.37874" lon="4.12679">
        <ele>284.69</ele>
        <time>2013-10-16T12:45:57Z</time>
      </trkpt>
      <trkpt lat="44.37875" lon="4.12686">
        <ele>284.21</ele>
        <time>2013-10-16T12:45:58Z</time>
      </trkpt>
      <trkpt lat="44.37878" lon="4.127">
        <ele>284.69</ele>
        <time>2013-10-16T12:46:00Z</time>
      </trkpt>
      <trkpt lat="44.37882" lon="4.12713">
        <ele>285.17</ele>
        <time>2013-10-16T12:46:02Z</time>
      </trkpt>
      <trkpt lat="44.37885" lon="4.1272">
        <ele>284.69</ele>
        <time>2013-10-16T12:46:03Z</time>
      </trkpt>
      <trkpt lat="44.37917" lon="4.12814">
        <ele>285.65</ele>
        <time>2013-10-16T12:46:17Z</time>
      </trkpt>
      <trkpt lat="44.37936" lon="4.1287">
        <ele>286.13</ele>
        <time>2013-10-16T12:46:25Z</time>
      </trkpt>
      <trkpt lat="44.37942" lon="4.12884">
        <ele>286.13</ele>
        <time>2013-10-16T12:46:27Z</time>
      </trkpt>
      <trkpt lat="44.37951" lon="4.12902">
        <ele>286.61</ele>
        <time>2013-10-16T12:46:30Z</time>
      </trkpt>
      <trkpt lat="44.37959" lon="4.12912">
        <ele>287.09</ele>
        <time>2013-10-16T12:46:32Z</time>
      </trkpt>
      <trkpt lat="44.37989" lon="4.12944">
        <ele>287.09</ele>
        <time>2013-10-16T12:46:39Z</time>
      </trkpt>
      <trkpt lat="44.38056" lon="4.13016">
        <ele>287.57</ele>
        <time>2013-10-16T12:46:54Z</time>
      </trkpt>
      <trkpt lat="44.38068" lon="4.1304">
        <ele>287.57</ele>
        <time>2013-10-16T12:46:58Z</time>
      </trkpt>
      <trkpt lat="44.38086" lon="4.13085">
        <ele>287.57</ele>
        <time>2013-10-16T12:47:05Z</time>
      </trkpt>
      <trkpt lat="44.38089" lon="4.13091">
        <ele>287.57</ele>
        <time>2013-10-16T12:47:06Z</time>
      </trkpt>
      <trkpt lat="44.38094" lon="4.13097">
        <ele>287.57</ele>
        <time>2013-10-16T12:47:07Z</time>
      </trkpt>
      <trkpt lat="44.38098" lon="4.13101">
        <ele>287.57</ele>
        <time>2013-10-16T12:47:08Z</time>
      </trkpt>
      <trkpt lat="44.38102" lon="4.13105">
        <ele>287.57</ele>
        <time>2013-10-16T12:47:09Z</time>
      </trkpt>
      <trkpt lat="44.38107" lon="4.13107">
        <ele>287.57</ele>
        <time>2013-10-16T12:47:10Z</time>
      </trkpt>
      <trkpt lat="44.38112" lon="4.13109">
        <ele>287.57</ele>
        <time>2013-10-16T12:47:11Z</time>
      </trkpt>
      <trkpt lat="44.38117" lon="4.1311">
        <ele>288.05</ele>
        <time>2013-10-16T12:47:12Z</time>
      </trkpt>
      <trkpt lat="44.38122" lon="4.1311">
        <ele>288.05</ele>
        <time>2013-10-16T12:47:13Z</time>
      </trkpt>
      <trkpt lat="44.38164" lon="4.13111">
        <ele>288.53</ele>
        <time>2013-10-16T12:47:21Z</time>
      </trkpt>
      <trkpt lat="44.38169" lon="4.1311">
        <ele>289.01</ele>
        <time>2013-10-16T12:47:22Z</time>
      </trkpt>
      <trkpt lat="44.38174" lon="4.13108">
        <ele>288.53</ele>
        <time>2013-10-16T12:47:23Z</time>
      </trkpt>
      <trkpt lat="44.38178" lon="4.13104">
        <ele>289.01</ele>
        <time>2013-10-16T12:47:24Z</time>
      </trkpt>
      <trkpt lat="44.38182" lon="4.13101">
        <ele>289.49</ele>
        <time>2013-10-16T12:47:25Z</time>
      </trkpt>
      <trkpt lat="44.38186" lon="4.13098">
        <ele>289.01</ele>
        <time>2013-10-16T12:47:26Z</time>
      </trkpt>
      <trkpt lat="44.38188" lon="4.13093">
        <ele>288.05</ele>
        <time>2013-10-16T12:47:27Z</time>
      </trkpt>
      <trkpt lat="44.38191" lon="4.13089">
        <ele>288.05</ele>
        <time>2013-10-16T12:47:28Z</time>
      </trkpt>
      <trkpt lat="44.38205" lon="4.13052">
        <ele>288.05</ele>
        <time>2013-10-16T12:47:35Z</time>
      </trkpt>
      <trkpt lat="44.38208" lon="4.13047">
        <ele>288.05</ele>
        <time>2013-10-16T12:47:36Z</time>
      </trkpt>
      <trkpt lat="44.38212" lon="4.13041">
        <ele>288.53</ele>
        <time>2013-10-16T12:47:37Z</time>
      </trkpt>
      <trkpt lat="44.38215" lon="4.13036">
        <ele>289.01</ele>
        <time>2013-10-16T12:47:38Z</time>
      </trkpt>
      <trkpt lat="44.38219" lon="4.13031">
        <ele>288.53</ele>
        <time>2013-10-16T12:47:39Z</time>
      </trkpt>
      <trkpt lat="44.38224" lon="4.13027">
        <ele>288.53</ele>
        <time>2013-10-16T12:47:40Z</time>
      </trkpt>
      <trkpt lat="44.38228" lon="4.13022">
        <ele>288.05</ele>
        <time>2013-10-16T12:47:41Z</time>
      </trkpt>
      <trkpt lat="44.38244" lon="4.13008">
        <ele>288.53</ele>
        <time>2013-10-16T12:47:45Z</time>
      </trkpt>
      <trkpt lat="44.38247" lon="4.13003">
        <ele>288.53</ele>
        <time>2013-10-16T12:47:46Z</time>
      </trkpt>
      <trkpt lat="44.3825" lon="4.12997">
        <ele>289.01</ele>
        <time>2013-10-16T12:47:47Z</time>
      </trkpt>
      <trkpt lat="44.38253" lon="4.1299">
        <ele>289.01</ele>
        <time>2013-10-16T12:47:48Z</time>
      </trkpt>
      <trkpt lat="44.38255" lon="4.12983">
        <ele>289.01</ele>
        <time>2013-10-16T12:47:49Z</time>
      </trkpt>
      <trkpt lat="44.38268" lon="4.12918">
        <ele>288.53</ele>
        <time>2013-10-16T12:47:58Z</time>
      </trkpt>
      <trkpt lat="44.38272" lon="4.12912">
        <ele>288.53</ele>
        <time>2013-10-16T12:47:59Z</time>
      </trkpt>
      <trkpt lat="44.38276" lon="4.12907">
        <ele>288.53</ele>
        <time>2013-10-16T12:48:00Z</time>
      </trkpt>
      <trkpt lat="44.38281" lon="4.12905">
        <ele>288.53</ele>
        <time>2013-10-16T12:48:01Z</time>
      </trkpt>
      <trkpt lat="44.38287" lon="4.12903">
        <ele>288.53</ele>
        <time>2013-10-16T12:48:02Z</time>
      </trkpt>
      <trkpt lat="44.38293" lon="4.12902">
        <ele>288.53</ele>
        <time>2013-10-16T12:48:03Z</time>
      </trkpt>
      <trkpt lat="44.38298" lon="4.12904">
        <ele>288.53</ele>
        <time>2013-10-16T12:48:04Z</time>
      </trkpt>
      <trkpt lat="44.38303" lon="4.12906">
        <ele>289.01</ele>
        <time>2013-10-16T12:48:05Z</time>
      </trkpt>
      <trkpt lat="44.38308" lon="4.12907">
        <ele>289.01</ele>
        <time>2013-10-16T12:48:06Z</time>
      </trkpt>
      <trkpt lat="44.38313" lon="4.12909">
        <ele>288.53</ele>
        <time>2013-10-16T12:48:07Z</time>
      </trkpt>
      <trkpt lat="44.38318" lon="4.1291">
        <ele>289.01</ele>
        <time>2013-10-16T12:48:08Z</time>
      </trkpt>
      <trkpt lat="44.38323" lon="4.12908">
        <ele>289.01</ele>
        <time>2013-10-16T12:48:09Z</time>
      </trkpt>
      <trkpt lat="44.38328" lon="4.12905">
        <ele>289.01</ele>
        <time>2013-10-16T12:48:10Z</time>
      </trkpt>
      <trkpt lat="44.38332" lon="4.12901">
        <ele>289.01</ele>
        <time>2013-10-16T12:48:11Z</time>
      </trkpt>
      <trkpt lat="44.38336" lon="4.12896">
        <ele>288.53</ele>
        <time>2013-10-16T12:48:12Z</time>
      </trkpt>
      <trkpt lat="44.38392" lon="4.12825">
        <ele>289.49</ele>
        <time>2013-10-16T12:48:26Z</time>
      </trkpt>
      <trkpt lat="44.38396" lon="4.12821">
        <ele>289.49</ele>
        <time>2013-10-16T12:48:27Z</time>
      </trkpt>
      <trkpt lat="44.38401" lon="4.12817">
        <ele>289.49</ele>
        <time>2013-10-16T12:48:28Z</time>
      </trkpt>
      <trkpt lat="44.38406" lon="4.12815">
        <ele>289.01</ele>
        <time>2013-10-16T12:48:29Z</time>
      </trkpt>
      <trkpt lat="44.38412" lon="4.12815">
        <ele>289.49</ele>
        <time>2013-10-16T12:48:30Z</time>
      </trkpt>
      <trkpt lat="44.38417" lon="4.12818">
        <ele>289.49</ele>
        <time>2013-10-16T12:48:31Z</time>
      </trkpt>
      <trkpt lat="44.38422" lon="4.1282">
        <ele>289.01</ele>
        <time>2013-10-16T12:48:32Z</time>
      </trkpt>
      <trkpt lat="44.38425" lon="4.12826">
        <ele>289.01</ele>
        <time>2013-10-16T12:48:33Z</time>
      </trkpt>
      <trkpt lat="44.38427" lon="4.12831">
        <ele>289.49</ele>
        <time>2013-10-16T12:48:34Z</time>
      </trkpt>
      <trkpt lat="44.38426" lon="4.12838">
        <ele>289.01</ele>
        <time>2013-10-16T12:48:35Z</time>
      </trkpt>
      <trkpt lat="44.38425" lon="4.12844">
        <ele>289.01</ele>
        <time>2013-10-16T12:48:36Z</time>
      </trkpt>
      <trkpt lat="44.38423" lon="4.12851">
        <ele>289.01</ele>
        <time>2013-10-16T12:48:37Z</time>
      </trkpt>
      <trkpt lat="44.38421" lon="4.12858">
        <ele>289.01</ele>
        <time>2013-10-16T12:48:38Z</time>
      </trkpt>
      <trkpt lat="44.38384" lon="4.12972">
        <ele>289.01</ele>
        <time>2013-10-16T12:48:54Z</time>
      </trkpt>
      <trkpt lat="44.38383" lon="4.12989">
        <ele>289.01</ele>
        <time>2013-10-16T12:48:56Z</time>
      </trkpt>
      <trkpt lat="44.38383" lon="4.12998">
        <ele>289.01</ele>
        <time>2013-10-16T12:48:57Z</time>
      </trkpt>
      <trkpt lat="44.38384" lon="4.13006">
        <ele>289.01</ele>
        <time>2013-10-16T12:48:58Z</time>
      </trkpt>
      <trkpt lat="44.38385" lon="4.13014">
        <ele>289.01</ele>
        <time>2013-10-16T12:48:59Z</time>
      </trkpt>
      <trkpt lat="44.38387" lon="4.13022">
        <ele>289.49</ele>
        <time>2013-10-16T12:49:00Z</time>
      </trkpt>
      <trkpt lat="44.38389" lon="4.1303">
        <ele>289.01</ele>
        <time>2013-10-16T12:49:01Z</time>
      </trkpt>
      <trkpt lat="44.38391" lon="4.13037">
        <ele>289.49</ele>
        <time>2013-10-16T12:49:02Z</time>
      </trkpt>
      <trkpt lat="44.384" lon="4.13057">
        <ele>289.49</ele>
        <time>2013-10-16T12:49:05Z</time>
      </trkpt>
      <trkpt lat="44.38404" lon="4.13063">
        <ele>289.01</ele>
        <time>2013-10-16T12:49:06Z</time>
      </trkpt>
      <trkpt lat="44.38408" lon="4.13068">
        <ele>289.49</ele>
        <time>2013-10-16T12:49:07Z</time>
      </trkpt>
      <trkpt lat="44.38412" lon="4.13071">
        <ele>289.49</ele>
        <time>2013-10-16T12:49:08Z</time>
      </trkpt>
      <trkpt lat="44.38418" lon="4.13074">
        <ele>289.49</ele>
        <time>2013-10-16T12:49:09Z</time>
      </trkpt>
      <trkpt lat="44.38423" lon="4.13075">
        <ele>289.49</ele>
        <time>2013-10-16T12:49:10Z</time>
      </trkpt>
      <trkpt lat="44.38429" lon="4.13076">
        <ele>289.49</ele>
        <time>2013-10-16T12:49:11Z</time>
      </trkpt>
      <trkpt lat="44.38435" lon="4.13076">
        <ele>289.97</ele>
        <time>2013-10-16T12:49:12Z</time>
      </trkpt>
      <trkpt lat="44.38441" lon="4.13077">
        <ele>289.49</ele>
        <time>2013-10-16T12:49:13Z</time>
      </trkpt>
      <trkpt lat="44.38494" lon="4.13084">
        <ele>289.49</ele>
        <time>2013-10-16T12:49:22Z</time>
      </trkpt>
      <trkpt lat="44.385" lon="4.13087">
        <ele>289.01</ele>
        <time>2013-10-16T12:49:23Z</time>
      </trkpt>
      <trkpt lat="44.38506" lon="4.1309">
        <ele>289.49</ele>
        <time>2013-10-16T12:49:24Z</time>
      </trkpt>
      <trkpt lat="44.38512" lon="4.13095">
        <ele>289.49</ele>
        <time>2013-10-16T12:49:25Z</time>
      </trkpt>
      <trkpt lat="44.38517" lon="4.13099">
        <ele>289.49</ele>
        <time>2013-10-16T12:49:26Z</time>
      </trkpt>
      <trkpt lat="44.38595" lon="4.13178">
        <ele>289.49</ele>
        <time>2013-10-16T12:49:42Z</time>
      </trkpt>
      <trkpt lat="44.38628" lon="4.13214">
        <ele>289.49</ele>
        <time>2013-10-16T12:49:49Z</time>
      </trkpt>
      <trkpt lat="44.38634" lon="4.13218">
        <ele>289.49</ele>
        <time>2013-10-16T12:49:50Z</time>
      </trkpt>
      <trkpt lat="44.38639" lon="4.13221">
        <ele>289.49</ele>
        <time>2013-10-16T12:49:51Z</time>
      </trkpt>
      <trkpt lat="44.38645" lon="4.13222">
        <ele>289.97</ele>
        <time>2013-10-16T12:49:52Z</time>
      </trkpt>
      <trkpt lat="44.38651" lon="4.13222">
        <ele>290.46</ele>
        <time>2013-10-16T12:49:53Z</time>
      </trkpt>
      <trkpt lat="44.38657" lon="4.13221">
        <ele>290.46</ele>
        <time>2013-10-16T12:49:54Z</time>
      </trkpt>
      <trkpt lat="44.38662" lon="4.13218">
        <ele>289.97</ele>
        <time>2013-10-16T12:49:55Z</time>
      </trkpt>
      <trkpt lat="44.38667" lon="4.13215">
        <ele>289.97</ele>
        <time>2013-10-16T12:49:56Z</time>
      </trkpt>
      <trkpt lat="44.38672" lon="4.13211">
        <ele>290.46</ele>
        <time>2013-10-16T12:49:57Z</time>
      </trkpt>
      <trkpt lat="44.38747" lon="4.13143">
        <ele>290.46</ele>
        <time>2013-10-16T12:50:14Z</time>
      </trkpt>
      <trkpt lat="44.3876" lon="4.1313">
        <ele>289.49</ele>
        <time>2013-10-16T12:50:17Z</time>
      </trkpt>
      <trkpt lat="44.38765" lon="4.13128">
        <ele>289.49</ele>
        <time>2013-10-16T12:50:18Z</time>
      </trkpt>
      <trkpt lat="44.38771" lon="4.13127">
        <ele>289.97</ele>
        <time>2013-10-16T12:50:19Z</time>
      </trkpt>
      <trkpt lat="44.38776" lon="4.13128">
        <ele>289.97</ele>
        <time>2013-10-16T12:50:20Z</time>
      </trkpt>
      <trkpt lat="44.38781" lon="4.13131">
        <ele>289.97</ele>
        <time>2013-10-16T12:50:21Z</time>
      </trkpt>
      <trkpt lat="44.38784" lon="4.13136">
        <ele>289.49</ele>
        <time>2013-10-16T12:50:22Z</time>
      </trkpt>
      <trkpt lat="44.38787" lon="4.13142">
        <ele>289.49</ele>
        <time>2013-10-16T12:50:23Z</time>
      </trkpt>
      <trkpt lat="44.38789" lon="4.13149">
        <ele>289.49</ele>
        <time>2013-10-16T12:50:24Z</time>
      </trkpt>
      <trkpt lat="44.38789" lon="4.13156">
        <ele>289.97</ele>
        <time>2013-10-16T12:50:25Z</time>
      </trkpt>
      <trkpt lat="44.38789" lon="4.13163">
        <ele>289.49</ele>
        <time>2013-10-16T12:50:26Z</time>
      </trkpt>
      <trkpt lat="44.38789" lon="4.1317">
        <ele>289.49</ele>
        <time>2013-10-16T12:50:27Z</time>
      </trkpt>
      <trkpt lat="44.38789" lon="4.13208">
        <ele>289.97</ele>
        <time>2013-10-16T12:50:32Z</time>
      </trkpt>
      <trkpt lat="44.3879" lon="4.13215">
        <ele>289.49</ele>
        <time>2013-10-16T12:50:33Z</time>
      </trkpt>
      <trkpt lat="44.38793" lon="4.13222">
        <ele>289.49</ele>
        <time>2013-10-16T12:50:34Z</time>
      </trkpt>
      <trkpt lat="44.38795" lon="4.13229">
        <ele>289.49</ele>
        <time>2013-10-16T12:50:35Z</time>
      </trkpt>
      <trkpt lat="44.38799" lon="4.13235">
        <ele>289.97</ele>
        <time>2013-10-16T12:50:36Z</time>
      </trkpt>
      <trkpt lat="44.38803" lon="4.1324">
        <ele>290.46</ele>
        <time>2013-10-16T12:50:37Z</time>
      </trkpt>
      <trkpt lat="44.38807" lon="4.13244">
        <ele>290.46</ele>
        <time>2013-10-16T12:50:38Z</time>
      </trkpt>
      <trkpt lat="44.38812" lon="4.13247">
        <ele>290.94</ele>
        <time>2013-10-16T12:50:39Z</time>
      </trkpt>
      <trkpt lat="44.38817" lon="4.1325">
        <ele>290.94</ele>
        <time>2013-10-16T12:50:40Z</time>
      </trkpt>
      <trkpt lat="44.38822" lon="4.13252">
        <ele>290.94</ele>
        <time>2013-10-16T12:50:41Z</time>
      </trkpt>
      <trkpt lat="44.38827" lon="4.13254">
        <ele>290.94</ele>
        <time>2013-10-16T12:50:42Z</time>
      </trkpt>
      <trkpt lat="44.38899" lon="4.13273">
        <ele>293.34</ele>
        <time>2013-10-16T12:50:57Z</time>
      </trkpt>
      <trkpt lat="44.3895" lon="4.13262">
        <ele>294.78</ele>
        <time>2013-10-16T12:51:10Z</time>
      </trkpt>
      <trkpt lat="44.38967" lon="4.13249">
        <ele>295.74</ele>
        <time>2013-10-16T12:51:15Z</time>
      </trkpt>
      <trkpt lat="44.38974" lon="4.13242">
        <ele>295.74</ele>
        <time>2013-10-16T12:51:17Z</time>
      </trkpt>
      <trkpt lat="44.38977" lon="4.13239">
        <ele>296.22</ele>
        <time>2013-10-16T12:51:18Z</time>
      </trkpt>
      <trkpt lat="44.38981" lon="4.13236">
        <ele>295.74</ele>
        <time>2013-10-16T12:51:19Z</time>
      </trkpt>
      <trkpt lat="44.39016" lon="4.13171">
        <ele>296.7</ele>
        <time>2013-10-16T12:51:33Z</time>
      </trkpt>
      <trkpt lat="44.39022" lon="4.13155">
        <ele>297.18</ele>
        <time>2013-10-16T12:51:36Z</time>
      </trkpt>
      <trkpt lat="44.39024" lon="4.1315">
        <ele>297.18</ele>
        <time>2013-10-16T12:51:37Z</time>
      </trkpt>
      <trkpt lat="44.39029" lon="4.13141">
        <ele>296.7</ele>
        <time>2013-10-16T12:51:39Z</time>
      </trkpt>
      <trkpt lat="44.39032" lon="4.13137">
        <ele>297.18</ele>
        <time>2013-10-16T12:51:40Z</time>
      </trkpt>
      <trkpt lat="44.39036" lon="4.13134">
        <ele>296.7</ele>
        <time>2013-10-16T12:51:41Z</time>
      </trkpt>
      <trkpt lat="44.3904" lon="4.13132">
        <ele>297.18</ele>
        <time>2013-10-16T12:51:42Z</time>
      </trkpt>
      <trkpt lat="44.39045" lon="4.1313">
        <ele>297.18</ele>
        <time>2013-10-16T12:51:43Z</time>
      </trkpt>
      <trkpt lat="44.39049" lon="4.1313">
        <ele>297.18</ele>
        <time>2013-10-16T12:51:44Z</time>
      </trkpt>
      <trkpt lat="44.39054" lon="4.1313">
        <ele>297.67</ele>
        <time>2013-10-16T12:51:45Z</time>
      </trkpt>
      <trkpt lat="44.39058" lon="4.13131">
        <ele>297.18</ele>
        <time>2013-10-16T12:51:46Z</time>
      </trkpt>
      <trkpt lat="44.39062" lon="4.13133">
        <ele>297.18</ele>
        <time>2013-10-16T12:51:47Z</time>
      </trkpt>
      <trkpt lat="44.39065" lon="4.13137">
        <ele>297.18</ele>
        <time>2013-10-16T12:51:48Z</time>
      </trkpt>
      <trkpt lat="44.39068" lon="4.13141">
        <ele>297.67</ele>
        <time>2013-10-16T12:51:49Z</time>
      </trkpt>
      <trkpt lat="44.39071" lon="4.13145">
        <ele>297.67</ele>
        <time>2013-10-16T12:51:50Z</time>
      </trkpt>
      <trkpt lat="44.39073" lon="4.13151">
        <ele>297.67</ele>
        <time>2013-10-16T12:51:51Z</time>
      </trkpt>
      <trkpt lat="44.39089" lon="4.13197">
        <ele>297.67</ele>
        <time>2013-10-16T12:51:59Z</time>
      </trkpt>
      <trkpt lat="44.39111" lon="4.13241">
        <ele>298.63</ele>
        <time>2013-10-16T12:52:07Z</time>
      </trkpt>
      <trkpt lat="44.39115" lon="4.13246">
        <ele>298.63</ele>
        <time>2013-10-16T12:52:08Z</time>
      </trkpt>
      <trkpt lat="44.39118" lon="4.13251">
        <ele>298.63</ele>
        <time>2013-10-16T12:52:09Z</time>
      </trkpt>
      <trkpt lat="44.39122" lon="4.13254">
        <ele>299.11</ele>
        <time>2013-10-16T12:52:10Z</time>
      </trkpt>
      <trkpt lat="44.39127" lon="4.13257">
        <ele>298.63</ele>
        <time>2013-10-16T12:52:11Z</time>
      </trkpt>
      <trkpt lat="44.39131" lon="4.13259">
        <ele>299.11</ele>
        <time>2013-10-16T12:52:12Z</time>
      </trkpt>
      <trkpt lat="44.39136" lon="4.1326">
        <ele>299.11</ele>
        <time>2013-10-16T12:52:13Z</time>
      </trkpt>
      <trkpt lat="44.39141" lon="4.13261">
        <ele>299.11</ele>
        <time>2013-10-16T12:52:14Z</time>
      </trkpt>
      <trkpt lat="44.39195" lon="4.13263">
        <ele>298.15</ele>
        <time>2013-10-16T12:52:24Z</time>
      </trkpt>
      <trkpt lat="44.392" lon="4.13265">
        <ele>298.15</ele>
        <time>2013-10-16T12:52:25Z</time>
      </trkpt>
      <trkpt lat="44.39233" lon="4.13285">
        <ele>298.15</ele>
        <time>2013-10-16T12:52:32Z</time>
      </trkpt>
      <trkpt lat="44.39237" lon="4.13289">
        <ele>298.63</ele>
        <time>2013-10-16T12:52:33Z</time>
      </trkpt>
      <trkpt lat="44.39252" lon="4.13304">
        <ele>299.11</ele>
        <time>2013-10-16T12:52:37Z</time>
      </trkpt>
      <trkpt lat="44.3931" lon="4.13345">
        <ele>299.11</ele>
        <time>2013-10-16T12:52:51Z</time>
      </trkpt>
      <trkpt lat="44.39383" lon="4.13363">
        <ele>298.15</ele>
        <time>2013-10-16T12:53:04Z</time>
      </trkpt>
      <trkpt lat="44.39411" lon="4.13375">
        <ele>297.67</ele>
        <time>2013-10-16T12:53:09Z</time>
      </trkpt>
      <trkpt lat="44.39417" lon="4.13376">
        <ele>297.18</ele>
        <time>2013-10-16T12:53:10Z</time>
      </trkpt>
      <trkpt lat="44.39469" lon="4.13375">
        <ele>297.67</ele>
        <time>2013-10-16T12:53:19Z</time>
      </trkpt>
      <trkpt lat="44.39474" lon="4.13375">
        <ele>298.15</ele>
        <time>2013-10-16T12:53:20Z</time>
      </trkpt>
      <trkpt lat="44.39536" lon="4.13375">
        <ele>299.59</ele>
        <time>2013-10-16T12:53:31Z</time>
      </trkpt>
      <trkpt lat="44.39559" lon="4.13379">
        <ele>298.63</ele>
        <time>2013-10-16T12:53:35Z</time>
      </trkpt>
      <trkpt lat="44.39626" lon="4.13401">
        <ele>295.74</ele>
        <time>2013-10-16T12:53:45Z</time>
      </trkpt>
      <trkpt lat="44.39665" lon="4.13417">
        <ele>294.78</ele>
        <time>2013-10-16T12:53:50Z</time>
      </trkpt>
      <trkpt lat="44.39672" lon="4.13418">
        <ele>295.26</ele>
        <time>2013-10-16T12:53:51Z</time>
      </trkpt>
      <trkpt lat="44.39679" lon="4.13418">
        <ele>295.26</ele>
        <time>2013-10-16T12:53:52Z</time>
      </trkpt>
      <trkpt lat="44.39693" lon="4.13417">
        <ele>295.26</ele>
        <time>2013-10-16T12:53:54Z</time>
      </trkpt>
      <trkpt lat="44.39764" lon="4.13414">
        <ele>296.22</ele>
        <time>2013-10-16T12:54:07Z</time>
      </trkpt>
      <trkpt lat="44.39823" lon="4.13408">
        <ele>297.67</ele>
        <time>2013-10-16T12:54:20Z</time>
      </trkpt>
      <trkpt lat="44.39832" lon="4.13406">
        <ele>298.15</ele>
        <time>2013-10-16T12:54:22Z</time>
      </trkpt>
      <trkpt lat="44.39836" lon="4.13406">
        <ele>298.15</ele>
        <time>2013-10-16T12:54:23Z</time>
      </trkpt>
      <trkpt lat="44.3984" lon="4.13405">
        <ele>298.63</ele>
        <time>2013-10-16T12:54:24Z</time>
      </trkpt>
      <trkpt lat="44.39901" lon="4.13392">
        <ele>300.07</ele>
        <time>2013-10-16T12:54:38Z</time>
      </trkpt>
      <trkpt lat="44.39932" lon="4.13355">
        <ele>301.03</ele>
        <time>2013-10-16T12:54:49Z</time>
      </trkpt>
      <trkpt lat="44.39933" lon="4.13351">
        <ele>301.03</ele>
        <time>2013-10-16T12:54:50Z</time>
      </trkpt>
      <trkpt lat="44.39933" lon="4.13346">
        <ele>301.03</ele>
        <time>2013-10-16T12:54:51Z</time>
      </trkpt>
      <trkpt lat="44.39934" lon="4.13342">
        <ele>301.03</ele>
        <time>2013-10-16T12:54:52Z</time>
      </trkpt>
      <trkpt lat="44.39934" lon="4.13337">
        <ele>300.55</ele>
        <time>2013-10-16T12:54:53Z</time>
      </trkpt>
      <trkpt lat="44.39933" lon="4.13312">
        <ele>300.55</ele>
        <time>2013-10-16T12:54:57Z</time>
      </trkpt>
      <trkpt lat="44.39932" lon="4.13298">
        <ele>300.55</ele>
        <time>2013-10-16T12:54:59Z</time>
      </trkpt>
      <trkpt lat="44.39932" lon="4.13292">
        <ele>300.55</ele>
        <time>2013-10-16T12:55:00Z</time>
      </trkpt>
      <trkpt lat="44.39938" lon="4.13228">
        <ele>299.59</ele>
        <time>2013-10-16T12:55:09Z</time>
      </trkpt>
      <trkpt lat="44.39949" lon="4.13181">
        <ele>298.63</ele>
        <time>2013-10-16T12:55:15Z</time>
      </trkpt>
      <trkpt lat="44.39972" lon="4.13129">
        <ele>298.15</ele>
        <time>2013-10-16T12:55:22Z</time>
      </trkpt>
      <trkpt lat="44.39977" lon="4.13123">
        <ele>298.15</ele>
        <time>2013-10-16T12:55:23Z</time>
      </trkpt>
      <trkpt lat="44.39983" lon="4.13118">
        <ele>297.67</ele>
        <time>2013-10-16T12:55:24Z</time>
      </trkpt>
      <trkpt lat="44.3999" lon="4.13113">
        <ele>297.67</ele>
        <time>2013-10-16T12:55:25Z</time>
      </trkpt>
      <trkpt lat="44.39996" lon="4.13109">
        <ele>297.18</ele>
        <time>2013-10-16T12:55:26Z</time>
      </trkpt>
      <trkpt lat="44.40017" lon="4.13096">
        <ele>295.74</ele>
        <time>2013-10-16T12:55:29Z</time>
      </trkpt>
      <trkpt lat="44.40076" lon="4.13085">
        <ele>292.38</ele>
        <time>2013-10-16T12:55:36Z</time>
      </trkpt>
      <trkpt lat="44.40122" lon="4.13087">
        <ele>290.46</ele>
        <time>2013-10-16T12:55:41Z</time>
      </trkpt>
      <trkpt lat="44.40182" lon="4.13087">
        <ele>287.57</ele>
        <time>2013-10-16T12:55:47Z</time>
      </trkpt>
      <trkpt lat="44.40191" lon="4.13084">
        <ele>287.09</ele>
        <time>2013-10-16T12:55:48Z</time>
      </trkpt>
      <trkpt lat="44.402" lon="4.13077">
        <ele>287.09</ele>
        <time>2013-10-16T12:55:49Z</time>
      </trkpt>
      <trkpt lat="44.40207" lon="4.13067">
        <ele>287.09</ele>
        <time>2013-10-16T12:55:50Z</time>
      </trkpt>
      <trkpt lat="44.40212" lon="4.13055">
        <ele>286.13</ele>
        <time>2013-10-16T12:55:51Z</time>
      </trkpt>
      <trkpt lat="44.40215" lon="4.13043">
        <ele>285.17</ele>
        <time>2013-10-16T12:55:52Z</time>
      </trkpt>
      <trkpt lat="44.40215" lon="4.1303">
        <ele>285.17</ele>
        <time>2013-10-16T12:55:53Z</time>
      </trkpt>
      <trkpt lat="44.40215" lon="4.13017">
        <ele>283.73</ele>
        <time>2013-10-16T12:55:54Z</time>
      </trkpt>
      <trkpt lat="44.40213" lon="4.13004">
        <ele>282.77</ele>
        <time>2013-10-16T12:55:55Z</time>
      </trkpt>
      <trkpt lat="44.40211" lon="4.12991">
        <ele>282.28</ele>
        <time>2013-10-16T12:55:56Z</time>
      </trkpt>
      <trkpt lat="44.40209" lon="4.12979">
        <ele>281.8</ele>
        <time>2013-10-16T12:55:57Z</time>
      </trkpt>
      <trkpt lat="44.40206" lon="4.12966">
        <ele>281.32</ele>
        <time>2013-10-16T12:55:58Z</time>
      </trkpt>
      <trkpt lat="44.40187" lon="4.12908">
        <ele>277.48</ele>
        <time>2013-10-16T12:56:03Z</time>
      </trkpt>
      <trkpt lat="44.40167" lon="4.12852">
        <ele>274.59</ele>
        <time>2013-10-16T12:56:08Z</time>
      </trkpt>
      <trkpt lat="44.40163" lon="4.1284">
        <ele>274.11</ele>
        <time>2013-10-16T12:56:09Z</time>
      </trkpt>
      <trkpt lat="44.40161" lon="4.12828">
        <ele>273.15</ele>
        <time>2013-10-16T12:56:10Z</time>
      </trkpt>
      <trkpt lat="44.40162" lon="4.12816">
        <ele>272.67</ele>
        <time>2013-10-16T12:56:11Z</time>
      </trkpt>
      <trkpt lat="44.40164" lon="4.12805">
        <ele>272.67</ele>
        <time>2013-10-16T12:56:12Z</time>
      </trkpt>
      <trkpt lat="44.40169" lon="4.12795">
        <ele>272.19</ele>
        <time>2013-10-16T12:56:13Z</time>
      </trkpt>
      <trkpt lat="44.40176" lon="4.12786">
        <ele>272.19</ele>
        <time>2013-10-16T12:56:14Z</time>
      </trkpt>
      <trkpt lat="44.40183" lon="4.12778">
        <ele>271.23</ele>
        <time>2013-10-16T12:56:15Z</time>
      </trkpt>
      <trkpt lat="44.40189" lon="4.12769">
        <ele>270.27</ele>
        <time>2013-10-16T12:56:16Z</time>
      </trkpt>
      <trkpt lat="44.40195" lon="4.12758">
        <ele>269.79</ele>
        <time>2013-10-16T12:56:17Z</time>
      </trkpt>
      <trkpt lat="44.40199" lon="4.12747">
        <ele>269.31</ele>
        <time>2013-10-16T12:56:18Z</time>
      </trkpt>
      <trkpt lat="44.40202" lon="4.12734">
        <ele>269.31</ele>
        <time>2013-10-16T12:56:19Z</time>
      </trkpt>
      <trkpt lat="44.40204" lon="4.12721">
        <ele>268.83</ele>
        <time>2013-10-16T12:56:20Z</time>
      </trkpt>
      <trkpt lat="44.40205" lon="4.12708">
        <ele>267.38</ele>
        <time>2013-10-16T12:56:21Z</time>
      </trkpt>
      <trkpt lat="44.40206" lon="4.12694">
        <ele>267.38</ele>
        <time>2013-10-16T12:56:22Z</time>
      </trkpt>
      <trkpt lat="44.40206" lon="4.12682">
        <ele>268.35</ele>
        <time>2013-10-16T12:56:23Z</time>
      </trkpt>
      <trkpt lat="44.40204" lon="4.1267">
        <ele>268.83</ele>
        <time>2013-10-16T12:56:24Z</time>
      </trkpt>
      <trkpt lat="44.40203" lon="4.12658">
        <ele>267.38</ele>
        <time>2013-10-16T12:56:25Z</time>
      </trkpt>
      <trkpt lat="44.402" lon="4.12647">
        <ele>266.42</ele>
        <time>2013-10-16T12:56:26Z</time>
      </trkpt>
      <trkpt lat="44.40197" lon="4.12637">
        <ele>264.02</ele>
        <time>2013-10-16T12:56:27Z</time>
      </trkpt>
      <trkpt lat="44.40193" lon="4.12627">
        <ele>263.54</ele>
        <time>2013-10-16T12:56:28Z</time>
      </trkpt>
      <trkpt lat="44.40189" lon="4.12618">
        <ele>262.58</ele>
        <time>2013-10-16T12:56:29Z</time>
      </trkpt>
      <trkpt lat="44.40174" lon="4.1259">
        <ele>260.17</ele>
        <time>2013-10-16T12:56:32Z</time>
      </trkpt>
      <trkpt lat="44.40163" lon="4.12574">
        <ele>259.21</ele>
        <time>2013-10-16T12:56:34Z</time>
      </trkpt>
      <trkpt lat="44.40157" lon="4.12566">
        <ele>258.73</ele>
        <time>2013-10-16T12:56:35Z</time>
      </trkpt>
      <trkpt lat="44.4015" lon="4.12559">
        <ele>257.77</ele>
        <time>2013-10-16T12:56:36Z</time>
      </trkpt>
      <trkpt lat="44.40143" lon="4.12552">
        <ele>257.77</ele>
        <time>2013-10-16T12:56:37Z</time>
      </trkpt>
      <trkpt lat="44.40129" lon="4.12541">
        <ele>256.33</ele>
        <time>2013-10-16T12:56:39Z</time>
      </trkpt>
      <trkpt lat="44.40121" lon="4.12536">
        <ele>255.85</ele>
        <time>2013-10-16T12:56:40Z</time>
      </trkpt>
      <trkpt lat="44.40114" lon="4.12532">
        <ele>255.85</ele>
        <time>2013-10-16T12:56:41Z</time>
      </trkpt>
      <trkpt lat="44.4011" lon="4.12526">
        <ele>254.41</ele>
        <time>2013-10-16T12:56:42Z</time>
      </trkpt>
      <trkpt lat="44.40111" lon="4.12521">
        <ele>253.44</ele>
        <time>2013-10-16T12:56:43Z</time>
      </trkpt>
      <trkpt lat="44.40113" lon="4.12518">
        <ele>252.96</ele>
        <time>2013-10-16T12:56:44Z</time>
      </trkpt>
      <trkpt lat="44.40118" lon="4.12519">
        <ele>252.48</ele>
        <time>2013-10-16T12:56:45Z</time>
      </trkpt>
      <trkpt lat="44.40123" lon="4.12522">
        <ele>252.48</ele>
        <time>2013-10-16T12:56:46Z</time>
      </trkpt>
      <trkpt lat="44.40129" lon="4.12525">
        <ele>252</ele>
        <time>2013-10-16T12:56:47Z</time>
      </trkpt>
      <trkpt lat="44.40169" lon="4.12552">
        <ele>248.64</ele>
        <time>2013-10-16T12:56:53Z</time>
      </trkpt>
      <trkpt lat="44.40176" lon="4.12558">
        <ele>248.16</ele>
        <time>2013-10-16T12:56:54Z</time>
      </trkpt>
      <trkpt lat="44.4022" lon="4.12609">
        <ele>245.27</ele>
        <time>2013-10-16T12:57:00Z</time>
      </trkpt>
      <trkpt lat="44.40233" lon="4.12632">
        <ele>243.83</ele>
        <time>2013-10-16T12:57:02Z</time>
      </trkpt>
      <trkpt lat="44.40239" lon="4.12645">
        <ele>243.83</ele>
        <time>2013-10-16T12:57:03Z</time>
      </trkpt>
      <trkpt lat="44.40244" lon="4.12659">
        <ele>243.35</ele>
        <time>2013-10-16T12:57:04Z</time>
      </trkpt>
      <trkpt lat="44.40248" lon="4.12673">
        <ele>242.39</ele>
        <time>2013-10-16T12:57:05Z</time>
      </trkpt>
      <trkpt lat="44.40251" lon="4.12689">
        <ele>241.91</ele>
        <time>2013-10-16T12:57:06Z</time>
      </trkpt>
      <trkpt lat="44.40253" lon="4.12705">
        <ele>241.91</ele>
        <time>2013-10-16T12:57:07Z</time>
      </trkpt>
      <trkpt lat="44.40254" lon="4.12721">
        <ele>241.43</ele>
        <time>2013-10-16T12:57:08Z</time>
      </trkpt>
      <trkpt lat="44.40255" lon="4.12755">
        <ele>239.51</ele>
        <time>2013-10-16T12:57:10Z</time>
      </trkpt>
      <trkpt lat="44.40251" lon="4.1277">
        <ele>238.54</ele>
        <time>2013-10-16T12:57:11Z</time>
      </trkpt>
      <trkpt lat="44.40246" lon="4.12785">
        <ele>237.58</ele>
        <time>2013-10-16T12:57:12Z</time>
      </trkpt>
      <trkpt lat="44.40241" lon="4.128">
        <ele>237.1</ele>
        <time>2013-10-16T12:57:13Z</time>
      </trkpt>
      <trkpt lat="44.4024" lon="4.12814">
        <ele>236.62</ele>
        <time>2013-10-16T12:57:14Z</time>
      </trkpt>
      <trkpt lat="44.40243" lon="4.12827">
        <ele>236.14</ele>
        <time>2013-10-16T12:57:15Z</time>
      </trkpt>
      <trkpt lat="44.40248" lon="4.12837">
        <ele>235.66</ele>
        <time>2013-10-16T12:57:16Z</time>
      </trkpt>
      <trkpt lat="44.40255" lon="4.12845">
        <ele>235.18</ele>
        <time>2013-10-16T12:57:17Z</time>
      </trkpt>
      <trkpt lat="44.40262" lon="4.12854">
        <ele>234.7</ele>
        <time>2013-10-16T12:57:18Z</time>
      </trkpt>
      <trkpt lat="44.40275" lon="4.12873">
        <ele>231.33</ele>
        <time>2013-10-16T12:57:20Z</time>
      </trkpt>
      <trkpt lat="44.40304" lon="4.12932">
        <ele>228.45</ele>
        <time>2013-10-16T12:57:25Z</time>
      </trkpt>
      <trkpt lat="44.40324" lon="4.12982">
        <ele>225.57</ele>
        <time>2013-10-16T12:57:29Z</time>
      </trkpt>
      <trkpt lat="44.40326" lon="4.12996">
        <ele>225.57</ele>
        <time>2013-10-16T12:57:30Z</time>
      </trkpt>
      <trkpt lat="44.40335" lon="4.13053">
        <ele>223.16</ele>
        <time>2013-10-16T12:57:34Z</time>
      </trkpt>
      <trkpt lat="44.40342" lon="4.13097">
        <ele>220.28</ele>
        <time>2013-10-16T12:57:37Z</time>
      </trkpt>
      <trkpt lat="44.40343" lon="4.13112">
        <ele>220.28</ele>
        <time>2013-10-16T12:57:38Z</time>
      </trkpt>
      <trkpt lat="44.40341" lon="4.13127">
        <ele>219.32</ele>
        <time>2013-10-16T12:57:39Z</time>
      </trkpt>
      <trkpt lat="44.40336" lon="4.1314">
        <ele>219.32</ele>
        <time>2013-10-16T12:57:40Z</time>
      </trkpt>
      <trkpt lat="44.4033" lon="4.13153">
        <ele>218.36</ele>
        <time>2013-10-16T12:57:41Z</time>
      </trkpt>
      <trkpt lat="44.40324" lon="4.13165">
        <ele>218.36</ele>
        <time>2013-10-16T12:57:42Z</time>
      </trkpt>
      <trkpt lat="44.40304" lon="4.13201">
        <ele>215.47</ele>
        <time>2013-10-16T12:57:45Z</time>
      </trkpt>
      <trkpt lat="44.40272" lon="4.13261">
        <ele>211.63</ele>
        <time>2013-10-16T12:57:50Z</time>
      </trkpt>
      <trkpt lat="44.40267" lon="4.13272">
        <ele>211.63</ele>
        <time>2013-10-16T12:57:51Z</time>
      </trkpt>
      <trkpt lat="44.40266" lon="4.13284">
        <ele>210.67</ele>
        <time>2013-10-16T12:57:52Z</time>
      </trkpt>
      <trkpt lat="44.40268" lon="4.13295">
        <ele>209.7</ele>
        <time>2013-10-16T12:57:53Z</time>
      </trkpt>
      <trkpt lat="44.40273" lon="4.13303">
        <ele>209.7</ele>
        <time>2013-10-16T12:57:54Z</time>
      </trkpt>
      <trkpt lat="44.4028" lon="4.13309">
        <ele>209.22</ele>
        <time>2013-10-16T12:57:55Z</time>
      </trkpt>
      <trkpt lat="44.40288" lon="4.13313">
        <ele>208.74</ele>
        <time>2013-10-16T12:57:56Z</time>
      </trkpt>
      <trkpt lat="44.40295" lon="4.13316">
        <ele>207.78</ele>
        <time>2013-10-16T12:57:57Z</time>
      </trkpt>
      <trkpt lat="44.40303" lon="4.13317">
        <ele>207.78</ele>
        <time>2013-10-16T12:57:58Z</time>
      </trkpt>
      <trkpt lat="44.40311" lon="4.13316">
        <ele>206.82</ele>
        <time>2013-10-16T12:57:59Z</time>
      </trkpt>
      <trkpt lat="44.40318" lon="4.13314">
        <ele>205.86</ele>
        <time>2013-10-16T12:58:00Z</time>
      </trkpt>
      <trkpt lat="44.40376" lon="4.13292">
        <ele>202.01</ele>
        <time>2013-10-16T12:58:08Z</time>
      </trkpt>
      <trkpt lat="44.40383" lon="4.13289">
        <ele>201.53</ele>
        <time>2013-10-16T12:58:09Z</time>
      </trkpt>
      <trkpt lat="44.40394" lon="4.13285">
        <ele>201.05</ele>
        <time>2013-10-16T12:58:11Z</time>
      </trkpt>
      <trkpt lat="44.40411" lon="4.13283">
        <ele>198.65</ele>
        <time>2013-10-16T12:58:15Z</time>
      </trkpt>
      <trkpt lat="44.40415" lon="4.1328">
        <ele>198.65</ele>
        <time>2013-10-16T12:58:16Z</time>
      </trkpt>
      <trkpt lat="44.40423" lon="4.13273">
        <ele>198.17</ele>
        <time>2013-10-16T12:58:18Z</time>
      </trkpt>
      <trkpt lat="44.4044" lon="4.13252">
        <ele>197.21</ele>
        <time>2013-10-16T12:58:22Z</time>
      </trkpt>
      <trkpt lat="44.40445" lon="4.13247">
        <ele>197.21</ele>
        <time>2013-10-16T12:58:23Z</time>
      </trkpt>
      <trkpt lat="44.40449" lon="4.13241">
        <ele>196.73</ele>
        <time>2013-10-16T12:58:24Z</time>
      </trkpt>
      <trkpt lat="44.40453" lon="4.13233">
        <ele>196.73</ele>
        <time>2013-10-16T12:58:25Z</time>
      </trkpt>
      <trkpt lat="44.40456" lon="4.13226">
        <ele>196.73</ele>
        <time>2013-10-16T12:58:26Z</time>
      </trkpt>
      <trkpt lat="44.40469" lon="4.13191">
        <ele>194.32</ele>
        <time>2013-10-16T12:58:30Z</time>
      </trkpt>
      <trkpt lat="44.40484" lon="4.13133">
        <ele>190.96</ele>
        <time>2013-10-16T12:58:36Z</time>
      </trkpt>
      <trkpt lat="44.40488" lon="4.13117">
        <ele>189.04</ele>
        <time>2013-10-16T12:58:39Z</time>
      </trkpt>
      <trkpt lat="44.40491" lon="4.1311">
        <ele>189.52</ele>
        <time>2013-10-16T12:58:41Z</time>
      </trkpt>
      <trkpt lat="44.40493" lon="4.13109">
        <ele>189.52</ele>
        <time>2013-10-16T12:58:42Z</time>
      </trkpt>
      <trkpt lat="44.40496" lon="4.1311">
        <ele>189.04</ele>
        <time>2013-10-16T12:58:43Z</time>
      </trkpt>
      <trkpt lat="44.405" lon="4.13112">
        <ele>189.04</ele>
        <time>2013-10-16T12:58:44Z</time>
      </trkpt>
      <trkpt lat="44.40505" lon="4.13112">
        <ele>189.52</ele>
        <time>2013-10-16T12:58:45Z</time>
      </trkpt>
      <trkpt lat="44.4051" lon="4.13111">
        <ele>189.52</ele>
        <time>2013-10-16T12:58:46Z</time>
      </trkpt>
      <trkpt lat="44.40515" lon="4.13111">
        <ele>189.52</ele>
        <time>2013-10-16T12:58:47Z</time>
      </trkpt>
      <trkpt lat="44.40548" lon="4.13104">
        <ele>188.08</ele>
        <time>2013-10-16T12:58:53Z</time>
      </trkpt>
      <trkpt lat="44.40554" lon="4.13105">
        <ele>188.08</ele>
        <time>2013-10-16T12:58:54Z</time>
      </trkpt>
      <trkpt lat="44.40558" lon="4.13108">
        <ele>188.08</ele>
        <time>2013-10-16T12:58:55Z</time>
      </trkpt>
      <trkpt lat="44.40562" lon="4.13113">
        <ele>188.56</ele>
        <time>2013-10-16T12:58:56Z</time>
      </trkpt>
      <trkpt lat="44.40566" lon="4.13119">
        <ele>188.56</ele>
        <time>2013-10-16T12:58:57Z</time>
      </trkpt>
      <trkpt lat="44.40595" lon="4.13197">
        <ele>187.11</ele>
        <time>2013-10-16T12:59:08Z</time>
      </trkpt>
      <trkpt lat="44.40597" lon="4.13226">
        <ele>185.67</ele>
        <time>2013-10-16T12:59:15Z</time>
      </trkpt>
      <trkpt lat="44.40598" lon="4.1323">
        <ele>185.19</ele>
        <time>2013-10-16T12:59:16Z</time>
      </trkpt>
      <trkpt lat="44.406" lon="4.13233">
        <ele>185.67</ele>
        <time>2013-10-16T12:59:17Z</time>
      </trkpt>
      <trkpt lat="44.40603" lon="4.13235">
        <ele>186.15</ele>
        <time>2013-10-16T12:59:18Z</time>
      </trkpt>
      <trkpt lat="44.40605" lon="4.13237">
        <ele>186.15</ele>
        <time>2013-10-16T12:59:19Z</time>
      </trkpt>
      <trkpt lat="44.40626" lon="4.13262">
        <ele>187.11</ele>
        <time>2013-10-16T12:59:27Z</time>
      </trkpt>
      <trkpt lat="44.4066" lon="4.13312">
        <ele>189.52</ele>
        <time>2013-10-16T12:59:41Z</time>
      </trkpt>
      <trkpt lat="44.40688" lon="4.13378">
        <ele>191.92</ele>
        <time>2013-10-16T12:59:54Z</time>
      </trkpt>
      <trkpt lat="44.40706" lon="4.1345">
        <ele>193.84</ele>
        <time>2013-10-16T13:00:08Z</time>
      </trkpt>
      <trkpt lat="44.40723" lon="4.13521">
        <ele>195.28</ele>
        <time>2013-10-16T13:00:21Z</time>
      </trkpt>
      <trkpt lat="44.40727" lon="4.13544">
        <ele>195.77</ele>
        <time>2013-10-16T13:00:25Z</time>
      </trkpt>
      <trkpt lat="44.40728" lon="4.1355">
        <ele>195.77</ele>
        <time>2013-10-16T13:00:26Z</time>
      </trkpt>
      <trkpt lat="44.4073" lon="4.13562">
        <ele>195.77</ele>
        <time>2013-10-16T13:00:28Z</time>
      </trkpt>
      <trkpt lat="44.40732" lon="4.13568">
        <ele>196.25</ele>
        <time>2013-10-16T13:00:29Z</time>
      </trkpt>
      <trkpt lat="44.40735" lon="4.1358">
        <ele>196.25</ele>
        <time>2013-10-16T13:00:31Z</time>
      </trkpt>
      <trkpt lat="44.40764" lon="4.13679">
        <ele>195.77</ele>
        <time>2013-10-16T13:00:45Z</time>
      </trkpt>
      <trkpt lat="44.40803" lon="4.13761">
        <ele>194.32</ele>
        <time>2013-10-16T13:00:55Z</time>
      </trkpt>
      <trkpt lat="44.40808" lon="4.13767">
        <ele>193.84</ele>
        <time>2013-10-16T13:00:56Z</time>
      </trkpt>
      <trkpt lat="44.40814" lon="4.13772">
        <ele>193.84</ele>
        <time>2013-10-16T13:00:57Z</time>
      </trkpt>
      <trkpt lat="44.40821" lon="4.13777">
        <ele>193.36</ele>
        <time>2013-10-16T13:00:58Z</time>
      </trkpt>
      <trkpt lat="44.40828" lon="4.1378">
        <ele>193.36</ele>
        <time>2013-10-16T13:00:59Z</time>
      </trkpt>
      <trkpt lat="44.40836" lon="4.13781">
        <ele>192.88</ele>
        <time>2013-10-16T13:01:00Z</time>
      </trkpt>
      <trkpt lat="44.40843" lon="4.13783">
        <ele>192.4</ele>
        <time>2013-10-16T13:01:01Z</time>
      </trkpt>
      <trkpt lat="44.40851" lon="4.13783">
        <ele>192.88</ele>
        <time>2013-10-16T13:01:02Z</time>
      </trkpt>
      <trkpt lat="44.40901" lon="4.13784">
        <ele>190</ele>
        <time>2013-10-16T13:01:08Z</time>
      </trkpt>
      <trkpt lat="44.4091" lon="4.13787">
        <ele>189.52</ele>
        <time>2013-10-16T13:01:09Z</time>
      </trkpt>
      <trkpt lat="44.40918" lon="4.1379">
        <ele>189.52</ele>
        <time>2013-10-16T13:01:10Z</time>
      </trkpt>
      <trkpt lat="44.40936" lon="4.13798">
        <ele>188.08</ele>
        <time>2013-10-16T13:01:12Z</time>
      </trkpt>
      <trkpt lat="44.41008" lon="4.13831">
        <ele>185.19</ele>
        <time>2013-10-16T13:01:20Z</time>
      </trkpt>
      <trkpt lat="44.41072" lon="4.13859">
        <ele>182.31</ele>
        <time>2013-10-16T13:01:27Z</time>
      </trkpt>
      <trkpt lat="44.41091" lon="4.13869">
        <ele>180.87</ele>
        <time>2013-10-16T13:01:29Z</time>
      </trkpt>
      <trkpt lat="44.41101" lon="4.13874">
        <ele>180.38</ele>
        <time>2013-10-16T13:01:30Z</time>
      </trkpt>
      <trkpt lat="44.41131" lon="4.13889">
        <ele>178.94</ele>
        <time>2013-10-16T13:01:33Z</time>
      </trkpt>
      <trkpt lat="44.41229" lon="4.13967">
        <ele>176.06</ele>
        <time>2013-10-16T13:01:44Z</time>
      </trkpt>
      <trkpt lat="44.41301" lon="4.1408">
        <ele>173.66</ele>
        <time>2013-10-16T13:01:56Z</time>
      </trkpt>
      <trkpt lat="44.41373" lon="4.14198">
        <ele>172.21</ele>
        <time>2013-10-16T13:02:11Z</time>
      </trkpt>
      <trkpt lat="44.41376" lon="4.14205">
        <ele>172.21</ele>
        <time>2013-10-16T13:02:12Z</time>
      </trkpt>
      <trkpt lat="44.41378" lon="4.14214">
        <ele>171.73</ele>
        <time>2013-10-16T13:02:13Z</time>
      </trkpt>
      <trkpt lat="44.4138" lon="4.14222">
        <ele>171.73</ele>
        <time>2013-10-16T13:02:14Z</time>
      </trkpt>
      <trkpt lat="44.41382" lon="4.1423">
        <ele>171.73</ele>
        <time>2013-10-16T13:02:15Z</time>
      </trkpt>
      <trkpt lat="44.41385" lon="4.14238">
        <ele>171.73</ele>
        <time>2013-10-16T13:02:16Z</time>
      </trkpt>
      <trkpt lat="44.41388" lon="4.14247">
        <ele>171.73</ele>
        <time>2013-10-16T13:02:17Z</time>
      </trkpt>
      <trkpt lat="44.41389" lon="4.14256">
        <ele>171.73</ele>
        <time>2013-10-16T13:02:18Z</time>
      </trkpt>
      <trkpt lat="44.41389" lon="4.14266">
        <ele>171.73</ele>
        <time>2013-10-16T13:02:19Z</time>
      </trkpt>
      <trkpt lat="44.41389" lon="4.14275">
        <ele>171.25</ele>
        <time>2013-10-16T13:02:20Z</time>
      </trkpt>
      <trkpt lat="44.41388" lon="4.14285">
        <ele>170.77</ele>
        <time>2013-10-16T13:02:21Z</time>
      </trkpt>
      <trkpt lat="44.41379" lon="4.14419">
        <ele>169.33</ele>
        <time>2013-10-16T13:02:34Z</time>
      </trkpt>
      <trkpt lat="44.41373" lon="4.14517">
        <ele>169.33</ele>
        <time>2013-10-16T13:02:44Z</time>
      </trkpt>
      <trkpt lat="44.41365" lon="4.14597">
        <ele>166.45</ele>
        <time>2013-10-16T13:02:52Z</time>
      </trkpt>
      <trkpt lat="44.41371" lon="4.14726">
        <ele>165.96</ele>
        <time>2013-10-16T13:03:04Z</time>
      </trkpt>
      <trkpt lat="44.41379" lon="4.14852">
        <ele>164.52</ele>
        <time>2013-10-16T13:03:17Z</time>
      </trkpt>
      <trkpt lat="44.4138" lon="4.1486">
        <ele>164.52</ele>
        <time>2013-10-16T13:03:18Z</time>
      </trkpt>
      <trkpt lat="44.41385" lon="4.14876">
        <ele>164.04</ele>
        <time>2013-10-16T13:03:20Z</time>
      </trkpt>
      <trkpt lat="44.41388" lon="4.14883">
        <ele>164.04</ele>
        <time>2013-10-16T13:03:21Z</time>
      </trkpt>
      <trkpt lat="44.41391" lon="4.1489">
        <ele>164.52</ele>
        <time>2013-10-16T13:03:22Z</time>
      </trkpt>
      <trkpt lat="44.41395" lon="4.14897">
        <ele>164.52</ele>
        <time>2013-10-16T13:03:23Z</time>
      </trkpt>
      <trkpt lat="44.41399" lon="4.14904">
        <ele>164.52</ele>
        <time>2013-10-16T13:03:24Z</time>
      </trkpt>
      <trkpt lat="44.41403" lon="4.1491">
        <ele>164.52</ele>
        <time>2013-10-16T13:03:25Z</time>
      </trkpt>
      <trkpt lat="44.41407" lon="4.14915">
        <ele>164.52</ele>
        <time>2013-10-16T13:03:26Z</time>
      </trkpt>
      <trkpt lat="44.41468" lon="4.15002">
        <ele>163.08</ele>
        <time>2013-10-16T13:03:41Z</time>
      </trkpt>
      <trkpt lat="44.41471" lon="4.1501">
        <ele>163.08</ele>
        <time>2013-10-16T13:03:42Z</time>
      </trkpt>
      <trkpt lat="44.41474" lon="4.15027">
        <ele>163.08</ele>
        <time>2013-10-16T13:03:44Z</time>
      </trkpt>
      <trkpt lat="44.41475" lon="4.15045">
        <ele>163.56</ele>
        <time>2013-10-16T13:03:46Z</time>
      </trkpt>
      <trkpt lat="44.41475" lon="4.15054">
        <ele>163.08</ele>
        <time>2013-10-16T13:03:47Z</time>
      </trkpt>
      <trkpt lat="44.41474" lon="4.15073">
        <ele>163.56</ele>
        <time>2013-10-16T13:03:49Z</time>
      </trkpt>
      <trkpt lat="44.41472" lon="4.15082">
        <ele>163.56</ele>
        <time>2013-10-16T13:03:50Z</time>
      </trkpt>
      <trkpt lat="44.4147" lon="4.15091">
        <ele>163.08</ele>
        <time>2013-10-16T13:03:51Z</time>
      </trkpt>
      <trkpt lat="44.41441" lon="4.1517">
        <ele>163.08</ele>
        <time>2013-10-16T13:04:00Z</time>
      </trkpt>
      <trkpt lat="44.41439" lon="4.15179">
        <ele>163.08</ele>
        <time>2013-10-16T13:04:01Z</time>
      </trkpt>
      <trkpt lat="44.41433" lon="4.15209">
        <ele>163.08</ele>
        <time>2013-10-16T13:04:04Z</time>
      </trkpt>
      <trkpt lat="44.41433" lon="4.15219">
        <ele>162.6</ele>
        <time>2013-10-16T13:04:05Z</time>
      </trkpt>
      <trkpt lat="44.41433" lon="4.15229">
        <ele>162.6</ele>
        <time>2013-10-16T13:04:06Z</time>
      </trkpt>
      <trkpt lat="44.41434" lon="4.15239">
        <ele>162.12</ele>
        <time>2013-10-16T13:04:07Z</time>
      </trkpt>
      <trkpt lat="44.41435" lon="4.15249">
        <ele>162.12</ele>
        <time>2013-10-16T13:04:08Z</time>
      </trkpt>
      <trkpt lat="44.41436" lon="4.15258">
        <ele>161.64</ele>
        <time>2013-10-16T13:04:09Z</time>
      </trkpt>
      <trkpt lat="44.41472" lon="4.15377">
        <ele>160.68</ele>
        <time>2013-10-16T13:04:21Z</time>
      </trkpt>
      <trkpt lat="44.41531" lon="4.1546">
        <ele>162.12</ele>
        <time>2013-10-16T13:04:34Z</time>
      </trkpt>
      <trkpt lat="44.41596" lon="4.15533">
        <ele>163.56</ele>
        <time>2013-10-16T13:04:50Z</time>
      </trkpt>
      <trkpt lat="44.41641" lon="4.1559">
        <ele>163.08</ele>
        <time>2013-10-16T13:05:01Z</time>
      </trkpt>
      <trkpt lat="44.41644" lon="4.15597">
        <ele>163.08</ele>
        <time>2013-10-16T13:05:02Z</time>
      </trkpt>
      <trkpt lat="44.41647" lon="4.15603">
        <ele>163.08</ele>
        <time>2013-10-16T13:05:03Z</time>
      </trkpt>
      <trkpt lat="44.4165" lon="4.15611">
        <ele>163.08</ele>
        <time>2013-10-16T13:05:04Z</time>
      </trkpt>
      <trkpt lat="44.41652" lon="4.15619">
        <ele>163.08</ele>
        <time>2013-10-16T13:05:05Z</time>
      </trkpt>
      <trkpt lat="44.41652" lon="4.15628">
        <ele>162.6</ele>
        <time>2013-10-16T13:05:06Z</time>
      </trkpt>
      <trkpt lat="44.41652" lon="4.15636">
        <ele>162.6</ele>
        <time>2013-10-16T13:05:07Z</time>
      </trkpt>
      <trkpt lat="44.4165" lon="4.15645">
        <ele>162.6</ele>
        <time>2013-10-16T13:05:08Z</time>
      </trkpt>
      <trkpt lat="44.41647" lon="4.15653">
        <ele>162.6</ele>
        <time>2013-10-16T13:05:09Z</time>
      </trkpt>
      <trkpt lat="44.41644" lon="4.1566">
        <ele>162.6</ele>
        <time>2013-10-16T13:05:10Z</time>
      </trkpt>
      <trkpt lat="44.41641" lon="4.15667">
        <ele>162.6</ele>
        <time>2013-10-16T13:05:11Z</time>
      </trkpt>
      <trkpt lat="44.41637" lon="4.15673">
        <ele>162.12</ele>
        <time>2013-10-16T13:05:12Z</time>
      </trkpt>
      <trkpt lat="44.41633" lon="4.15681">
        <ele>162.12</ele>
        <time>2013-10-16T13:05:13Z</time>
      </trkpt>
      <trkpt lat="44.41576" lon="4.15789">
        <ele>160.68</ele>
        <time>2013-10-16T13:05:28Z</time>
      </trkpt>
      <trkpt lat="44.41572" lon="4.15797">
        <ele>160.68</ele>
        <time>2013-10-16T13:05:29Z</time>
      </trkpt>
      <trkpt lat="44.41565" lon="4.15812">
        <ele>161.16</ele>
        <time>2013-10-16T13:05:31Z</time>
      </trkpt>
      <trkpt lat="44.41561" lon="4.15819">
        <ele>161.16</ele>
        <time>2013-10-16T13:05:32Z</time>
      </trkpt>
      <trkpt lat="44.41531" lon="4.15921">
        <ele>159.72</ele>
        <time>2013-10-16T13:05:44Z</time>
      </trkpt>
      <trkpt lat="44.41527" lon="4.15948">
        <ele>159.72</ele>
        <time>2013-10-16T13:05:47Z</time>
      </trkpt>
      <trkpt lat="44.41526" lon="4.16086">
        <ele>158.75</ele>
        <time>2013-10-16T13:06:00Z</time>
      </trkpt>
      <trkpt lat="44.41539" lon="4.16253">
        <ele>159.72</ele>
        <time>2013-10-16T13:06:17Z</time>
      </trkpt>
      <trkpt lat="44.41541" lon="4.1628">
        <ele>158.75</ele>
        <time>2013-10-16T13:06:20Z</time>
      </trkpt>
      <trkpt lat="44.41552" lon="4.1642">
        <ele>157.79</ele>
        <time>2013-10-16T13:06:35Z</time>
      </trkpt>
      <trkpt lat="44.41565" lon="4.16583">
        <ele>155.87</ele>
        <time>2013-10-16T13:06:52Z</time>
      </trkpt>
      <trkpt lat="44.41583" lon="4.16775">
        <ele>156.83</ele>
        <time>2013-10-16T13:07:12Z</time>
      </trkpt>
      <trkpt lat="44.41584" lon="4.16784">
        <ele>157.31</ele>
        <time>2013-10-16T13:07:13Z</time>
      </trkpt>
      <trkpt lat="44.41594" lon="4.16895">
        <ele>157.31</ele>
        <time>2013-10-16T13:07:25Z</time>
      </trkpt>
      <trkpt lat="44.41595" lon="4.1692">
        <ele>157.79</ele>
        <time>2013-10-16T13:07:28Z</time>
      </trkpt>
      <trkpt lat="44.41595" lon="4.16928">
        <ele>157.79</ele>
        <time>2013-10-16T13:07:29Z</time>
      </trkpt>
      <trkpt lat="44.41595" lon="4.16937">
        <ele>158.27</ele>
        <time>2013-10-16T13:07:30Z</time>
      </trkpt>
      <trkpt lat="44.41595" lon="4.16945">
        <ele>158.27</ele>
        <time>2013-10-16T13:07:31Z</time>
      </trkpt>
      <trkpt lat="44.41594" lon="4.16953">
        <ele>158.75</ele>
        <time>2013-10-16T13:07:32Z</time>
      </trkpt>
      <trkpt lat="44.41593" lon="4.16961">
        <ele>158.75</ele>
        <time>2013-10-16T13:07:33Z</time>
      </trkpt>
      <trkpt lat="44.41588" lon="4.17004">
        <ele>160.2</ele>
        <time>2013-10-16T13:07:39Z</time>
      </trkpt>
      <trkpt lat="44.41587" lon="4.1701">
        <ele>160.2</ele>
        <time>2013-10-16T13:07:40Z</time>
      </trkpt>
      <trkpt lat="44.41585" lon="4.17016">
        <ele>160.2</ele>
        <time>2013-10-16T13:07:41Z</time>
      </trkpt>
      <trkpt lat="44.41566" lon="4.1708">
        <ele>161.64</ele>
        <time>2013-10-16T13:07:53Z</time>
      </trkpt>
      <trkpt lat="44.41552" lon="4.17149">
        <ele>164.52</ele>
        <time>2013-10-16T13:08:05Z</time>
      </trkpt>
      <trkpt lat="44.41552" lon="4.17155">
        <ele>164.52</ele>
        <time>2013-10-16T13:08:06Z</time>
      </trkpt>
      <trkpt lat="44.41551" lon="4.17167">
        <ele>165</ele>
        <time>2013-10-16T13:08:08Z</time>
      </trkpt>
      <trkpt lat="44.41551" lon="4.17173">
        <ele>165</ele>
        <time>2013-10-16T13:08:09Z</time>
      </trkpt>
      <trkpt lat="44.41551" lon="4.17178">
        <ele>165</ele>
        <time>2013-10-16T13:08:10Z</time>
      </trkpt>
      <trkpt lat="44.41552" lon="4.17197">
        <ele>165</ele>
        <time>2013-10-16T13:08:13Z</time>
      </trkpt>
      <trkpt lat="44.41553" lon="4.17203">
        <ele>165.48</ele>
        <time>2013-10-16T13:08:14Z</time>
      </trkpt>
      <trkpt lat="44.4157" lon="4.17293">
        <ele>168.37</ele>
        <time>2013-10-16T13:08:31Z</time>
      </trkpt>
      <trkpt lat="44.41584" lon="4.17369">
        <ele>170.29</ele>
        <time>2013-10-16T13:08:45Z</time>
      </trkpt>
      <trkpt lat="44.41595" lon="4.17398">
        <ele>170.77</ele>
        <time>2013-10-16T13:08:51Z</time>
      </trkpt>
      <trkpt lat="44.41598" lon="4.17402">
        <ele>170.77</ele>
        <time>2013-10-16T13:08:52Z</time>
      </trkpt>
      <trkpt lat="44.41602" lon="4.17406">
        <ele>170.77</ele>
        <time>2013-10-16T13:08:53Z</time>
      </trkpt>
      <trkpt lat="44.41607" lon="4.1741">
        <ele>170.29</ele>
        <time>2013-10-16T13:08:54Z</time>
      </trkpt>
      <trkpt lat="44.41612" lon="4.17414">
        <ele>169.81</ele>
        <time>2013-10-16T13:08:55Z</time>
      </trkpt>
      <trkpt lat="44.41618" lon="4.17419">
        <ele>169.33</ele>
        <time>2013-10-16T13:08:56Z</time>
      </trkpt>
      <trkpt lat="44.41624" lon="4.17424">
        <ele>169.33</ele>
        <time>2013-10-16T13:08:57Z</time>
      </trkpt>
      <trkpt lat="44.4163" lon="4.17431">
        <ele>168.85</ele>
        <time>2013-10-16T13:08:58Z</time>
      </trkpt>
      <trkpt lat="44.41646" lon="4.17454">
        <ele>166.93</ele>
        <time>2013-10-16T13:09:01Z</time>
      </trkpt>
      <trkpt lat="44.41669" lon="4.17482">
        <ele>165.96</ele>
        <time>2013-10-16T13:09:05Z</time>
      </trkpt>
      <trkpt lat="44.41672" lon="4.17489">
        <ele>165.48</ele>
        <time>2013-10-16T13:09:06Z</time>
      </trkpt>
      <trkpt lat="44.41676" lon="4.17496">
        <ele>165.48</ele>
        <time>2013-10-16T13:09:07Z</time>
      </trkpt>
      <trkpt lat="44.41678" lon="4.17503">
        <ele>165.48</ele>
        <time>2013-10-16T13:09:08Z</time>
      </trkpt>
      <trkpt lat="44.4168" lon="4.1751">
        <ele>165</ele>
        <time>2013-10-16T13:09:09Z</time>
      </trkpt>
      <trkpt lat="44.41685" lon="4.17522">
        <ele>165.96</ele>
        <time>2013-10-16T13:09:11Z</time>
      </trkpt>
      <trkpt lat="44.41731" lon="4.17582">
        <ele>165.96</ele>
        <time>2013-10-16T13:09:24Z</time>
      </trkpt>
      <trkpt lat="44.41801" lon="4.17638">
        <ele>163.56</ele>
        <time>2013-10-16T13:09:38Z</time>
      </trkpt>
      <trkpt lat="44.41807" lon="4.17643">
        <ele>163.56</ele>
        <time>2013-10-16T13:09:39Z</time>
      </trkpt>
      <trkpt lat="44.41813" lon="4.1765">
        <ele>163.56</ele>
        <time>2013-10-16T13:09:40Z</time>
      </trkpt>
      <trkpt lat="44.41818" lon="4.17657">
        <ele>163.08</ele>
        <time>2013-10-16T13:09:41Z</time>
      </trkpt>
      <trkpt lat="44.41848" lon="4.17703">
        <ele>161.64</ele>
        <time>2013-10-16T13:09:48Z</time>
      </trkpt>
      <trkpt lat="44.41856" lon="4.17712">
        <ele>161.64</ele>
        <time>2013-10-16T13:09:50Z</time>
      </trkpt>
      <trkpt lat="44.4186" lon="4.17715">
        <ele>161.64</ele>
        <time>2013-10-16T13:09:51Z</time>
      </trkpt>
      <trkpt lat="44.41865" lon="4.17718">
        <ele>161.64</ele>
        <time>2013-10-16T13:09:52Z</time>
      </trkpt>
      <trkpt lat="44.41869" lon="4.1772">
        <ele>161.64</ele>
        <time>2013-10-16T13:09:53Z</time>
      </trkpt>
      <trkpt lat="44.41873" lon="4.17722">
        <ele>161.64</ele>
        <time>2013-10-16T13:09:54Z</time>
      </trkpt>
      <trkpt lat="44.41877" lon="4.17723">
        <ele>161.64</ele>
        <time>2013-10-16T13:09:55Z</time>
      </trkpt>
      <trkpt lat="44.41915" lon="4.17748">
        <ele>163.56</ele>
        <time>2013-10-16T13:10:08Z</time>
      </trkpt>
      <trkpt lat="44.41922" lon="4.17783">
        <ele>165.48</ele>
        <time>2013-10-16T13:10:18Z</time>
      </trkpt>
      <trkpt lat="44.41933" lon="4.17836">
        <ele>167.89</ele>
        <time>2013-10-16T13:10:32Z</time>
      </trkpt>
      <trkpt lat="44.41944" lon="4.17876">
        <ele>170.29</ele>
        <time>2013-10-16T13:10:44Z</time>
      </trkpt>
      <trkpt lat="44.41954" lon="4.17922">
        <ele>173.17</ele>
        <time>2013-10-16T13:10:58Z</time>
      </trkpt>
      <trkpt lat="44.41953" lon="4.17955">
        <ele>176.54</ele>
        <time>2013-10-16T13:11:10Z</time>
      </trkpt>
      <trkpt lat="44.41949" lon="4.1799">
        <ele>179.42</ele>
        <time>2013-10-16T13:11:21Z</time>
      </trkpt>
      <trkpt lat="44.41946" lon="4.18025">
        <ele>182.79</ele>
        <time>2013-10-16T13:11:30Z</time>
      </trkpt>
      <trkpt lat="44.4194" lon="4.18077">
        <ele>185.67</ele>
        <time>2013-10-16T13:11:44Z</time>
      </trkpt>
      <trkpt lat="44.41942" lon="4.18133">
        <ele>188.56</ele>
        <time>2013-10-16T13:11:57Z</time>
      </trkpt>
      <trkpt lat="44.41918" lon="4.18178">
        <ele>191.44</ele>
        <time>2013-10-16T13:12:13Z</time>
      </trkpt>
      <trkpt lat="44.41889" lon="4.18211">
        <ele>194.32</ele>
        <time>2013-10-16T13:12:28Z</time>
      </trkpt>
      <trkpt lat="44.41885" lon="4.1822">
        <ele>195.28</ele>
        <time>2013-10-16T13:12:31Z</time>
      </trkpt>
      <trkpt lat="44.41889" lon="4.18241">
        <ele>196.73</ele>
        <time>2013-10-16T13:12:39Z</time>
      </trkpt>
      <trkpt lat="44.41892" lon="4.18239">
        <ele>197.21</ele>
        <time>2013-10-16T13:12:41Z</time>
      </trkpt>
      <trkpt lat="44.41907" lon="4.18216">
        <ele>198.17</ele>
        <time>2013-10-16T13:12:51Z</time>
      </trkpt>
      <trkpt lat="44.41944" lon="4.18191">
        <ele>200.57</ele>
        <time>2013-10-16T13:13:07Z</time>
      </trkpt>
      <trkpt lat="44.41978" lon="4.18186">
        <ele>202.01</ele>
        <time>2013-10-16T13:13:20Z</time>
      </trkpt>
      <trkpt lat="44.41995" lon="4.18218">
        <ele>204.9</ele>
        <time>2013-10-16T13:13:31Z</time>
      </trkpt>
      <trkpt lat="44.41988" lon="4.18234">
        <ele>205.38</ele>
        <time>2013-10-16T13:13:37Z</time>
      </trkpt>
      <trkpt lat="44.41957" lon="4.18254">
        <ele>208.74</ele>
        <time>2013-10-16T13:13:53Z</time>
      </trkpt>
      <trkpt lat="44.4193" lon="4.1827">
        <ele>212.11</ele>
        <time>2013-10-16T13:14:06Z</time>
      </trkpt>
      <trkpt lat="44.41909" lon="4.18286">
        <ele>215.47</ele>
        <time>2013-10-16T13:14:17Z</time>
      </trkpt>
      <trkpt lat="44.41879" lon="4.18315">
        <ele>218.84</ele>
        <time>2013-10-16T13:14:33Z</time>
      </trkpt>
      <trkpt lat="44.41852" lon="4.18342">
        <ele>221.72</ele>
        <time>2013-10-16T13:14:48Z</time>
      </trkpt>
      <trkpt lat="44.41826" lon="4.18357">
        <ele>223.64</ele>
        <time>2013-10-16T13:15:02Z</time>
      </trkpt>
      <trkpt lat="44.41796" lon="4.18364">
        <ele>226.53</ele>
        <time>2013-10-16T13:15:15Z</time>
      </trkpt>
      <trkpt lat="44.41767" lon="4.18373">
        <ele>229.89</ele>
        <time>2013-10-16T13:15:28Z</time>
      </trkpt>
      <trkpt lat="44.41752" lon="4.18405">
        <ele>229.89</ele>
        <time>2013-10-16T13:15:39Z</time>
      </trkpt>
      <trkpt lat="44.41744" lon="4.18412">
        <ele>230.85</ele>
        <time>2013-10-16T13:15:43Z</time>
      </trkpt>
      <trkpt lat="44.41708" lon="4.18405">
        <ele>233.74</ele>
        <time>2013-10-16T13:15:59Z</time>
      </trkpt>
      <trkpt lat="44.41665" lon="4.18391">
        <ele>237.1</ele>
        <time>2013-10-16T13:16:16Z</time>
      </trkpt>
      <trkpt lat="44.41626" lon="4.18391">
        <ele>239.02</ele>
        <time>2013-10-16T13:16:31Z</time>
      </trkpt>
      <trkpt lat="44.41589" lon="4.18422">
        <ele>239.99</ele>
        <time>2013-10-16T13:16:46Z</time>
      </trkpt>
      <trkpt lat="44.41566" lon="4.18404">
        <ele>241.43</ele>
        <time>2013-10-16T13:16:56Z</time>
      </trkpt>
      <trkpt lat="44.41551" lon="4.18362">
        <ele>241.91</ele>
        <time>2013-10-16T13:17:08Z</time>
      </trkpt>
      <trkpt lat="44.41539" lon="4.18308">
        <ele>243.35</ele>
        <time>2013-10-16T13:17:23Z</time>
      </trkpt>
      <trkpt lat="44.41517" lon="4.18246">
        <ele>243.83</ele>
        <time>2013-10-16T13:17:39Z</time>
      </trkpt>
      <trkpt lat="44.41512" lon="4.18188">
        <ele>245.27</ele>
        <time>2013-10-16T13:17:54Z</time>
      </trkpt>
      <trkpt lat="44.41491" lon="4.18151">
        <ele>247.2</ele>
        <time>2013-10-16T13:18:06Z</time>
      </trkpt>
      <trkpt lat="44.41456" lon="4.1814">
        <ele>250.56</ele>
        <time>2013-10-16T13:18:19Z</time>
      </trkpt>
      <trkpt lat="44.4142" lon="4.1814">
        <ele>252.48</ele>
        <time>2013-10-16T13:18:32Z</time>
      </trkpt>
      <trkpt lat="44.41402" lon="4.18159">
        <ele>252</ele>
        <time>2013-10-16T13:18:38Z</time>
      </trkpt>
      <trkpt lat="44.4139" lon="4.18178">
        <ele>252.48</ele>
        <time>2013-10-16T13:18:42Z</time>
      </trkpt>
      <trkpt lat="44.41384" lon="4.18188">
        <ele>252.48</ele>
        <time>2013-10-16T13:18:44Z</time>
      </trkpt>
      <trkpt lat="44.41379" lon="4.18199">
        <ele>252</ele>
        <time>2013-10-16T13:18:46Z</time>
      </trkpt>
      <trkpt lat="44.4137" lon="4.18214">
        <ele>252.48</ele>
        <time>2013-10-16T13:18:49Z</time>
      </trkpt>
      <trkpt lat="44.41319" lon="4.18308">
        <ele>253.44</ele>
        <time>2013-10-16T13:19:06Z</time>
      </trkpt>
      <trkpt lat="44.41305" lon="4.18334">
        <ele>253.93</ele>
        <time>2013-10-16T13:19:11Z</time>
      </trkpt>
      <trkpt lat="44.41303" lon="4.18339">
        <ele>253.93</ele>
        <time>2013-10-16T13:19:12Z</time>
      </trkpt>
      <trkpt lat="44.41257" lon="4.18431">
        <ele>254.41</ele>
        <time>2013-10-16T13:19:29Z</time>
      </trkpt>
      <trkpt lat="44.41255" lon="4.18438">
        <ele>254.41</ele>
        <time>2013-10-16T13:19:30Z</time>
      </trkpt>
      <trkpt lat="44.41253" lon="4.18446">
        <ele>254.41</ele>
        <time>2013-10-16T13:19:31Z</time>
      </trkpt>
      <trkpt lat="44.41252" lon="4.18455">
        <ele>253.93</ele>
        <time>2013-10-16T13:19:32Z</time>
      </trkpt>
      <trkpt lat="44.41252" lon="4.18464">
        <ele>253.93</ele>
        <time>2013-10-16T13:19:33Z</time>
      </trkpt>
      <trkpt lat="44.41252" lon="4.18473">
        <ele>253.93</ele>
        <time>2013-10-16T13:19:34Z</time>
      </trkpt>
      <trkpt lat="44.41254" lon="4.18482">
        <ele>253.93</ele>
        <time>2013-10-16T13:19:35Z</time>
      </trkpt>
      <trkpt lat="44.41256" lon="4.1849">
        <ele>253.44</ele>
        <time>2013-10-16T13:19:36Z</time>
      </trkpt>
      <trkpt lat="44.41259" lon="4.18499">
        <ele>252.96</ele>
        <time>2013-10-16T13:19:37Z</time>
      </trkpt>
      <trkpt lat="44.41282" lon="4.18561">
        <ele>251.04</ele>
        <time>2013-10-16T13:19:44Z</time>
      </trkpt>
      <trkpt lat="44.41286" lon="4.1857">
        <ele>250.56</ele>
        <time>2013-10-16T13:19:45Z</time>
      </trkpt>
      <trkpt lat="44.41288" lon="4.1858">
        <ele>250.08</ele>
        <time>2013-10-16T13:19:46Z</time>
      </trkpt>
      <trkpt lat="44.4129" lon="4.18592">
        <ele>249.12</ele>
        <time>2013-10-16T13:19:47Z</time>
      </trkpt>
      <trkpt lat="44.41292" lon="4.18604">
        <ele>248.64</ele>
        <time>2013-10-16T13:19:48Z</time>
      </trkpt>
      <trkpt lat="44.41292" lon="4.18616">
        <ele>248.16</ele>
        <time>2013-10-16T13:19:49Z</time>
      </trkpt>
      <trkpt lat="44.41292" lon="4.1863">
        <ele>247.2</ele>
        <time>2013-10-16T13:19:50Z</time>
      </trkpt>
      <trkpt lat="44.4129" lon="4.18643">
        <ele>247.2</ele>
        <time>2013-10-16T13:19:51Z</time>
      </trkpt>
      <trkpt lat="44.41288" lon="4.18655">
        <ele>247.68</ele>
        <time>2013-10-16T13:19:52Z</time>
      </trkpt>
      <trkpt lat="44.41287" lon="4.18667">
        <ele>247.68</ele>
        <time>2013-10-16T13:19:53Z</time>
      </trkpt>
      <trkpt lat="44.41284" lon="4.18677">
        <ele>248.16</ele>
        <time>2013-10-16T13:19:54Z</time>
      </trkpt>
      <trkpt lat="44.41282" lon="4.18687">
        <ele>248.64</ele>
        <time>2013-10-16T13:19:55Z</time>
      </trkpt>
      <trkpt lat="44.41278" lon="4.18706">
        <ele>249.12</ele>
        <time>2013-10-16T13:19:57Z</time>
      </trkpt>
      <trkpt lat="44.41276" lon="4.18714">
        <ele>249.6</ele>
        <time>2013-10-16T13:19:58Z</time>
      </trkpt>
      <trkpt lat="44.41275" lon="4.18723">
        <ele>250.08</ele>
        <time>2013-10-16T13:19:59Z</time>
      </trkpt>
      <trkpt lat="44.41271" lon="4.18752">
        <ele>250.56</ele>
        <time>2013-10-16T13:20:03Z</time>
      </trkpt>
      <trkpt lat="44.4127" lon="4.18759">
        <ele>251.04</ele>
        <time>2013-10-16T13:20:04Z</time>
      </trkpt>
      <trkpt lat="44.41268" lon="4.18773">
        <ele>251.04</ele>
        <time>2013-10-16T13:20:06Z</time>
      </trkpt>
      <trkpt lat="44.41266" lon="4.1878">
        <ele>251.52</ele>
        <time>2013-10-16T13:20:07Z</time>
      </trkpt>
      <trkpt lat="44.41265" lon="4.18787">
        <ele>251.52</ele>
        <time>2013-10-16T13:20:08Z</time>
      </trkpt>
      <trkpt lat="44.41244" lon="4.18911">
        <ele>252.48</ele>
        <time>2013-10-16T13:20:23Z</time>
      </trkpt>
      <trkpt lat="44.41222" lon="4.19041">
        <ele>251.04</ele>
        <time>2013-10-16T13:20:39Z</time>
      </trkpt>
      <trkpt lat="44.41215" lon="4.19131">
        <ele>253.44</ele>
        <time>2013-10-16T13:20:51Z</time>
      </trkpt>
      <trkpt lat="44.41216" lon="4.19138">
        <ele>253.44</ele>
        <time>2013-10-16T13:20:52Z</time>
      </trkpt>
      <trkpt lat="44.41218" lon="4.19144">
        <ele>253.93</ele>
        <time>2013-10-16T13:20:53Z</time>
      </trkpt>
      <trkpt lat="44.41221" lon="4.1915">
        <ele>253.93</ele>
        <time>2013-10-16T13:20:54Z</time>
      </trkpt>
      <trkpt lat="44.41224" lon="4.19154">
        <ele>254.89</ele>
        <time>2013-10-16T13:20:55Z</time>
      </trkpt>
      <trkpt lat="44.41229" lon="4.19157">
        <ele>254.89</ele>
        <time>2013-10-16T13:20:56Z</time>
      </trkpt>
      <trkpt lat="44.41233" lon="4.19161">
        <ele>255.37</ele>
        <time>2013-10-16T13:20:57Z</time>
      </trkpt>
      <trkpt lat="44.41305" lon="4.19214">
        <ele>254.89</ele>
        <time>2013-10-16T13:21:10Z</time>
      </trkpt>
      <trkpt lat="44.41342" lon="4.19246">
        <ele>256.81</ele>
        <time>2013-10-16T13:21:17Z</time>
      </trkpt>
      <trkpt lat="44.41345" lon="4.19251">
        <ele>256.81</ele>
        <time>2013-10-16T13:21:18Z</time>
      </trkpt>
      <trkpt lat="44.41348" lon="4.19258">
        <ele>257.29</ele>
        <time>2013-10-16T13:21:19Z</time>
      </trkpt>
      <trkpt lat="44.4135" lon="4.19266">
        <ele>256.81</ele>
        <time>2013-10-16T13:21:20Z</time>
      </trkpt>
      <trkpt lat="44.41352" lon="4.19274">
        <ele>256.81</ele>
        <time>2013-10-16T13:21:21Z</time>
      </trkpt>
      <trkpt lat="44.41355" lon="4.19333">
        <ele>255.37</ele>
        <time>2013-10-16T13:21:27Z</time>
      </trkpt>
      <trkpt lat="44.4135" lon="4.19367">
        <ele>253.93</ele>
        <time>2013-10-16T13:21:30Z</time>
      </trkpt>
      <trkpt lat="44.4135" lon="4.19379">
        <ele>253.44</ele>
        <time>2013-10-16T13:21:31Z</time>
      </trkpt>
      <trkpt lat="44.41352" lon="4.19391">
        <ele>252.96</ele>
        <time>2013-10-16T13:21:32Z</time>
      </trkpt>
      <trkpt lat="44.41357" lon="4.19401">
        <ele>252.96</ele>
        <time>2013-10-16T13:21:33Z</time>
      </trkpt>
      <trkpt lat="44.41363" lon="4.1941">
        <ele>252</ele>
        <time>2013-10-16T13:21:34Z</time>
      </trkpt>
      <trkpt lat="44.41368" lon="4.19419">
        <ele>252</ele>
        <time>2013-10-16T13:21:35Z</time>
      </trkpt>
      <trkpt lat="44.41373" lon="4.19429">
        <ele>251.52</ele>
        <time>2013-10-16T13:21:36Z</time>
      </trkpt>
      <trkpt lat="44.41377" lon="4.1944">
        <ele>252</ele>
        <time>2013-10-16T13:21:37Z</time>
      </trkpt>
      <trkpt lat="44.4138" lon="4.1945">
        <ele>251.52</ele>
        <time>2013-10-16T13:21:38Z</time>
      </trkpt>
      <trkpt lat="44.41382" lon="4.19461">
        <ele>251.52</ele>
        <time>2013-10-16T13:21:39Z</time>
      </trkpt>
      <trkpt lat="44.41384" lon="4.19472">
        <ele>251.52</ele>
        <time>2013-10-16T13:21:40Z</time>
      </trkpt>
      <trkpt lat="44.41385" lon="4.19483">
        <ele>251.04</ele>
        <time>2013-10-16T13:21:41Z</time>
      </trkpt>
      <trkpt lat="44.41387" lon="4.19551">
        <ele>248.16</ele>
        <time>2013-10-16T13:21:47Z</time>
      </trkpt>
      <trkpt lat="44.41385" lon="4.19602">
        <ele>246.23</ele>
        <time>2013-10-16T13:21:51Z</time>
      </trkpt>
      <trkpt lat="44.41387" lon="4.19614">
        <ele>245.75</ele>
        <time>2013-10-16T13:21:52Z</time>
      </trkpt>
      <trkpt lat="44.41393" lon="4.19623">
        <ele>245.27</ele>
        <time>2013-10-16T13:21:53Z</time>
      </trkpt>
      <trkpt lat="44.414" lon="4.19629">
        <ele>244.31</ele>
        <time>2013-10-16T13:21:54Z</time>
      </trkpt>
      <trkpt lat="44.41408" lon="4.19635">
        <ele>243.35</ele>
        <time>2013-10-16T13:21:55Z</time>
      </trkpt>
      <trkpt lat="44.41414" lon="4.19644">
        <ele>241.91</ele>
        <time>2013-10-16T13:21:56Z</time>
      </trkpt>
      <trkpt lat="44.41416" lon="4.19656">
        <ele>240.95</ele>
        <time>2013-10-16T13:21:57Z</time>
      </trkpt>
      <trkpt lat="44.41416" lon="4.19668">
        <ele>239.99</ele>
        <time>2013-10-16T13:21:58Z</time>
      </trkpt>
      <trkpt lat="44.41414" lon="4.1968">
        <ele>239.02</ele>
        <time>2013-10-16T13:21:59Z</time>
      </trkpt>
      <trkpt lat="44.41412" lon="4.19693">
        <ele>238.54</ele>
        <time>2013-10-16T13:22:00Z</time>
      </trkpt>
      <trkpt lat="44.41402" lon="4.19752">
        <ele>234.7</ele>
        <time>2013-10-16T13:22:04Z</time>
      </trkpt>
      <trkpt lat="44.41385" lon="4.19813">
        <ele>230.85</ele>
        <time>2013-10-16T13:22:08Z</time>
      </trkpt>
      <trkpt lat="44.41376" lon="4.1984">
        <ele>226.05</ele>
        <time>2013-10-16T13:22:10Z</time>
      </trkpt>
      <trkpt lat="44.41369" lon="4.19847">
        <ele>224.12</ele>
        <time>2013-10-16T13:22:11Z</time>
      </trkpt>
      <trkpt lat="44.41362" lon="4.19852">
        <ele>223.64</ele>
        <time>2013-10-16T13:22:12Z</time>
      </trkpt>
      <trkpt lat="44.41354" lon="4.19853">
        <ele>223.16</ele>
        <time>2013-10-16T13:22:13Z</time>
      </trkpt>
      <trkpt lat="44.41346" lon="4.19854">
        <ele>223.16</ele>
        <time>2013-10-16T13:22:14Z</time>
      </trkpt>
      <trkpt lat="44.41337" lon="4.19854">
        <ele>223.64</ele>
        <time>2013-10-16T13:22:15Z</time>
      </trkpt>
      <trkpt lat="44.41331" lon="4.19858">
        <ele>223.16</ele>
        <time>2013-10-16T13:22:16Z</time>
      </trkpt>
      <trkpt lat="44.41325" lon="4.19863">
        <ele>223.16</ele>
        <time>2013-10-16T13:22:17Z</time>
      </trkpt>
      <trkpt lat="44.41319" lon="4.1987">
        <ele>223.16</ele>
        <time>2013-10-16T13:22:18Z</time>
      </trkpt>
      <trkpt lat="44.41314" lon="4.19877">
        <ele>223.16</ele>
        <time>2013-10-16T13:22:19Z</time>
      </trkpt>
      <trkpt lat="44.41299" lon="4.19899">
        <ele>222.68</ele>
        <time>2013-10-16T13:22:22Z</time>
      </trkpt>
      <trkpt lat="44.41293" lon="4.19904">
        <ele>222.68</ele>
        <time>2013-10-16T13:22:23Z</time>
      </trkpt>
      <trkpt lat="44.41285" lon="4.19906">
        <ele>223.16</ele>
        <time>2013-10-16T13:22:24Z</time>
      </trkpt>
      <trkpt lat="44.41278" lon="4.19907">
        <ele>223.16</ele>
        <time>2013-10-16T13:22:25Z</time>
      </trkpt>
      <trkpt lat="44.41272" lon="4.19905">
        <ele>223.16</ele>
        <time>2013-10-16T13:22:26Z</time>
      </trkpt>
      <trkpt lat="44.41266" lon="4.19902">
        <ele>223.64</ele>
        <time>2013-10-16T13:22:27Z</time>
      </trkpt>
      <trkpt lat="44.4126" lon="4.19899">
        <ele>224.12</ele>
        <time>2013-10-16T13:22:28Z</time>
      </trkpt>
      <trkpt lat="44.41255" lon="4.19896">
        <ele>224.61</ele>
        <time>2013-10-16T13:22:29Z</time>
      </trkpt>
      <trkpt lat="44.4125" lon="4.19894">
        <ele>224.12</ele>
        <time>2013-10-16T13:22:30Z</time>
      </trkpt>
      <trkpt lat="44.41239" lon="4.19891">
        <ele>224.12</ele>
        <time>2013-10-16T13:22:32Z</time>
      </trkpt>
      <trkpt lat="44.41234" lon="4.19891">
        <ele>224.12</ele>
        <time>2013-10-16T13:22:33Z</time>
      </trkpt>
      <trkpt lat="44.41219" lon="4.19891">
        <ele>225.57</ele>
        <time>2013-10-16T13:22:36Z</time>
      </trkpt>
      <trkpt lat="44.41209" lon="4.19892">
        <ele>225.57</ele>
        <time>2013-10-16T13:22:38Z</time>
      </trkpt>
      <trkpt lat="44.4119" lon="4.19893">
        <ele>226.53</ele>
        <time>2013-10-16T13:22:42Z</time>
      </trkpt>
      <trkpt lat="44.41186" lon="4.19892">
        <ele>227.01</ele>
        <time>2013-10-16T13:22:43Z</time>
      </trkpt>
      <trkpt lat="44.41181" lon="4.19892">
        <ele>227.01</ele>
        <time>2013-10-16T13:22:44Z</time>
      </trkpt>
      <trkpt lat="44.41156" lon="4.19898">
        <ele>227.49</ele>
        <time>2013-10-16T13:22:49Z</time>
      </trkpt>
      <trkpt lat="44.41151" lon="4.199">
        <ele>227.97</ele>
        <time>2013-10-16T13:22:50Z</time>
      </trkpt>
      <trkpt lat="44.41108" lon="4.19916">
        <ele>229.89</ele>
        <time>2013-10-16T13:23:00Z</time>
      </trkpt>
      <trkpt lat="44.41095" lon="4.19913">
        <ele>230.37</ele>
        <time>2013-10-16T13:23:03Z</time>
      </trkpt>
      <trkpt lat="44.4109" lon="4.19911">
        <ele>230.85</ele>
        <time>2013-10-16T13:23:04Z</time>
      </trkpt>
      <trkpt lat="44.41086" lon="4.19908">
        <ele>230.85</ele>
        <time>2013-10-16T13:23:05Z</time>
      </trkpt>
      <trkpt lat="44.4108" lon="4.19904">
        <ele>231.33</ele>
        <time>2013-10-16T13:23:06Z</time>
      </trkpt>
      <trkpt lat="44.41076" lon="4.19899">
        <ele>231.33</ele>
        <time>2013-10-16T13:23:07Z</time>
      </trkpt>
      <trkpt lat="44.41072" lon="4.19894">
        <ele>230.85</ele>
        <time>2013-10-16T13:23:08Z</time>
      </trkpt>
      <trkpt lat="44.41059" lon="4.19871">
        <ele>230.85</ele>
        <time>2013-10-16T13:23:12Z</time>
      </trkpt>
      <trkpt lat="44.41049" lon="4.19845">
        <ele>230.37</ele>
        <time>2013-10-16T13:23:16Z</time>
      </trkpt>
      <trkpt lat="44.41046" lon="4.19839">
        <ele>230.37</ele>
        <time>2013-10-16T13:23:17Z</time>
      </trkpt>
      <trkpt lat="44.41042" lon="4.19833">
        <ele>229.89</ele>
        <time>2013-10-16T13:23:18Z</time>
      </trkpt>
      <trkpt lat="44.41038" lon="4.19828">
        <ele>229.89</ele>
        <time>2013-10-16T13:23:19Z</time>
      </trkpt>
      <trkpt lat="44.41034" lon="4.19823">
        <ele>229.89</ele>
        <time>2013-10-16T13:23:20Z</time>
      </trkpt>
      <trkpt lat="44.4103" lon="4.1982">
        <ele>229.89</ele>
        <time>2013-10-16T13:23:21Z</time>
      </trkpt>
      <trkpt lat="44.41025" lon="4.19818">
        <ele>230.37</ele>
        <time>2013-10-16T13:23:22Z</time>
      </trkpt>
      <trkpt lat="44.41021" lon="4.19816">
        <ele>230.85</ele>
        <time>2013-10-16T13:23:23Z</time>
      </trkpt>
      <trkpt lat="44.41017" lon="4.19816">
        <ele>231.33</ele>
        <time>2013-10-16T13:23:24Z</time>
      </trkpt>
      <trkpt lat="44.41013" lon="4.19816">
        <ele>231.81</ele>
        <time>2013-10-16T13:23:25Z</time>
      </trkpt>
      <trkpt lat="44.41009" lon="4.19816">
        <ele>232.78</ele>
        <time>2013-10-16T13:23:26Z</time>
      </trkpt>
      <trkpt lat="44.41005" lon="4.19816">
        <ele>232.3</ele>
        <time>2013-10-16T13:23:27Z</time>
      </trkpt>
      <trkpt lat="44.40994" lon="4.19816">
        <ele>232.3</ele>
        <time>2013-10-16T13:23:30Z</time>
      </trkpt>
      <trkpt lat="44.40989" lon="4.19816">
        <ele>232.3</ele>
        <time>2013-10-16T13:23:31Z</time>
      </trkpt>
      <trkpt lat="44.4098" lon="4.19818">
        <ele>232.3</ele>
        <time>2013-10-16T13:23:33Z</time>
      </trkpt>
      <trkpt lat="44.40975" lon="4.19819">
        <ele>232.3</ele>
        <time>2013-10-16T13:23:34Z</time>
      </trkpt>
      <trkpt lat="44.40969" lon="4.19818">
        <ele>231.81</ele>
        <time>2013-10-16T13:23:35Z</time>
      </trkpt>
      <trkpt lat="44.40963" lon="4.19816">
        <ele>231.81</ele>
        <time>2013-10-16T13:23:36Z</time>
      </trkpt>
      <trkpt lat="44.40957" lon="4.19811">
        <ele>231.81</ele>
        <time>2013-10-16T13:23:37Z</time>
      </trkpt>
      <trkpt lat="44.40952" lon="4.19806">
        <ele>231.33</ele>
        <time>2013-10-16T13:23:38Z</time>
      </trkpt>
      <trkpt lat="44.40948" lon="4.19799">
        <ele>231.33</ele>
        <time>2013-10-16T13:23:39Z</time>
      </trkpt>
      <trkpt lat="44.40943" lon="4.19792">
        <ele>230.85</ele>
        <time>2013-10-16T13:23:40Z</time>
      </trkpt>
      <trkpt lat="44.40937" lon="4.19785">
        <ele>229.89</ele>
        <time>2013-10-16T13:23:41Z</time>
      </trkpt>
      <trkpt lat="44.40931" lon="4.1978">
        <ele>229.41</ele>
        <time>2013-10-16T13:23:42Z</time>
      </trkpt>
      <trkpt lat="44.40925" lon="4.19779">
        <ele>229.41</ele>
        <time>2013-10-16T13:23:43Z</time>
      </trkpt>
      <trkpt lat="44.4092" lon="4.19781">
        <ele>228.45</ele>
        <time>2013-10-16T13:23:44Z</time>
      </trkpt>
      <trkpt lat="44.40916" lon="4.19786">
        <ele>227.01</ele>
        <time>2013-10-16T13:23:45Z</time>
      </trkpt>
      <trkpt lat="44.40912" lon="4.19794">
        <ele>225.09</ele>
        <time>2013-10-16T13:23:46Z</time>
      </trkpt>
      <trkpt lat="44.40907" lon="4.19804">
        <ele>224.61</ele>
        <time>2013-10-16T13:23:47Z</time>
      </trkpt>
      <trkpt lat="44.40901" lon="4.19815">
        <ele>224.12</ele>
        <time>2013-10-16T13:23:48Z</time>
      </trkpt>
      <trkpt lat="44.40893" lon="4.19821">
        <ele>223.16</ele>
        <time>2013-10-16T13:23:49Z</time>
      </trkpt>
      <trkpt lat="44.40885" lon="4.19825">
        <ele>223.16</ele>
        <time>2013-10-16T13:23:50Z</time>
      </trkpt>
      <trkpt lat="44.40877" lon="4.19827">
        <ele>222.2</ele>
        <time>2013-10-16T13:23:51Z</time>
      </trkpt>
      <trkpt lat="44.40867" lon="4.19824">
        <ele>221.72</ele>
        <time>2013-10-16T13:23:52Z</time>
      </trkpt>
      <trkpt lat="44.40857" lon="4.19818">
        <ele>219.8</ele>
        <time>2013-10-16T13:23:53Z</time>
      </trkpt>
      <trkpt lat="44.40838" lon="4.19805">
        <ele>217.88</ele>
        <time>2013-10-16T13:23:55Z</time>
      </trkpt>
      <trkpt lat="44.40808" lon="4.19785">
        <ele>214.03</ele>
        <time>2013-10-16T13:23:58Z</time>
      </trkpt>
      <trkpt lat="44.40777" lon="4.19771">
        <ele>212.11</ele>
        <time>2013-10-16T13:24:01Z</time>
      </trkpt>
      <trkpt lat="44.40745" lon="4.19763">
        <ele>208.74</ele>
        <time>2013-10-16T13:24:04Z</time>
      </trkpt>
      <trkpt lat="44.40711" lon="4.19755">
        <ele>205.38</ele>
        <time>2013-10-16T13:24:07Z</time>
      </trkpt>
      <trkpt lat="44.40673" lon="4.19743">
        <ele>201.53</ele>
        <time>2013-10-16T13:24:10Z</time>
      </trkpt>
      <trkpt lat="44.40661" lon="4.19736">
        <ele>199.61</ele>
        <time>2013-10-16T13:24:11Z</time>
      </trkpt>
      <trkpt lat="44.4064" lon="4.19724">
        <ele>199.13</ele>
        <time>2013-10-16T13:24:13Z</time>
      </trkpt>
      <trkpt lat="44.40611" lon="4.19707">
        <ele>197.69</ele>
        <time>2013-10-16T13:24:16Z</time>
      </trkpt>
      <trkpt lat="44.40579" lon="4.19692">
        <ele>197.21</ele>
        <time>2013-10-16T13:24:20Z</time>
      </trkpt>
      <trkpt lat="44.4057" lon="4.19691">
        <ele>197.69</ele>
        <time>2013-10-16T13:24:21Z</time>
      </trkpt>
      <trkpt lat="44.40563" lon="4.19692">
        <ele>197.69</ele>
        <time>2013-10-16T13:24:22Z</time>
      </trkpt>
      <trkpt lat="44.40533" lon="4.19693">
        <ele>198.65</ele>
        <time>2013-10-16T13:24:26Z</time>
      </trkpt>
      <trkpt lat="44.40527" lon="4.19692">
        <ele>199.13</ele>
        <time>2013-10-16T13:24:27Z</time>
      </trkpt>
      <trkpt lat="44.40521" lon="4.19691">
        <ele>199.61</ele>
        <time>2013-10-16T13:24:28Z</time>
      </trkpt>
      <trkpt lat="44.40515" lon="4.19688">
        <ele>200.57</ele>
        <time>2013-10-16T13:24:29Z</time>
      </trkpt>
      <trkpt lat="44.40511" lon="4.19685">
        <ele>201.05</ele>
        <time>2013-10-16T13:24:30Z</time>
      </trkpt>
      <trkpt lat="44.40507" lon="4.19683">
        <ele>201.05</ele>
        <time>2013-10-16T13:24:31Z</time>
      </trkpt>
      <trkpt lat="44.40504" lon="4.19681">
        <ele>201.53</ele>
        <time>2013-10-16T13:24:32Z</time>
      </trkpt>
      <trkpt lat="44.40501" lon="4.19678">
        <ele>202.01</ele>
        <time>2013-10-16T13:24:33Z</time>
      </trkpt>
      <trkpt lat="44.40499" lon="4.19677">
        <ele>202.01</ele>
        <time>2013-10-16T13:24:34Z</time>
      </trkpt>
      <trkpt lat="44.40498" lon="4.19675">
        <ele>202.49</ele>
        <time>2013-10-16T13:24:35Z</time>
      </trkpt>
      <trkpt lat="44.40496" lon="4.19673">
        <ele>202.98</ele>
        <time>2013-10-16T13:24:36Z</time>
      </trkpt>
      <trkpt lat="44.40494" lon="4.19671">
        <ele>202.98</ele>
        <time>2013-10-16T13:24:37Z</time>
      </trkpt>
      <trkpt lat="44.40462" lon="4.19651">
        <ele>206.34</ele>
        <time>2013-10-16T13:24:50Z</time>
      </trkpt>
      <trkpt lat="44.4044" lon="4.19634">
        <ele>209.7</ele>
        <time>2013-10-16T13:25:00Z</time>
      </trkpt>
      <trkpt lat="44.40429" lon="4.19625">
        <ele>211.63</ele>
        <time>2013-10-16T13:25:04Z</time>
      </trkpt>
      <trkpt lat="44.40404" lon="4.19611">
        <ele>214.51</ele>
        <time>2013-10-16T13:25:13Z</time>
      </trkpt>
      <trkpt lat="44.40367" lon="4.19602">
        <ele>216.43</ele>
        <time>2013-10-16T13:25:26Z</time>
      </trkpt>
      <trkpt lat="44.40341" lon="4.19603">
        <ele>216.43</ele>
        <time>2013-10-16T13:25:33Z</time>
      </trkpt>
      <trkpt lat="44.40336" lon="4.19605">
        <ele>215.95</ele>
        <time>2013-10-16T13:25:34Z</time>
      </trkpt>
      <trkpt lat="44.40327" lon="4.19611">
        <ele>215.95</ele>
        <time>2013-10-16T13:25:36Z</time>
      </trkpt>
      <trkpt lat="44.40322" lon="4.19614">
        <ele>215.47</ele>
        <time>2013-10-16T13:25:37Z</time>
      </trkpt>
      <trkpt lat="44.40291" lon="4.19638">
        <ele>212.11</ele>
        <time>2013-10-16T13:25:42Z</time>
      </trkpt>
      <trkpt lat="44.40282" lon="4.19643">
        <ele>211.15</ele>
        <time>2013-10-16T13:25:43Z</time>
      </trkpt>
      <trkpt lat="44.40274" lon="4.19647">
        <ele>210.67</ele>
        <time>2013-10-16T13:25:44Z</time>
      </trkpt>
      <trkpt lat="44.40193" lon="4.19674">
        <ele>210.67</ele>
        <time>2013-10-16T13:25:55Z</time>
      </trkpt>
      <trkpt lat="44.40164" lon="4.19685">
        <ele>209.7</ele>
        <time>2013-10-16T13:26:00Z</time>
      </trkpt>
      <trkpt lat="44.40119" lon="4.19705">
        <ele>208.26</ele>
        <time>2013-10-16T13:26:08Z</time>
      </trkpt>
      <trkpt lat="44.40115" lon="4.19707">
        <ele>208.26</ele>
        <time>2013-10-16T13:26:09Z</time>
      </trkpt>
      <trkpt lat="44.40114" lon="4.19713">
        <ele>208.74</ele>
        <time>2013-10-16T13:26:10Z</time>
      </trkpt>
      <trkpt lat="44.40114" lon="4.1972">
        <ele>208.74</ele>
        <time>2013-10-16T13:26:11Z</time>
      </trkpt>
      <trkpt lat="44.40115" lon="4.19728">
        <ele>207.78</ele>
        <time>2013-10-16T13:26:12Z</time>
      </trkpt>
      <trkpt lat="44.40116" lon="4.19738">
        <ele>207.3</ele>
        <time>2013-10-16T13:26:13Z</time>
      </trkpt>
      <trkpt lat="44.40119" lon="4.19747">
        <ele>206.34</ele>
        <time>2013-10-16T13:26:14Z</time>
      </trkpt>
      <trkpt lat="44.40129" lon="4.19791">
        <ele>203.94</ele>
        <time>2013-10-16T13:26:18Z</time>
      </trkpt>
      <trkpt lat="44.4013" lon="4.19804">
        <ele>202.98</ele>
        <time>2013-10-16T13:26:19Z</time>
      </trkpt>
      <trkpt lat="44.40129" lon="4.19817">
        <ele>202.01</ele>
        <time>2013-10-16T13:26:20Z</time>
      </trkpt>
      <trkpt lat="44.40124" lon="4.19844">
        <ele>200.57</ele>
        <time>2013-10-16T13:26:22Z</time>
      </trkpt>
      <trkpt lat="44.4012" lon="4.19857">
        <ele>199.13</ele>
        <time>2013-10-16T13:26:23Z</time>
      </trkpt>
      <trkpt lat="44.40115" lon="4.19869">
        <ele>197.69</ele>
        <time>2013-10-16T13:26:24Z</time>
      </trkpt>
      <trkpt lat="44.40109" lon="4.1988">
        <ele>196.73</ele>
        <time>2013-10-16T13:26:25Z</time>
      </trkpt>
      <trkpt lat="44.40102" lon="4.19891">
        <ele>196.25</ele>
        <time>2013-10-16T13:26:26Z</time>
      </trkpt>
      <trkpt lat="44.40094" lon="4.199">
        <ele>195.77</ele>
        <time>2013-10-16T13:26:27Z</time>
      </trkpt>
      <trkpt lat="44.40076" lon="4.19917">
        <ele>193.84</ele>
        <time>2013-10-16T13:26:29Z</time>
      </trkpt>
      <trkpt lat="44.40065" lon="4.19923">
        <ele>192.88</ele>
        <time>2013-10-16T13:26:30Z</time>
      </trkpt>
      <trkpt lat="44.40056" lon="4.19928">
        <ele>190.96</ele>
        <time>2013-10-16T13:26:31Z</time>
      </trkpt>
      <trkpt lat="44.40046" lon="4.1993">
        <ele>190</ele>
        <time>2013-10-16T13:26:32Z</time>
      </trkpt>
      <trkpt lat="44.40036" lon="4.19928">
        <ele>189.04</ele>
        <time>2013-10-16T13:26:33Z</time>
      </trkpt>
      <trkpt lat="44.40027" lon="4.19923">
        <ele>189.04</ele>
        <time>2013-10-16T13:26:34Z</time>
      </trkpt>
      <trkpt lat="44.40019" lon="4.19916">
        <ele>188.56</ele>
        <time>2013-10-16T13:26:35Z</time>
      </trkpt>
      <trkpt lat="44.40013" lon="4.1991">
        <ele>188.08</ele>
        <time>2013-10-16T13:26:36Z</time>
      </trkpt>
      <trkpt lat="44.40008" lon="4.19907">
        <ele>187.11</ele>
        <time>2013-10-16T13:26:37Z</time>
      </trkpt>
      <trkpt lat="44.40003" lon="4.19905">
        <ele>186.63</ele>
        <time>2013-10-16T13:26:38Z</time>
      </trkpt>
      <trkpt lat="44.39975" lon="4.19896">
        <ele>183.27</ele>
        <time>2013-10-16T13:26:42Z</time>
      </trkpt>
      <trkpt lat="44.39956" lon="4.19898">
        <ele>182.31</ele>
        <time>2013-10-16T13:26:44Z</time>
      </trkpt>
      <trkpt lat="44.39945" lon="4.199">
        <ele>182.31</ele>
        <time>2013-10-16T13:26:45Z</time>
      </trkpt>
      <trkpt lat="44.39912" lon="4.19899">
        <ele>179.42</ele>
        <time>2013-10-16T13:26:48Z</time>
      </trkpt>
      <trkpt lat="44.39901" lon="4.19899">
        <ele>178.46</ele>
        <time>2013-10-16T13:26:49Z</time>
      </trkpt>
      <trkpt lat="44.39891" lon="4.199">
        <ele>177.98</ele>
        <time>2013-10-16T13:26:50Z</time>
      </trkpt>
      <trkpt lat="44.3988" lon="4.19902">
        <ele>177.5</ele>
        <time>2013-10-16T13:26:51Z</time>
      </trkpt>
      <trkpt lat="44.3987" lon="4.19904">
        <ele>176.06</ele>
        <time>2013-10-16T13:26:52Z</time>
      </trkpt>
      <trkpt lat="44.39843" lon="4.19913">
        <ele>172.21</ele>
        <time>2013-10-16T13:26:55Z</time>
      </trkpt>
      <trkpt lat="44.3982" lon="4.19925">
        <ele>169.33</ele>
        <time>2013-10-16T13:26:57Z</time>
      </trkpt>
      <trkpt lat="44.39786" lon="4.19929">
        <ele>167.41</ele>
        <time>2013-10-16T13:27:00Z</time>
      </trkpt>
      <trkpt lat="44.39758" lon="4.19928">
        <ele>167.89</ele>
        <time>2013-10-16T13:27:03Z</time>
      </trkpt>
      <trkpt lat="44.39749" lon="4.19926">
        <ele>167.89</ele>
        <time>2013-10-16T13:27:04Z</time>
      </trkpt>
      <trkpt lat="44.39743" lon="4.1992">
        <ele>167.89</ele>
        <time>2013-10-16T13:27:05Z</time>
      </trkpt>
      <trkpt lat="44.39739" lon="4.19912">
        <ele>168.37</ele>
        <time>2013-10-16T13:27:06Z</time>
      </trkpt>
      <trkpt lat="44.39736" lon="4.19905">
        <ele>169.33</ele>
        <time>2013-10-16T13:27:07Z</time>
      </trkpt>
      <trkpt lat="44.39734" lon="4.19897">
        <ele>168.85</ele>
        <time>2013-10-16T13:27:08Z</time>
      </trkpt>
      <trkpt lat="44.39729" lon="4.19856">
        <ele>170.29</ele>
        <time>2013-10-16T13:27:13Z</time>
      </trkpt>
      <trkpt lat="44.39726" lon="4.19824">
        <ele>170.77</ele>
        <time>2013-10-16T13:27:17Z</time>
      </trkpt>
      <trkpt lat="44.39725" lon="4.19802">
        <ele>170.77</ele>
        <time>2013-10-16T13:27:20Z</time>
      </trkpt>
      <trkpt lat="44.39724" lon="4.19795">
        <ele>171.25</ele>
        <time>2013-10-16T13:27:21Z</time>
      </trkpt>
      <trkpt lat="44.39719" lon="4.1977">
        <ele>171.25</ele>
        <time>2013-10-16T13:27:25Z</time>
      </trkpt>
      <trkpt lat="44.39716" lon="4.19765">
        <ele>171.73</ele>
        <time>2013-10-16T13:27:26Z</time>
      </trkpt>
      <trkpt lat="44.39709" lon="4.19755">
        <ele>171.73</ele>
        <time>2013-10-16T13:27:28Z</time>
      </trkpt>
      <trkpt lat="44.39708" lon="4.19749">
        <ele>171.25</ele>
        <time>2013-10-16T13:27:29Z</time>
      </trkpt>
      <trkpt lat="44.39706" lon="4.19742">
        <ele>171.25</ele>
        <time>2013-10-16T13:27:30Z</time>
      </trkpt>
      <trkpt lat="44.39706" lon="4.19735">
        <ele>171.25</ele>
        <time>2013-10-16T13:27:31Z</time>
      </trkpt>
      <trkpt lat="44.39705" lon="4.19729">
        <ele>171.25</ele>
        <time>2013-10-16T13:27:32Z</time>
      </trkpt>
      <trkpt lat="44.39704" lon="4.19723">
        <ele>171.25</ele>
        <time>2013-10-16T13:27:33Z</time>
      </trkpt>
      <trkpt lat="44.39703" lon="4.19717">
        <ele>171.25</ele>
        <time>2013-10-16T13:27:34Z</time>
      </trkpt>
      <trkpt lat="44.39687" lon="4.19685">
        <ele>169.33</ele>
        <time>2013-10-16T13:27:39Z</time>
      </trkpt>
      <trkpt lat="44.39669" lon="4.19652">
        <ele>166.45</ele>
        <time>2013-10-16T13:27:43Z</time>
      </trkpt>
      <trkpt lat="44.39664" lon="4.19647">
        <ele>165</ele>
        <time>2013-10-16T13:27:44Z</time>
      </trkpt>
      <trkpt lat="44.3966" lon="4.19645">
        <ele>164.04</ele>
        <time>2013-10-16T13:27:45Z</time>
      </trkpt>
      <trkpt lat="44.39655" lon="4.19647">
        <ele>163.56</ele>
        <time>2013-10-16T13:27:46Z</time>
      </trkpt>
      <trkpt lat="44.39646" lon="4.19648">
        <ele>162.6</ele>
        <time>2013-10-16T13:27:48Z</time>
      </trkpt>
      <trkpt lat="44.39645" lon="4.19653">
        <ele>162.12</ele>
        <time>2013-10-16T13:27:49Z</time>
      </trkpt>
      <trkpt lat="44.39649" lon="4.19659">
        <ele>161.16</ele>
        <time>2013-10-16T13:27:50Z</time>
      </trkpt>
      <trkpt lat="44.39653" lon="4.19665">
        <ele>161.16</ele>
        <time>2013-10-16T13:27:51Z</time>
      </trkpt>
      <trkpt lat="44.39657" lon="4.19672">
        <ele>161.16</ele>
        <time>2013-10-16T13:27:52Z</time>
      </trkpt>
      <trkpt lat="44.39661" lon="4.19679">
        <ele>160.68</ele>
        <time>2013-10-16T13:27:53Z</time>
      </trkpt>
      <trkpt lat="44.39664" lon="4.19688">
        <ele>160.2</ele>
        <time>2013-10-16T13:27:54Z</time>
      </trkpt>
      <trkpt lat="44.39667" lon="4.19698">
        <ele>159.72</ele>
        <time>2013-10-16T13:27:55Z</time>
      </trkpt>
      <trkpt lat="44.39668" lon="4.19709">
        <ele>158.75</ele>
        <time>2013-10-16T13:27:56Z</time>
      </trkpt>
      <trkpt lat="44.39668" lon="4.1972">
        <ele>157.79</ele>
        <time>2013-10-16T13:27:57Z</time>
      </trkpt>
      <trkpt lat="44.39667" lon="4.19732">
        <ele>156.83</ele>
        <time>2013-10-16T13:27:58Z</time>
      </trkpt>
      <trkpt lat="44.39666" lon="4.19743">
        <ele>155.87</ele>
        <time>2013-10-16T13:27:59Z</time>
      </trkpt>
      <trkpt lat="44.39663" lon="4.19755">
        <ele>155.39</ele>
        <time>2013-10-16T13:28:00Z</time>
      </trkpt>
      <trkpt lat="44.3966" lon="4.19765">
        <ele>155.39</ele>
        <time>2013-10-16T13:28:01Z</time>
      </trkpt>
      <trkpt lat="44.39657" lon="4.19773">
        <ele>155.39</ele>
        <time>2013-10-16T13:28:02Z</time>
      </trkpt>
      <trkpt lat="44.39653" lon="4.19782">
        <ele>155.39</ele>
        <time>2013-10-16T13:28:03Z</time>
      </trkpt>
      <trkpt lat="44.39649" lon="4.19791">
        <ele>155.39</ele>
        <time>2013-10-16T13:28:04Z</time>
      </trkpt>
      <trkpt lat="44.39585" lon="4.1989">
        <ele>154.91</ele>
        <time>2013-10-16T13:28:18Z</time>
      </trkpt>
      <trkpt lat="44.39576" lon="4.19903">
        <ele>154.91</ele>
        <time>2013-10-16T13:28:20Z</time>
      </trkpt>
      <trkpt lat="44.39573" lon="4.19909">
        <ele>154.91</ele>
        <time>2013-10-16T13:28:21Z</time>
      </trkpt>
      <trkpt lat="44.3956" lon="4.19952">
        <ele>155.87</ele>
        <time>2013-10-16T13:28:30Z</time>
      </trkpt>
      <trkpt lat="44.39559" lon="4.19995">
        <ele>158.75</ele>
        <time>2013-10-16T13:28:41Z</time>
      </trkpt>
      <trkpt lat="44.39559" lon="4.20035">
        <ele>162.12</ele>
        <time>2013-10-16T13:28:51Z</time>
      </trkpt>
      <trkpt lat="44.39568" lon="4.20082">
        <ele>164.52</ele>
        <time>2013-10-16T13:29:02Z</time>
      </trkpt>
      <trkpt lat="44.39573" lon="4.2009">
        <ele>164.52</ele>
        <time>2013-10-16T13:29:04Z</time>
      </trkpt>
      <trkpt lat="44.39599" lon="4.2013">
        <ele>160.68</ele>
        <time>2013-10-16T13:29:10Z</time>
      </trkpt>
      <trkpt lat="44.39621" lon="4.20173">
        <ele>159.24</ele>
        <time>2013-10-16T13:29:14Z</time>
      </trkpt>
      <trkpt lat="44.39628" lon="4.20198">
        <ele>157.79</ele>
        <time>2013-10-16T13:29:16Z</time>
      </trkpt>
      <trkpt lat="44.3963" lon="4.20207">
        <ele>157.79</ele>
        <time>2013-10-16T13:29:17Z</time>
      </trkpt>
      <trkpt lat="44.39635" lon="4.20247">
        <ele>157.31</ele>
        <time>2013-10-16T13:29:20Z</time>
      </trkpt>
      <trkpt lat="44.39635" lon="4.20259">
        <ele>157.31</ele>
        <time>2013-10-16T13:29:21Z</time>
      </trkpt>
      <trkpt lat="44.39634" lon="4.20314">
        <ele>158.75</ele>
        <time>2013-10-16T13:29:26Z</time>
      </trkpt>
      <trkpt lat="44.39635" lon="4.20333">
        <ele>159.72</ele>
        <time>2013-10-16T13:29:28Z</time>
      </trkpt>
      <trkpt lat="44.39635" lon="4.20352">
        <ele>160.2</ele>
        <time>2013-10-16T13:29:30Z</time>
      </trkpt>
      <trkpt lat="44.39632" lon="4.20379">
        <ele>161.64</ele>
        <time>2013-10-16T13:29:33Z</time>
      </trkpt>
      <trkpt lat="44.39631" lon="4.2041">
        <ele>163.08</ele>
        <time>2013-10-16T13:29:37Z</time>
      </trkpt>
      <trkpt lat="44.3964" lon="4.20453">
        <ele>165.48</ele>
        <time>2013-10-16T13:29:46Z</time>
      </trkpt>
      <trkpt lat="44.39649" lon="4.20493">
        <ele>165.96</ele>
        <time>2013-10-16T13:29:53Z</time>
      </trkpt>
      <trkpt lat="44.39652" lon="4.20508">
        <ele>165.48</ele>
        <time>2013-10-16T13:29:55Z</time>
      </trkpt>
      <trkpt lat="44.39653" lon="4.20516">
        <ele>165.48</ele>
        <time>2013-10-16T13:29:56Z</time>
      </trkpt>
      <trkpt lat="44.39652" lon="4.20524">
        <ele>165.48</ele>
        <time>2013-10-16T13:29:57Z</time>
      </trkpt>
      <trkpt lat="44.3965" lon="4.20533">
        <ele>165.48</ele>
        <time>2013-10-16T13:29:58Z</time>
      </trkpt>
      <trkpt lat="44.39647" lon="4.20541">
        <ele>165</ele>
        <time>2013-10-16T13:29:59Z</time>
      </trkpt>
      <trkpt lat="44.39644" lon="4.20547">
        <ele>165</ele>
        <time>2013-10-16T13:30:00Z</time>
      </trkpt>
      <trkpt lat="44.3964" lon="4.20554">
        <ele>164.52</ele>
        <time>2013-10-16T13:30:01Z</time>
      </trkpt>
      <trkpt lat="44.39637" lon="4.20562">
        <ele>164.52</ele>
        <time>2013-10-16T13:30:02Z</time>
      </trkpt>
      <trkpt lat="44.39634" lon="4.20571">
        <ele>164.52</ele>
        <time>2013-10-16T13:30:03Z</time>
      </trkpt>
      <trkpt lat="44.39631" lon="4.20581">
        <ele>164.04</ele>
        <time>2013-10-16T13:30:04Z</time>
      </trkpt>
      <trkpt lat="44.39613" lon="4.20651">
        <ele>162.12</ele>
        <time>2013-10-16T13:30:11Z</time>
      </trkpt>
      <trkpt lat="44.39612" lon="4.20662">
        <ele>162.12</ele>
        <time>2013-10-16T13:30:12Z</time>
      </trkpt>
      <trkpt lat="44.39611" lon="4.20684">
        <ele>162.12</ele>
        <time>2013-10-16T13:30:14Z</time>
      </trkpt>
      <trkpt lat="44.39611" lon="4.20694">
        <ele>161.64</ele>
        <time>2013-10-16T13:30:15Z</time>
      </trkpt>
      <trkpt lat="44.39606" lon="4.20741">
        <ele>161.16</ele>
        <time>2013-10-16T13:30:20Z</time>
      </trkpt>
      <trkpt lat="44.39604" lon="4.20749">
        <ele>161.16</ele>
        <time>2013-10-16T13:30:21Z</time>
      </trkpt>
      <trkpt lat="44.39602" lon="4.20756">
        <ele>161.16</ele>
        <time>2013-10-16T13:30:22Z</time>
      </trkpt>
      <trkpt lat="44.396" lon="4.20763">
        <ele>161.16</ele>
        <time>2013-10-16T13:30:23Z</time>
      </trkpt>
      <trkpt lat="44.39597" lon="4.20769">
        <ele>161.16</ele>
        <time>2013-10-16T13:30:24Z</time>
      </trkpt>
      <trkpt lat="44.39593" lon="4.20773">
        <ele>161.16</ele>
        <time>2013-10-16T13:30:25Z</time>
      </trkpt>
      <trkpt lat="44.39588" lon="4.20778">
        <ele>161.16</ele>
        <time>2013-10-16T13:30:26Z</time>
      </trkpt>
      <trkpt lat="44.39525" lon="4.20839">
        <ele>158.27</ele>
        <time>2013-10-16T13:30:37Z</time>
      </trkpt>
      <trkpt lat="44.39475" lon="4.20898">
        <ele>154.91</ele>
        <time>2013-10-16T13:30:44Z</time>
      </trkpt>
      <trkpt lat="44.39461" lon="4.20918">
        <ele>153.95</ele>
        <time>2013-10-16T13:30:46Z</time>
      </trkpt>
      <trkpt lat="44.39456" lon="4.20929">
        <ele>153.47</ele>
        <time>2013-10-16T13:30:47Z</time>
      </trkpt>
      <trkpt lat="44.39451" lon="4.20942">
        <ele>152.99</ele>
        <time>2013-10-16T13:30:48Z</time>
      </trkpt>
      <trkpt lat="44.39425" lon="4.21021">
        <ele>148.66</ele>
        <time>2013-10-16T13:30:54Z</time>
      </trkpt>
      <trkpt lat="44.39421" lon="4.21035">
        <ele>148.66</ele>
        <time>2013-10-16T13:30:55Z</time>
      </trkpt>
      <trkpt lat="44.39393" lon="4.21124">
        <ele>145.3</ele>
        <time>2013-10-16T13:31:02Z</time>
      </trkpt>
      <trkpt lat="44.39343" lon="4.21307">
        <ele>141.93</ele>
        <time>2013-10-16T13:31:19Z</time>
      </trkpt>
      <trkpt lat="44.39327" lon="4.21465">
        <ele>140.97</ele>
        <time>2013-10-16T13:31:35Z</time>
      </trkpt>
      <trkpt lat="44.39303" lon="4.21647">
        <ele>140.01</ele>
        <time>2013-10-16T13:31:54Z</time>
      </trkpt>
      <trkpt lat="44.39296" lon="4.21748">
        <ele>140.01</ele>
        <time>2013-10-16T13:32:05Z</time>
      </trkpt>
      <trkpt lat="44.39258" lon="4.21876">
        <ele>140.01</ele>
        <time>2013-10-16T13:32:21Z</time>
      </trkpt>
      <trkpt lat="44.39232" lon="4.21955">
        <ele>139.53</ele>
        <time>2013-10-16T13:32:31Z</time>
      </trkpt>
      <trkpt lat="44.39228" lon="4.21962">
        <ele>139.53</ele>
        <time>2013-10-16T13:32:32Z</time>
      </trkpt>
      <trkpt lat="44.39223" lon="4.21969">
        <ele>139.53</ele>
        <time>2013-10-16T13:32:33Z</time>
      </trkpt>
      <trkpt lat="44.39218" lon="4.21974">
        <ele>139.53</ele>
        <time>2013-10-16T13:32:34Z</time>
      </trkpt>
      <trkpt lat="44.39212" lon="4.21977">
        <ele>139.53</ele>
        <time>2013-10-16T13:32:35Z</time>
      </trkpt>
      <trkpt lat="44.39206" lon="4.21979">
        <ele>139.53</ele>
        <time>2013-10-16T13:32:36Z</time>
      </trkpt>
      <trkpt lat="44.392" lon="4.2198">
        <ele>140.01</ele>
        <time>2013-10-16T13:32:37Z</time>
      </trkpt>
      <trkpt lat="44.39194" lon="4.21979">
        <ele>140.01</ele>
        <time>2013-10-16T13:32:38Z</time>
      </trkpt>
      <trkpt lat="44.39188" lon="4.21979">
        <ele>140.01</ele>
        <time>2013-10-16T13:32:39Z</time>
      </trkpt>
      <trkpt lat="44.3917" lon="4.21979">
        <ele>140.01</ele>
        <time>2013-10-16T13:32:42Z</time>
      </trkpt>
      <trkpt lat="44.39164" lon="4.21981">
        <ele>140.01</ele>
        <time>2013-10-16T13:32:43Z</time>
      </trkpt>
      <trkpt lat="44.39159" lon="4.21984">
        <ele>140.01</ele>
        <time>2013-10-16T13:32:44Z</time>
      </trkpt>
      <trkpt lat="44.39153" lon="4.21988">
        <ele>140.01</ele>
        <time>2013-10-16T13:32:45Z</time>
      </trkpt>
      <trkpt lat="44.39148" lon="4.21993">
        <ele>139.53</ele>
        <time>2013-10-16T13:32:46Z</time>
      </trkpt>
      <trkpt lat="44.39143" lon="4.21998">
        <ele>139.53</ele>
        <time>2013-10-16T13:32:47Z</time>
      </trkpt>
      <trkpt lat="44.39084" lon="4.22074">
        <ele>139.05</ele>
        <time>2013-10-16T13:33:00Z</time>
      </trkpt>
      <trkpt lat="44.39021" lon="4.22166">
        <ele>139.05</ele>
        <time>2013-10-16T13:33:14Z</time>
      </trkpt>
      <trkpt lat="44.38967" lon="4.22212">
        <ele>137.61</ele>
        <time>2013-10-16T13:33:23Z</time>
      </trkpt>
      <trkpt lat="44.38962" lon="4.2222">
        <ele>137.61</ele>
        <time>2013-10-16T13:33:24Z</time>
      </trkpt>
      <trkpt lat="44.38957" lon="4.22228">
        <ele>137.61</ele>
        <time>2013-10-16T13:33:25Z</time>
      </trkpt>
      <trkpt lat="44.38887" lon="4.22359">
        <ele>138.09</ele>
        <time>2013-10-16T13:33:42Z</time>
      </trkpt>
      <trkpt lat="44.38804" lon="4.22489">
        <ele>137.13</ele>
        <time>2013-10-16T13:34:00Z</time>
      </trkpt>
      <trkpt lat="44.38746" lon="4.22591">
        <ele>137.13</ele>
        <time>2013-10-16T13:34:14Z</time>
      </trkpt>
      <trkpt lat="44.38744" lon="4.22599">
        <ele>137.13</ele>
        <time>2013-10-16T13:34:15Z</time>
      </trkpt>
      <trkpt lat="44.38742" lon="4.22607">
        <ele>137.13</ele>
        <time>2013-10-16T13:34:16Z</time>
      </trkpt>
      <trkpt lat="44.38742" lon="4.22615">
        <ele>137.61</ele>
        <time>2013-10-16T13:34:17Z</time>
      </trkpt>
      <trkpt lat="44.38742" lon="4.22623">
        <ele>137.61</ele>
        <time>2013-10-16T13:34:18Z</time>
      </trkpt>
      <trkpt lat="44.38743" lon="4.22632">
        <ele>137.61</ele>
        <time>2013-10-16T13:34:19Z</time>
      </trkpt>
      <trkpt lat="44.38746" lon="4.22639">
        <ele>137.61</ele>
        <time>2013-10-16T13:34:20Z</time>
      </trkpt>
      <trkpt lat="44.38749" lon="4.22647">
        <ele>137.61</ele>
        <time>2013-10-16T13:34:21Z</time>
      </trkpt>
      <trkpt lat="44.38752" lon="4.22654">
        <ele>138.09</ele>
        <time>2013-10-16T13:34:22Z</time>
      </trkpt>
      <trkpt lat="44.38756" lon="4.22661">
        <ele>137.61</ele>
        <time>2013-10-16T13:34:23Z</time>
      </trkpt>
      <trkpt lat="44.3876" lon="4.22668">
        <ele>138.09</ele>
        <time>2013-10-16T13:34:24Z</time>
      </trkpt>
      <trkpt lat="44.38814" lon="4.22755">
        <ele>137.13</ele>
        <time>2013-10-16T13:34:39Z</time>
      </trkpt>
      <trkpt lat="44.38818" lon="4.2276">
        <ele>137.13</ele>
        <time>2013-10-16T13:34:40Z</time>
      </trkpt>
      <trkpt lat="44.38828" lon="4.22777">
        <ele>137.13</ele>
        <time>2013-10-16T13:34:43Z</time>
      </trkpt>
      <trkpt lat="44.38867" lon="4.22829">
        <ele>136.64</ele>
        <time>2013-10-16T13:34:53Z</time>
      </trkpt>
      <trkpt lat="44.38871" lon="4.22834">
        <ele>136.64</ele>
        <time>2013-10-16T13:34:54Z</time>
      </trkpt>
      <trkpt lat="44.38926" lon="4.22908">
        <ele>137.13</ele>
        <time>2013-10-16T13:35:08Z</time>
      </trkpt>
      <trkpt lat="44.38963" lon="4.22989">
        <ele>136.64</ele>
        <time>2013-10-16T13:35:20Z</time>
      </trkpt>
      <trkpt lat="44.38969" lon="4.23115">
        <ele>137.13</ele>
        <time>2013-10-16T13:35:35Z</time>
      </trkpt>
      <trkpt lat="44.38971" lon="4.23241">
        <ele>135.68</ele>
        <time>2013-10-16T13:35:50Z</time>
      </trkpt>
      <trkpt lat="44.38965" lon="4.23359">
        <ele>137.13</ele>
        <time>2013-10-16T13:36:06Z</time>
      </trkpt>
      <trkpt lat="44.38965" lon="4.23364">
        <ele>137.61</ele>
        <time>2013-10-16T13:36:07Z</time>
      </trkpt>
      <trkpt lat="44.38965" lon="4.2337">
        <ele>137.61</ele>
        <time>2013-10-16T13:36:08Z</time>
      </trkpt>
      <trkpt lat="44.38968" lon="4.23374">
        <ele>137.61</ele>
        <time>2013-10-16T13:36:09Z</time>
      </trkpt>
      <trkpt lat="44.38971" lon="4.23378">
        <ele>137.61</ele>
        <time>2013-10-16T13:36:10Z</time>
      </trkpt>
      <trkpt lat="44.38975" lon="4.2338">
        <ele>137.61</ele>
        <time>2013-10-16T13:36:11Z</time>
      </trkpt>
      <trkpt lat="44.38979" lon="4.23381">
        <ele>138.09</ele>
        <time>2013-10-16T13:36:12Z</time>
      </trkpt>
      <trkpt lat="44.38984" lon="4.23381">
        <ele>138.09</ele>
        <time>2013-10-16T13:36:13Z</time>
      </trkpt>
      <trkpt lat="44.39005" lon="4.23386">
        <ele>138.57</ele>
        <time>2013-10-16T13:36:18Z</time>
      </trkpt>
      <trkpt lat="44.39018" lon="4.23388">
        <ele>139.05</ele>
        <time>2013-10-16T13:36:21Z</time>
      </trkpt>
      <trkpt lat="44.39095" lon="4.23401">
        <ele>139.53</ele>
        <time>2013-10-16T13:36:38Z</time>
      </trkpt>
      <trkpt lat="44.39192" lon="4.23415">
        <ele>140.97</ele>
        <time>2013-10-16T13:36:56Z</time>
      </trkpt>
      <trkpt lat="44.39239" lon="4.2342">
        <ele>140.49</ele>
        <time>2013-10-16T13:37:04Z</time>
      </trkpt>
      <trkpt lat="44.39245" lon="4.23419">
        <ele>140.49</ele>
        <time>2013-10-16T13:37:05Z</time>
      </trkpt>
      <trkpt lat="44.39251" lon="4.23418">
        <ele>140.49</ele>
        <time>2013-10-16T13:37:06Z</time>
      </trkpt>
      <trkpt lat="44.39256" lon="4.23416">
        <ele>140.49</ele>
        <time>2013-10-16T13:37:07Z</time>
      </trkpt>
      <trkpt lat="44.39261" lon="4.23413">
        <ele>140.49</ele>
        <time>2013-10-16T13:37:08Z</time>
      </trkpt>
      <trkpt lat="44.39266" lon="4.23409">
        <ele>140.97</ele>
        <time>2013-10-16T13:37:09Z</time>
      </trkpt>
      <trkpt lat="44.39271" lon="4.23406">
        <ele>140.49</ele>
        <time>2013-10-16T13:37:10Z</time>
      </trkpt>
      <trkpt lat="44.39279" lon="4.23398">
        <ele>140.49</ele>
        <time>2013-10-16T13:37:12Z</time>
      </trkpt>
      <trkpt lat="44.393" lon="4.23373">
        <ele>140.49</ele>
        <time>2013-10-16T13:37:18Z</time>
      </trkpt>
      <trkpt lat="44.39305" lon="4.23371">
        <ele>140.49</ele>
        <time>2013-10-16T13:37:19Z</time>
      </trkpt>
      <trkpt lat="44.39309" lon="4.2337">
        <ele>140.49</ele>
        <time>2013-10-16T13:37:20Z</time>
      </trkpt>
      <trkpt lat="44.39315" lon="4.23371">
        <ele>140.01</ele>
        <time>2013-10-16T13:37:21Z</time>
      </trkpt>
      <trkpt lat="44.3932" lon="4.23372">
        <ele>140.01</ele>
        <time>2013-10-16T13:37:22Z</time>
      </trkpt>
      <trkpt lat="44.39326" lon="4.23373">
        <ele>140.49</ele>
        <time>2013-10-16T13:37:23Z</time>
      </trkpt>
      <trkpt lat="44.39331" lon="4.23374">
        <ele>140.01</ele>
        <time>2013-10-16T13:37:24Z</time>
      </trkpt>
      <trkpt lat="44.39337" lon="4.23374">
        <ele>140.01</ele>
        <time>2013-10-16T13:37:25Z</time>
      </trkpt>
      <trkpt lat="44.39353" lon="4.23374">
        <ele>140.01</ele>
        <time>2013-10-16T13:37:28Z</time>
      </trkpt>
      <trkpt lat="44.39359" lon="4.23376">
        <ele>140.49</ele>
        <time>2013-10-16T13:37:29Z</time>
      </trkpt>
      <trkpt lat="44.39363" lon="4.2338">
        <ele>140.49</ele>
        <time>2013-10-16T13:37:30Z</time>
      </trkpt>
      <trkpt lat="44.39367" lon="4.23384">
        <ele>140.49</ele>
        <time>2013-10-16T13:37:31Z</time>
      </trkpt>
      <trkpt lat="44.39371" lon="4.23389">
        <ele>140.49</ele>
        <time>2013-10-16T13:37:32Z</time>
      </trkpt>
      <trkpt lat="44.39374" lon="4.23396">
        <ele>140.49</ele>
        <time>2013-10-16T13:37:33Z</time>
      </trkpt>
      <trkpt lat="44.39376" lon="4.23403">
        <ele>140.49</ele>
        <time>2013-10-16T13:37:34Z</time>
      </trkpt>
      <trkpt lat="44.39378" lon="4.2341">
        <ele>140.49</ele>
        <time>2013-10-16T13:37:35Z</time>
      </trkpt>
      <trkpt lat="44.39379" lon="4.23417">
        <ele>140.01</ele>
        <time>2013-10-16T13:37:36Z</time>
      </trkpt>
      <trkpt lat="44.39402" lon="4.23533">
        <ele>139.53</ele>
        <time>2013-10-16T13:37:51Z</time>
      </trkpt>
      <trkpt lat="44.39406" lon="4.23649">
        <ele>138.57</ele>
        <time>2013-10-16T13:38:05Z</time>
      </trkpt>
      <trkpt lat="44.39409" lon="4.23807">
        <ele>137.61</ele>
        <time>2013-10-16T13:38:24Z</time>
      </trkpt>
      <trkpt lat="44.39419" lon="4.23968">
        <ele>136.64</ele>
        <time>2013-10-16T13:38:43Z</time>
      </trkpt>
      <trkpt lat="44.39453" lon="4.24104">
        <ele>135.68</ele>
        <time>2013-10-16T13:39:00Z</time>
      </trkpt>
      <trkpt lat="44.39485" lon="4.24234">
        <ele>134.24</ele>
        <time>2013-10-16T13:39:16Z</time>
      </trkpt>
      <trkpt lat="44.39495" lon="4.24381">
        <ele>133.28</ele>
        <time>2013-10-16T13:39:33Z</time>
      </trkpt>
      <trkpt lat="44.39507" lon="4.24533">
        <ele>132.8</ele>
        <time>2013-10-16T13:39:51Z</time>
      </trkpt>
      <trkpt lat="44.39517" lon="4.24561">
        <ele>133.28</ele>
        <time>2013-10-16T13:39:55Z</time>
      </trkpt>
      <trkpt lat="44.3956" lon="4.24626">
        <ele>131.84</ele>
        <time>2013-10-16T13:40:07Z</time>
      </trkpt>
      <trkpt lat="44.39623" lon="4.24718">
        <ele>131.36</ele>
        <time>2013-10-16T13:40:24Z</time>
      </trkpt>
      <trkpt lat="44.39633" lon="4.24734">
        <ele>130.88</ele>
        <time>2013-10-16T13:40:27Z</time>
      </trkpt>
      <trkpt lat="44.39637" lon="4.24739">
        <ele>130.88</ele>
        <time>2013-10-16T13:40:28Z</time>
      </trkpt>
      <trkpt lat="44.3969" lon="4.24817">
        <ele>130.88</ele>
        <time>2013-10-16T13:40:43Z</time>
      </trkpt>
      <trkpt lat="44.39714" lon="4.24853">
        <ele>129.43</ele>
        <time>2013-10-16T13:40:50Z</time>
      </trkpt>
      <trkpt lat="44.39776" lon="4.24943">
        <ele>129.43</ele>
        <time>2013-10-16T13:41:07Z</time>
      </trkpt>
      <trkpt lat="44.39834" lon="4.25027">
        <ele>129.92</ele>
        <time>2013-10-16T13:41:23Z</time>
      </trkpt>
      <trkpt lat="44.39876" lon="4.25088">
        <ele>130.4</ele>
        <time>2013-10-16T13:41:35Z</time>
      </trkpt>
      <trkpt lat="44.39915" lon="4.25123">
        <ele>131.36</ele>
        <time>2013-10-16T13:41:45Z</time>
      </trkpt>
      <trkpt lat="44.3992" lon="4.25125">
        <ele>131.36</ele>
        <time>2013-10-16T13:41:46Z</time>
      </trkpt>
      <trkpt lat="44.39924" lon="4.25127">
        <ele>131.36</ele>
        <time>2013-10-16T13:41:47Z</time>
      </trkpt>
      <trkpt lat="44.39928" lon="4.25129">
        <ele>131.36</ele>
        <time>2013-10-16T13:41:48Z</time>
      </trkpt>
      <trkpt lat="44.39933" lon="4.25131">
        <ele>131.36</ele>
        <time>2013-10-16T13:41:49Z</time>
      </trkpt>
      <trkpt lat="44.39937" lon="4.25133">
        <ele>131.84</ele>
        <time>2013-10-16T13:41:50Z</time>
      </trkpt>
      <trkpt lat="44.39968" lon="4.25143">
        <ele>132.32</ele>
        <time>2013-10-16T13:41:57Z</time>
      </trkpt>
      <trkpt lat="44.39972" lon="4.25144">
        <ele>132.32</ele>
        <time>2013-10-16T13:41:58Z</time>
      </trkpt>
      <trkpt lat="44.39976" lon="4.25145">
        <ele>132.32</ele>
        <time>2013-10-16T13:41:59Z</time>
      </trkpt>
      <trkpt lat="44.39985" lon="4.25149">
        <ele>132.32</ele>
        <time>2013-10-16T13:42:01Z</time>
      </trkpt>
      <trkpt lat="44.40045" lon="4.25171">
        <ele>133.76</ele>
        <time>2013-10-16T13:42:15Z</time>
      </trkpt>
      <trkpt lat="44.40049" lon="4.25173">
        <ele>133.76</ele>
        <time>2013-10-16T13:42:16Z</time>
      </trkpt>
      <trkpt lat="44.40052" lon="4.25176">
        <ele>133.76</ele>
        <time>2013-10-16T13:42:17Z</time>
      </trkpt>
      <trkpt lat="44.40056" lon="4.25178">
        <ele>133.76</ele>
        <time>2013-10-16T13:42:18Z</time>
      </trkpt>
      <trkpt lat="44.40061" lon="4.25179">
        <ele>134.24</ele>
        <time>2013-10-16T13:42:19Z</time>
      </trkpt>
      <trkpt lat="44.40069" lon="4.25182">
        <ele>134.24</ele>
        <time>2013-10-16T13:42:21Z</time>
      </trkpt>
      <trkpt lat="44.40073" lon="4.25185">
        <ele>134.24</ele>
        <time>2013-10-16T13:42:22Z</time>
      </trkpt>
      <trkpt lat="44.40076" lon="4.25189">
        <ele>134.72</ele>
        <time>2013-10-16T13:42:23Z</time>
      </trkpt>
      <trkpt lat="44.40107" lon="4.25221">
        <ele>135.2</ele>
        <time>2013-10-16T13:42:31Z</time>
      </trkpt>
      <trkpt lat="44.40112" lon="4.25224">
        <ele>135.2</ele>
        <time>2013-10-16T13:42:32Z</time>
      </trkpt>
      <trkpt lat="44.40116" lon="4.25227">
        <ele>135.2</ele>
        <time>2013-10-16T13:42:33Z</time>
      </trkpt>
      <trkpt lat="44.4012" lon="4.25229">
        <ele>135.68</ele>
        <time>2013-10-16T13:42:34Z</time>
      </trkpt>
      <trkpt lat="44.40125" lon="4.25231">
        <ele>135.68</ele>
        <time>2013-10-16T13:42:35Z</time>
      </trkpt>
      <trkpt lat="44.40129" lon="4.25233">
        <ele>136.16</ele>
        <time>2013-10-16T13:42:36Z</time>
      </trkpt>
      <trkpt lat="44.40134" lon="4.25235">
        <ele>136.16</ele>
        <time>2013-10-16T13:42:37Z</time>
      </trkpt>
      <trkpt lat="44.40139" lon="4.25235">
        <ele>136.16</ele>
        <time>2013-10-16T13:42:38Z</time>
      </trkpt>
      <trkpt lat="44.40143" lon="4.25236">
        <ele>136.16</ele>
        <time>2013-10-16T13:42:39Z</time>
      </trkpt>
      <trkpt lat="44.40148" lon="4.25237">
        <ele>136.16</ele>
        <time>2013-10-16T13:42:40Z</time>
      </trkpt>
      <trkpt lat="44.40156" lon="4.25237">
        <ele>136.16</ele>
        <time>2013-10-16T13:42:42Z</time>
      </trkpt>
      <trkpt lat="44.40222" lon="4.25232">
        <ele>138.57</ele>
        <time>2013-10-16T13:42:58Z</time>
      </trkpt>
      <trkpt lat="44.40249" lon="4.25234">
        <ele>139.05</ele>
        <time>2013-10-16T13:43:05Z</time>
      </trkpt>
      <trkpt lat="44.40261" lon="4.25239">
        <ele>140.01</ele>
        <time>2013-10-16T13:43:08Z</time>
      </trkpt>
      <trkpt lat="44.40264" lon="4.25243">
        <ele>140.01</ele>
        <time>2013-10-16T13:43:09Z</time>
      </trkpt>
      <trkpt lat="44.40268" lon="4.25247">
        <ele>140.01</ele>
        <time>2013-10-16T13:43:10Z</time>
      </trkpt>
      <trkpt lat="44.40282" lon="4.25261">
        <ele>140.49</ele>
        <time>2013-10-16T13:43:14Z</time>
      </trkpt>
      <trkpt lat="44.40285" lon="4.25265">
        <ele>140.49</ele>
        <time>2013-10-16T13:43:15Z</time>
      </trkpt>
      <trkpt lat="44.40294" lon="4.25276">
        <ele>141.45</ele>
        <time>2013-10-16T13:43:18Z</time>
      </trkpt>
      <trkpt lat="44.40302" lon="4.25284">
        <ele>141.93</ele>
        <time>2013-10-16T13:43:20Z</time>
      </trkpt>
      <trkpt lat="44.40305" lon="4.25287">
        <ele>141.45</ele>
        <time>2013-10-16T13:43:21Z</time>
      </trkpt>
      <trkpt lat="44.40309" lon="4.25291">
        <ele>141.93</ele>
        <time>2013-10-16T13:43:22Z</time>
      </trkpt>
      <trkpt lat="44.40311" lon="4.25294">
        <ele>141.45</ele>
        <time>2013-10-16T13:43:23Z</time>
      </trkpt>
      <trkpt lat="44.40313" lon="4.25297">
        <ele>141.93</ele>
        <time>2013-10-16T13:43:24Z</time>
      </trkpt>
      <trkpt lat="44.40314" lon="4.25299">
        <ele>141.93</ele>
        <time>2013-10-16T13:43:25Z</time>
      </trkpt>
      <trkpt lat="44.40315" lon="4.25301">
        <ele>141.45</ele>
        <time>2013-10-16T13:43:26Z</time>
      </trkpt>
      <trkpt lat="44.40316" lon="4.25303">
        <ele>141.45</ele>
        <time>2013-10-16T13:43:27Z</time>
      </trkpt>
      <trkpt lat="44.40318" lon="4.25306">
        <ele>141.93</ele>
        <time>2013-10-16T13:43:28Z</time>
      </trkpt>
      <trkpt lat="44.4032" lon="4.25309">
        <ele>141.93</ele>
        <time>2013-10-16T13:43:29Z</time>
      </trkpt>
      <trkpt lat="44.40349" lon="4.2536">
        <ele>141.45</ele>
        <time>2013-10-16T13:43:41Z</time>
      </trkpt>
      <trkpt lat="44.40406" lon="4.25454">
        <ele>142.89</ele>
        <time>2013-10-16T13:43:58Z</time>
      </trkpt>
      <trkpt lat="44.40458" lon="4.25535">
        <ele>142.41</ele>
        <time>2013-10-16T13:44:11Z</time>
      </trkpt>
      <trkpt lat="44.40528" lon="4.25641">
        <ele>142.41</ele>
        <time>2013-10-16T13:44:28Z</time>
      </trkpt>
      <trkpt lat="44.40597" lon="4.25751">
        <ele>142.41</ele>
        <time>2013-10-16T13:44:46Z</time>
      </trkpt>
      <trkpt lat="44.40615" lon="4.25782">
        <ele>141.93</ele>
        <time>2013-10-16T13:44:51Z</time>
      </trkpt>
      <trkpt lat="44.40618" lon="4.25788">
        <ele>141.45</ele>
        <time>2013-10-16T13:44:52Z</time>
      </trkpt>
      <trkpt lat="44.40623" lon="4.25795">
        <ele>141.45</ele>
        <time>2013-10-16T13:44:53Z</time>
      </trkpt>
      <trkpt lat="44.40663" lon="4.25856">
        <ele>139.05</ele>
        <time>2013-10-16T13:45:02Z</time>
      </trkpt>
      <trkpt lat="44.40713" lon="4.25933">
        <ele>137.13</ele>
        <time>2013-10-16T13:45:13Z</time>
      </trkpt>
      <trkpt lat="44.40774" lon="4.26029">
        <ele>135.68</ele>
        <time>2013-10-16T13:45:26Z</time>
      </trkpt>
      <trkpt lat="44.40825" lon="4.26104">
        <ele>137.61</ele>
        <time>2013-10-16T13:45:38Z</time>
      </trkpt>
      <trkpt lat="44.40834" lon="4.26114">
        <ele>137.13</ele>
        <time>2013-10-16T13:45:40Z</time>
      </trkpt>
      <trkpt lat="44.40893" lon="4.26173">
        <ele>137.13</ele>
        <time>2013-10-16T13:45:53Z</time>
      </trkpt>
      <trkpt lat="44.40973" lon="4.26247">
        <ele>135.2</ele>
        <time>2013-10-16T13:46:08Z</time>
      </trkpt>
      <trkpt lat="44.41006" lon="4.26281">
        <ele>134.24</ele>
        <time>2013-10-16T13:46:14Z</time>
      </trkpt>
      <trkpt lat="44.4101" lon="4.26289">
        <ele>133.76</ele>
        <time>2013-10-16T13:46:15Z</time>
      </trkpt>
      <trkpt lat="44.41011" lon="4.26298">
        <ele>133.76</ele>
        <time>2013-10-16T13:46:16Z</time>
      </trkpt>
      <trkpt lat="44.41011" lon="4.26307">
        <ele>133.28</ele>
        <time>2013-10-16T13:46:17Z</time>
      </trkpt>
      <trkpt lat="44.41008" lon="4.26315">
        <ele>133.76</ele>
        <time>2013-10-16T13:46:18Z</time>
      </trkpt>
      <trkpt lat="44.41004" lon="4.26321">
        <ele>133.76</ele>
        <time>2013-10-16T13:46:19Z</time>
      </trkpt>
      <trkpt lat="44.40997" lon="4.26336">
        <ele>133.76</ele>
        <time>2013-10-16T13:46:21Z</time>
      </trkpt>
      <trkpt lat="44.40995" lon="4.26343">
        <ele>133.76</ele>
        <time>2013-10-16T13:46:22Z</time>
      </trkpt>
      <trkpt lat="44.40994" lon="4.26351">
        <ele>133.76</ele>
        <time>2013-10-16T13:46:23Z</time>
      </trkpt>
      <trkpt lat="44.40994" lon="4.26367">
        <ele>134.24</ele>
        <time>2013-10-16T13:46:25Z</time>
      </trkpt>
      <trkpt lat="44.40997" lon="4.26388">
        <ele>134.72</ele>
        <time>2013-10-16T13:46:28Z</time>
      </trkpt>
      <trkpt lat="44.40998" lon="4.26395">
        <ele>134.72</ele>
        <time>2013-10-16T13:46:29Z</time>
      </trkpt>
      <trkpt lat="44.41002" lon="4.26407">
        <ele>134.72</ele>
        <time>2013-10-16T13:46:31Z</time>
      </trkpt>
      <trkpt lat="44.41004" lon="4.26412">
        <ele>135.2</ele>
        <time>2013-10-16T13:46:32Z</time>
      </trkpt>
      <trkpt lat="44.41043" lon="4.26499">
        <ele>137.13</ele>
        <time>2013-10-16T13:46:48Z</time>
      </trkpt>
      <trkpt lat="44.41061" lon="4.26551">
        <ele>138.09</ele>
        <time>2013-10-16T13:46:57Z</time>
      </trkpt>
      <trkpt lat="44.41062" lon="4.26557">
        <ele>138.09</ele>
        <time>2013-10-16T13:46:58Z</time>
      </trkpt>
      <trkpt lat="44.41066" lon="4.26576">
        <ele>138.57</ele>
        <time>2013-10-16T13:47:01Z</time>
      </trkpt>
      <trkpt lat="44.41078" lon="4.26626">
        <ele>140.01</ele>
        <time>2013-10-16T13:47:09Z</time>
      </trkpt>
      <trkpt lat="44.41079" lon="4.26633">
        <ele>140.01</ele>
        <time>2013-10-16T13:47:10Z</time>
      </trkpt>
      <trkpt lat="44.41081" lon="4.26655">
        <ele>140.49</ele>
        <time>2013-10-16T13:47:13Z</time>
      </trkpt>
      <trkpt lat="44.41081" lon="4.26663">
        <ele>140.97</ele>
        <time>2013-10-16T13:47:14Z</time>
      </trkpt>
      <trkpt lat="44.41083" lon="4.26678">
        <ele>141.93</ele>
        <time>2013-10-16T13:47:16Z</time>
      </trkpt>
      <trkpt lat="44.41085" lon="4.26685">
        <ele>141.93</ele>
        <time>2013-10-16T13:47:17Z</time>
      </trkpt>
      <trkpt lat="44.41088" lon="4.26691">
        <ele>141.45</ele>
        <time>2013-10-16T13:47:18Z</time>
      </trkpt>
      <trkpt lat="44.41091" lon="4.26696">
        <ele>141.93</ele>
        <time>2013-10-16T13:47:19Z</time>
      </trkpt>
      <trkpt lat="44.41095" lon="4.26701">
        <ele>141.45</ele>
        <time>2013-10-16T13:47:20Z</time>
      </trkpt>
      <trkpt lat="44.411" lon="4.26705">
        <ele>140.97</ele>
        <time>2013-10-16T13:47:21Z</time>
      </trkpt>
      <trkpt lat="44.41109" lon="4.26716">
        <ele>140.01</ele>
        <time>2013-10-16T13:47:23Z</time>
      </trkpt>
      <trkpt lat="44.41113" lon="4.26722">
        <ele>140.01</ele>
        <time>2013-10-16T13:47:24Z</time>
      </trkpt>
      <trkpt lat="44.41118" lon="4.26734">
        <ele>140.01</ele>
        <time>2013-10-16T13:47:26Z</time>
      </trkpt>
      <trkpt lat="44.4112" lon="4.26741">
        <ele>140.49</ele>
        <time>2013-10-16T13:47:27Z</time>
      </trkpt>
      <trkpt lat="44.41124" lon="4.26755">
        <ele>140.49</ele>
        <time>2013-10-16T13:47:29Z</time>
      </trkpt>
      <trkpt lat="44.41125" lon="4.2677">
        <ele>140.49</ele>
        <time>2013-10-16T13:47:31Z</time>
      </trkpt>
      <trkpt lat="44.41125" lon="4.26778">
        <ele>140.49</ele>
        <time>2013-10-16T13:47:32Z</time>
      </trkpt>
      <trkpt lat="44.41126" lon="4.26786">
        <ele>140.01</ele>
        <time>2013-10-16T13:47:33Z</time>
      </trkpt>
      <trkpt lat="44.41128" lon="4.268">
        <ele>139.53</ele>
        <time>2013-10-16T13:47:35Z</time>
      </trkpt>
      <trkpt lat="44.41131" lon="4.26808">
        <ele>139.05</ele>
        <time>2013-10-16T13:47:36Z</time>
      </trkpt>
      <trkpt lat="44.41134" lon="4.26814">
        <ele>138.57</ele>
        <time>2013-10-16T13:47:37Z</time>
      </trkpt>
      <trkpt lat="44.4114" lon="4.26827">
        <ele>138.09</ele>
        <time>2013-10-16T13:47:39Z</time>
      </trkpt>
      <trkpt lat="44.41143" lon="4.26834">
        <ele>137.61</ele>
        <time>2013-10-16T13:47:40Z</time>
      </trkpt>
      <trkpt lat="44.41145" lon="4.26843">
        <ele>137.61</ele>
        <time>2013-10-16T13:47:41Z</time>
      </trkpt>
      <trkpt lat="44.41147" lon="4.26852">
        <ele>137.61</ele>
        <time>2013-10-16T13:47:42Z</time>
      </trkpt>
      <trkpt lat="44.41148" lon="4.26861">
        <ele>137.61</ele>
        <time>2013-10-16T13:47:43Z</time>
      </trkpt>
      <trkpt lat="44.41152" lon="4.26869">
        <ele>137.61</ele>
        <time>2013-10-16T13:47:44Z</time>
      </trkpt>
      <trkpt lat="44.41156" lon="4.26875">
        <ele>137.61</ele>
        <time>2013-10-16T13:47:45Z</time>
      </trkpt>
      <trkpt lat="44.41162" lon="4.2688">
        <ele>137.61</ele>
        <time>2013-10-16T13:47:46Z</time>
      </trkpt>
      <trkpt lat="44.41169" lon="4.26883">
        <ele>137.13</ele>
        <time>2013-10-16T13:47:47Z</time>
      </trkpt>
      <trkpt lat="44.41175" lon="4.26886">
        <ele>137.13</ele>
        <time>2013-10-16T13:47:48Z</time>
      </trkpt>
      <trkpt lat="44.41182" lon="4.26887">
        <ele>136.64</ele>
        <time>2013-10-16T13:47:49Z</time>
      </trkpt>
      <trkpt lat="44.41188" lon="4.26887">
        <ele>136.64</ele>
        <time>2013-10-16T13:47:50Z</time>
      </trkpt>
      <trkpt lat="44.41195" lon="4.26886">
        <ele>136.16</ele>
        <time>2013-10-16T13:47:51Z</time>
      </trkpt>
      <trkpt lat="44.412" lon="4.26883">
        <ele>135.68</ele>
        <time>2013-10-16T13:47:52Z</time>
      </trkpt>
      <trkpt lat="44.41206" lon="4.2688">
        <ele>135.68</ele>
        <time>2013-10-16T13:47:53Z</time>
      </trkpt>
      <trkpt lat="44.41219" lon="4.26872">
        <ele>134.72</ele>
        <time>2013-10-16T13:47:55Z</time>
      </trkpt>
      <trkpt lat="44.41225" lon="4.26869">
        <ele>134.72</ele>
        <time>2013-10-16T13:47:56Z</time>
      </trkpt>
      <trkpt lat="44.41232" lon="4.26867">
        <ele>134.24</ele>
        <time>2013-10-16T13:47:57Z</time>
      </trkpt>
      <trkpt lat="44.41292" lon="4.26849">
        <ele>133.28</ele>
        <time>2013-10-16T13:48:06Z</time>
      </trkpt>
      <trkpt lat="44.41297" lon="4.26845">
        <ele>132.8</ele>
        <time>2013-10-16T13:48:07Z</time>
      </trkpt>
      <trkpt lat="44.41302" lon="4.26841">
        <ele>132.8</ele>
        <time>2013-10-16T13:48:08Z</time>
      </trkpt>
      <trkpt lat="44.41307" lon="4.26835">
        <ele>132.32</ele>
        <time>2013-10-16T13:48:09Z</time>
      </trkpt>
      <trkpt lat="44.41312" lon="4.2683">
        <ele>132.32</ele>
        <time>2013-10-16T13:48:10Z</time>
      </trkpt>
      <trkpt lat="44.41317" lon="4.26828">
        <ele>131.84</ele>
        <time>2013-10-16T13:48:11Z</time>
      </trkpt>
      <trkpt lat="44.41322" lon="4.26827">
        <ele>131.36</ele>
        <time>2013-10-16T13:48:12Z</time>
      </trkpt>
      <trkpt lat="44.41326" lon="4.2683">
        <ele>130.88</ele>
        <time>2013-10-16T13:48:13Z</time>
      </trkpt>
      <trkpt lat="44.4133" lon="4.26836">
        <ele>130.88</ele>
        <time>2013-10-16T13:48:14Z</time>
      </trkpt>
      <trkpt lat="44.41333" lon="4.26842">
        <ele>130.88</ele>
        <time>2013-10-16T13:48:15Z</time>
      </trkpt>
      <trkpt lat="44.4134" lon="4.26855">
        <ele>130.88</ele>
        <time>2013-10-16T13:48:17Z</time>
      </trkpt>
      <trkpt lat="44.41344" lon="4.26861">
        <ele>130.88</ele>
        <time>2013-10-16T13:48:18Z</time>
      </trkpt>
      <trkpt lat="44.41349" lon="4.26865">
        <ele>130.4</ele>
        <time>2013-10-16T13:48:19Z</time>
      </trkpt>
      <trkpt lat="44.41356" lon="4.26869">
        <ele>130.88</ele>
        <time>2013-10-16T13:48:20Z</time>
      </trkpt>
      <trkpt lat="44.41363" lon="4.26871">
        <ele>130.4</ele>
        <time>2013-10-16T13:48:21Z</time>
      </trkpt>
      <trkpt lat="44.4137" lon="4.26872">
        <ele>129.92</ele>
        <time>2013-10-16T13:48:22Z</time>
      </trkpt>
      <trkpt lat="44.41377" lon="4.26872">
        <ele>129.92</ele>
        <time>2013-10-16T13:48:23Z</time>
      </trkpt>
      <trkpt lat="44.41384" lon="4.26871">
        <ele>129.92</ele>
        <time>2013-10-16T13:48:24Z</time>
      </trkpt>
      <trkpt lat="44.41391" lon="4.2687">
        <ele>129.43</ele>
        <time>2013-10-16T13:48:25Z</time>
      </trkpt>
      <trkpt lat="44.41398" lon="4.2687">
        <ele>128.95</ele>
        <time>2013-10-16T13:48:26Z</time>
      </trkpt>
      <trkpt lat="44.41406" lon="4.26871">
        <ele>128.95</ele>
        <time>2013-10-16T13:48:27Z</time>
      </trkpt>
      <trkpt lat="44.41413" lon="4.26873">
        <ele>128.47</ele>
        <time>2013-10-16T13:48:28Z</time>
      </trkpt>
      <trkpt lat="44.4142" lon="4.26877">
        <ele>128.47</ele>
        <time>2013-10-16T13:48:29Z</time>
      </trkpt>
      <trkpt lat="44.41427" lon="4.26881">
        <ele>127.99</ele>
        <time>2013-10-16T13:48:30Z</time>
      </trkpt>
      <trkpt lat="44.41434" lon="4.26887">
        <ele>127.99</ele>
        <time>2013-10-16T13:48:31Z</time>
      </trkpt>
      <trkpt lat="44.4144" lon="4.26893">
        <ele>127.99</ele>
        <time>2013-10-16T13:48:32Z</time>
      </trkpt>
      <trkpt lat="44.41446" lon="4.26899">
        <ele>127.51</ele>
        <time>2013-10-16T13:48:33Z</time>
      </trkpt>
      <trkpt lat="44.415" lon="4.26973">
        <ele>126.55</ele>
        <time>2013-10-16T13:48:45Z</time>
      </trkpt>
      <trkpt lat="44.41566" lon="4.27038">
        <ele>127.03</ele>
        <time>2013-10-16T13:49:01Z</time>
      </trkpt>
      <trkpt lat="44.41571" lon="4.27042">
        <ele>127.51</ele>
        <time>2013-10-16T13:49:02Z</time>
      </trkpt>
      <trkpt lat="44.41578" lon="4.2705">
        <ele>127.51</ele>
        <time>2013-10-16T13:49:04Z</time>
      </trkpt>
      <trkpt lat="44.41612" lon="4.27115">
        <ele>129.43</ele>
        <time>2013-10-16T13:49:17Z</time>
      </trkpt>
      <trkpt lat="44.41618" lon="4.27139">
        <ele>130.88</ele>
        <time>2013-10-16T13:49:21Z</time>
      </trkpt>
      <trkpt lat="44.41619" lon="4.27145">
        <ele>130.88</ele>
        <time>2013-10-16T13:49:22Z</time>
      </trkpt>
      <trkpt lat="44.41619" lon="4.27151">
        <ele>131.36</ele>
        <time>2013-10-16T13:49:23Z</time>
      </trkpt>
      <trkpt lat="44.4162" lon="4.27157">
        <ele>131.84</ele>
        <time>2013-10-16T13:49:24Z</time>
      </trkpt>
      <trkpt lat="44.4162" lon="4.27163">
        <ele>132.32</ele>
        <time>2013-10-16T13:49:25Z</time>
      </trkpt>
      <trkpt lat="44.4162" lon="4.27168">
        <ele>131.84</ele>
        <time>2013-10-16T13:49:26Z</time>
      </trkpt>
      <trkpt lat="44.4162" lon="4.27174">
        <ele>132.32</ele>
        <time>2013-10-16T13:49:27Z</time>
      </trkpt>
      <trkpt lat="44.4162" lon="4.2718">
        <ele>132.32</ele>
        <time>2013-10-16T13:49:28Z</time>
      </trkpt>
      <trkpt lat="44.41619" lon="4.27187">
        <ele>132.8</ele>
        <time>2013-10-16T13:49:29Z</time>
      </trkpt>
      <trkpt lat="44.41599" lon="4.2727">
        <ele>135.2</ele>
        <time>2013-10-16T13:49:44Z</time>
      </trkpt>
      <trkpt lat="44.41592" lon="4.27364">
        <ele>137.13</ele>
        <time>2013-10-16T13:50:00Z</time>
      </trkpt>
      <trkpt lat="44.41601" lon="4.27401">
        <ele>137.61</ele>
        <time>2013-10-16T13:50:06Z</time>
      </trkpt>
      <trkpt lat="44.41619" lon="4.27443">
        <ele>137.61</ele>
        <time>2013-10-16T13:50:14Z</time>
      </trkpt>
      <trkpt lat="44.41632" lon="4.2755">
        <ele>136.64</ele>
        <time>2013-10-16T13:50:29Z</time>
      </trkpt>
      <trkpt lat="44.41631" lon="4.27566">
        <ele>136.16</ele>
        <time>2013-10-16T13:50:31Z</time>
      </trkpt>
      <trkpt lat="44.4163" lon="4.27574">
        <ele>135.68</ele>
        <time>2013-10-16T13:50:32Z</time>
      </trkpt>
      <trkpt lat="44.41629" lon="4.27582">
        <ele>135.68</ele>
        <time>2013-10-16T13:50:33Z</time>
      </trkpt>
      <trkpt lat="44.41627" lon="4.2759">
        <ele>135.68</ele>
        <time>2013-10-16T13:50:34Z</time>
      </trkpt>
      <trkpt lat="44.41625" lon="4.27597">
        <ele>135.68</ele>
        <time>2013-10-16T13:50:35Z</time>
      </trkpt>
      <trkpt lat="44.41623" lon="4.27605">
        <ele>135.68</ele>
        <time>2013-10-16T13:50:36Z</time>
      </trkpt>
      <trkpt lat="44.4162" lon="4.27612">
        <ele>135.68</ele>
        <time>2013-10-16T13:50:37Z</time>
      </trkpt>
      <trkpt lat="44.41616" lon="4.27619">
        <ele>135.2</ele>
        <time>2013-10-16T13:50:38Z</time>
      </trkpt>
      <trkpt lat="44.41613" lon="4.27625">
        <ele>135.2</ele>
        <time>2013-10-16T13:50:39Z</time>
      </trkpt>
      <trkpt lat="44.41584" lon="4.27667">
        <ele>134.72</ele>
        <time>2013-10-16T13:50:46Z</time>
      </trkpt>
      <trkpt lat="44.41578" lon="4.27681">
        <ele>134.24</ele>
        <time>2013-10-16T13:50:48Z</time>
      </trkpt>
      <trkpt lat="44.41576" lon="4.27689">
        <ele>134.24</ele>
        <time>2013-10-16T13:50:49Z</time>
      </trkpt>
      <trkpt lat="44.41574" lon="4.27697">
        <ele>134.24</ele>
        <time>2013-10-16T13:50:50Z</time>
      </trkpt>
      <trkpt lat="44.41572" lon="4.27705">
        <ele>134.72</ele>
        <time>2013-10-16T13:50:51Z</time>
      </trkpt>
      <trkpt lat="44.41571" lon="4.27713">
        <ele>134.24</ele>
        <time>2013-10-16T13:50:52Z</time>
      </trkpt>
      <trkpt lat="44.41571" lon="4.2772">
        <ele>134.24</ele>
        <time>2013-10-16T13:50:53Z</time>
      </trkpt>
      <trkpt lat="44.41571" lon="4.27728">
        <ele>134.24</ele>
        <time>2013-10-16T13:50:54Z</time>
      </trkpt>
      <trkpt lat="44.41571" lon="4.27736">
        <ele>133.76</ele>
        <time>2013-10-16T13:50:55Z</time>
      </trkpt>
      <trkpt lat="44.41571" lon="4.27751">
        <ele>133.76</ele>
        <time>2013-10-16T13:50:57Z</time>
      </trkpt>
      <trkpt lat="44.41571" lon="4.27759">
        <ele>133.28</ele>
        <time>2013-10-16T13:50:58Z</time>
      </trkpt>
      <trkpt lat="44.4157" lon="4.27776">
        <ele>132.8</ele>
        <time>2013-10-16T13:51:00Z</time>
      </trkpt>
      <trkpt lat="44.41552" lon="4.27859">
        <ele>131.84</ele>
        <time>2013-10-16T13:51:10Z</time>
      </trkpt>
      <trkpt lat="44.41552" lon="4.27867">
        <ele>131.36</ele>
        <time>2013-10-16T13:51:11Z</time>
      </trkpt>
      <trkpt lat="44.41553" lon="4.27876">
        <ele>131.36</ele>
        <time>2013-10-16T13:51:12Z</time>
      </trkpt>
      <trkpt lat="44.41554" lon="4.27884">
        <ele>131.36</ele>
        <time>2013-10-16T13:51:13Z</time>
      </trkpt>
      <trkpt lat="44.41556" lon="4.27891">
        <ele>130.88</ele>
        <time>2013-10-16T13:51:14Z</time>
      </trkpt>
      <trkpt lat="44.41557" lon="4.27899">
        <ele>130.88</ele>
        <time>2013-10-16T13:51:15Z</time>
      </trkpt>
      <trkpt lat="44.4156" lon="4.27905">
        <ele>130.88</ele>
        <time>2013-10-16T13:51:16Z</time>
      </trkpt>
      <trkpt lat="44.41593" lon="4.28003">
        <ele>129.92</ele>
        <time>2013-10-16T13:51:30Z</time>
      </trkpt>
      <trkpt lat="44.41601" lon="4.28029">
        <ele>130.4</ele>
        <time>2013-10-16T13:51:34Z</time>
      </trkpt>
      <trkpt lat="44.41604" lon="4.28036">
        <ele>130.4</ele>
        <time>2013-10-16T13:51:35Z</time>
      </trkpt>
      <trkpt lat="44.41635" lon="4.28103">
        <ele>129.92</ele>
        <time>2013-10-16T13:51:47Z</time>
      </trkpt>
      <trkpt lat="44.41637" lon="4.28109">
        <ele>129.43</ele>
        <time>2013-10-16T13:51:48Z</time>
      </trkpt>
      <trkpt lat="44.41639" lon="4.28115">
        <ele>129.43</ele>
        <time>2013-10-16T13:51:49Z</time>
      </trkpt>
      <trkpt lat="44.4164" lon="4.28122">
        <ele>129.43</ele>
        <time>2013-10-16T13:51:50Z</time>
      </trkpt>
      <trkpt lat="44.41641" lon="4.28129">
        <ele>129.43</ele>
        <time>2013-10-16T13:51:51Z</time>
      </trkpt>
      <trkpt lat="44.41641" lon="4.28135">
        <ele>129.43</ele>
        <time>2013-10-16T13:51:52Z</time>
      </trkpt>
      <trkpt lat="44.41641" lon="4.28142">
        <ele>129.43</ele>
        <time>2013-10-16T13:51:53Z</time>
      </trkpt>
      <trkpt lat="44.4164" lon="4.28149">
        <ele>129.43</ele>
        <time>2013-10-16T13:51:54Z</time>
      </trkpt>
      <trkpt lat="44.41639" lon="4.28156">
        <ele>129.43</ele>
        <time>2013-10-16T13:51:55Z</time>
      </trkpt>
      <trkpt lat="44.41639" lon="4.28163">
        <ele>129.43</ele>
        <time>2013-10-16T13:51:56Z</time>
      </trkpt>
      <trkpt lat="44.41639" lon="4.2817">
        <ele>129.43</ele>
        <time>2013-10-16T13:51:57Z</time>
      </trkpt>
      <trkpt lat="44.41638" lon="4.28214">
        <ele>129.43</ele>
        <time>2013-10-16T13:52:03Z</time>
      </trkpt>
      <trkpt lat="44.41635" lon="4.28237">
        <ele>128.95</ele>
        <time>2013-10-16T13:52:06Z</time>
      </trkpt>
      <trkpt lat="44.41634" lon="4.28245">
        <ele>129.43</ele>
        <time>2013-10-16T13:52:07Z</time>
      </trkpt>
      <trkpt lat="44.41634" lon="4.28254">
        <ele>129.43</ele>
        <time>2013-10-16T13:52:08Z</time>
      </trkpt>
      <trkpt lat="44.41629" lon="4.28356">
        <ele>127.99</ele>
        <time>2013-10-16T13:52:19Z</time>
      </trkpt>
      <trkpt lat="44.41628" lon="4.28366">
        <ele>127.99</ele>
        <time>2013-10-16T13:52:20Z</time>
      </trkpt>
      <trkpt lat="44.41628" lon="4.28375">
        <ele>127.99</ele>
        <time>2013-10-16T13:52:21Z</time>
      </trkpt>
      <trkpt lat="44.41628" lon="4.28384">
        <ele>127.51</ele>
        <time>2013-10-16T13:52:22Z</time>
      </trkpt>
      <trkpt lat="44.41629" lon="4.28394">
        <ele>127.99</ele>
        <time>2013-10-16T13:52:23Z</time>
      </trkpt>
      <trkpt lat="44.41631" lon="4.28403">
        <ele>127.99</ele>
        <time>2013-10-16T13:52:24Z</time>
      </trkpt>
      <trkpt lat="44.41638" lon="4.28429">
        <ele>127.51</ele>
        <time>2013-10-16T13:52:27Z</time>
      </trkpt>
      <trkpt lat="44.4165" lon="4.28459">
        <ele>127.51</ele>
        <time>2013-10-16T13:52:31Z</time>
      </trkpt>
      <trkpt lat="44.41653" lon="4.28465">
        <ele>127.03</ele>
        <time>2013-10-16T13:52:32Z</time>
      </trkpt>
      <trkpt lat="44.41663" lon="4.28486">
        <ele>127.03</ele>
        <time>2013-10-16T13:52:35Z</time>
      </trkpt>
      <trkpt lat="44.41699" lon="4.28551">
        <ele>126.07</ele>
        <time>2013-10-16T13:52:45Z</time>
      </trkpt>
      <trkpt lat="44.41718" lon="4.28592">
        <ele>126.07</ele>
        <time>2013-10-16T13:52:51Z</time>
      </trkpt>
      <trkpt lat="44.41749" lon="4.28672">
        <ele>127.51</ele>
        <time>2013-10-16T13:53:02Z</time>
      </trkpt>
      <trkpt lat="44.4176" lon="4.2869">
        <ele>127.51</ele>
        <time>2013-10-16T13:53:05Z</time>
      </trkpt>
      <trkpt lat="44.41764" lon="4.28696">
        <ele>127.03</ele>
        <time>2013-10-16T13:53:06Z</time>
      </trkpt>
      <trkpt lat="44.41769" lon="4.28701">
        <ele>127.51</ele>
        <time>2013-10-16T13:53:07Z</time>
      </trkpt>
      <trkpt lat="44.41823" lon="4.28779">
        <ele>126.55</ele>
        <time>2013-10-16T13:53:21Z</time>
      </trkpt>
      <trkpt lat="44.41899" lon="4.28869">
        <ele>126.07</ele>
        <time>2013-10-16T13:53:38Z</time>
      </trkpt>
      <trkpt lat="44.41951" lon="4.28911">
        <ele>127.03</ele>
        <time>2013-10-16T13:53:49Z</time>
      </trkpt>
      <trkpt lat="44.42002" lon="4.29005">
        <ele>127.99</ele>
        <time>2013-10-16T13:54:06Z</time>
      </trkpt>
      <trkpt lat="44.42041" lon="4.29116">
        <ele>128.47</ele>
        <time>2013-10-16T13:54:24Z</time>
      </trkpt>
      <trkpt lat="44.42058" lon="4.29159">
        <ele>128.95</ele>
        <time>2013-10-16T13:54:31Z</time>
      </trkpt>
      <trkpt lat="44.42061" lon="4.29165">
        <ele>128.95</ele>
        <time>2013-10-16T13:54:32Z</time>
      </trkpt>
      <trkpt lat="44.42109" lon="4.29262">
        <ele>127.99</ele>
        <time>2013-10-16T13:54:48Z</time>
      </trkpt>
      <trkpt lat="44.4218" lon="4.29385">
        <ele>125.59</ele>
        <time>2013-10-16T13:55:07Z</time>
      </trkpt>
      <trkpt lat="44.42189" lon="4.29397">
        <ele>125.59</ele>
        <time>2013-10-16T13:55:09Z</time>
      </trkpt>
      <trkpt lat="44.42204" lon="4.29413">
        <ele>124.15</ele>
        <time>2013-10-16T13:55:12Z</time>
      </trkpt>
      <trkpt lat="44.42262" lon="4.29495">
        <ele>122.71</ele>
        <time>2013-10-16T13:55:25Z</time>
      </trkpt>
      <trkpt lat="44.42331" lon="4.29587">
        <ele>123.19</ele>
        <time>2013-10-16T13:55:42Z</time>
      </trkpt>
      <trkpt lat="44.4234" lon="4.29596">
        <ele>123.19</ele>
        <time>2013-10-16T13:55:44Z</time>
      </trkpt>
      <trkpt lat="44.42344" lon="4.296">
        <ele>123.19</ele>
        <time>2013-10-16T13:55:45Z</time>
      </trkpt>
      <trkpt lat="44.42349" lon="4.29604">
        <ele>123.19</ele>
        <time>2013-10-16T13:55:46Z</time>
      </trkpt>
      <trkpt lat="44.42423" lon="4.29662">
        <ele>122.22</ele>
        <time>2013-10-16T13:56:02Z</time>
      </trkpt>
      <trkpt lat="44.42453" lon="4.29707">
        <ele>121.74</ele>
        <time>2013-10-16T13:56:10Z</time>
      </trkpt>
      <trkpt lat="44.42456" lon="4.29713">
        <ele>121.74</ele>
        <time>2013-10-16T13:56:11Z</time>
      </trkpt>
      <trkpt lat="44.42477" lon="4.29769">
        <ele>121.74</ele>
        <time>2013-10-16T13:56:19Z</time>
      </trkpt>
      <trkpt lat="44.4248" lon="4.29775">
        <ele>121.74</ele>
        <time>2013-10-16T13:56:20Z</time>
      </trkpt>
      <trkpt lat="44.42483" lon="4.29781">
        <ele>122.22</ele>
        <time>2013-10-16T13:56:21Z</time>
      </trkpt>
      <trkpt lat="44.42487" lon="4.29792">
        <ele>122.22</ele>
        <time>2013-10-16T13:56:23Z</time>
      </trkpt>
      <trkpt lat="44.42492" lon="4.29801">
        <ele>121.74</ele>
        <time>2013-10-16T13:56:25Z</time>
      </trkpt>
      <trkpt lat="44.42495" lon="4.29803">
        <ele>121.74</ele>
        <time>2013-10-16T13:56:26Z</time>
      </trkpt>
      <trkpt lat="44.42498" lon="4.29803">
        <ele>122.22</ele>
        <time>2013-10-16T13:56:27Z</time>
      </trkpt>
      <trkpt lat="44.42508" lon="4.29799">
        <ele>123.67</ele>
        <time>2013-10-16T13:56:31Z</time>
      </trkpt>
      <trkpt lat="44.42511" lon="4.298">
        <ele>123.67</ele>
        <time>2013-10-16T13:56:32Z</time>
      </trkpt>
      <trkpt lat="44.42514" lon="4.298">
        <ele>124.63</ele>
        <time>2013-10-16T13:56:33Z</time>
      </trkpt>
      <trkpt lat="44.42516" lon="4.298">
        <ele>124.63</ele>
        <time>2013-10-16T13:56:34Z</time>
      </trkpt>
      <trkpt lat="44.42519" lon="4.29799">
        <ele>124.15</ele>
        <time>2013-10-16T13:56:35Z</time>
      </trkpt>
      <trkpt lat="44.42521" lon="4.29796">
        <ele>124.15</ele>
        <time>2013-10-16T13:56:36Z</time>
      </trkpt>
      <trkpt lat="44.42526" lon="4.29793">
        <ele>124.63</ele>
        <time>2013-10-16T13:56:46Z</time>
      </trkpt>
      <trkpt lat="44.42526" lon="4.29792">
        <ele>125.11</ele>
        <time>2013-10-16T13:56:51Z</time>
      </trkpt>
      <trkpt lat="44.42528" lon="4.2979">
        <ele>125.11</ele>
        <time>2013-10-16T13:56:52Z</time>
      </trkpt>
      <trkpt lat="44.42537" lon="4.29783">
        <ele>125.11</ele>
        <time>2013-10-16T13:57:06Z</time>
      </trkpt>
      <trkpt lat="44.42537" lon="4.2977">
        <ele>125.59</ele>
        <time>2013-10-16T13:57:22Z</time>
      </trkpt>
    </trkseg>
  </trk>
</gpx>